AXCGXCT XCTrack 0.5.0.3 on samsung GT-I9300 4.3
HFDTE250614
HFPLTPilot:Darth_mau
HFTZOTimezone:2
HFSITSite:OLARIZU
HPGTYGliderType:NIVIUK Artik 3
HPGIDGliderID:
HFDTM100DATUM:WGS-1984
HFCIDCOMPETITIONID:
HFCCLCOMPETITIONCLASS:FAI-3 (PG)
HFALGGEO
LXCG     COLOR:000000255
LXCG     SHORTNAME:2014-06-25-MAU 2_unified
LXCTDEVICE eyJjYXBhYmlsaXRpZXMiOnsibWVtQ2xhc3MiOjY0LCJtZW1MYXJnZUNsYXNzIjoyNTYsIm5hbiI6dHJ1
LXCTDEVICE ZX0sImRldmljZSI6eyJhbmRyb2lkSWQiOiIzZWNmMDhkZTE3MjczZDc2IiwiYm9hcmQiOiJzbWRrNHgx
LXCTDEVICE MiIsImJ1aWxkSWQiOiJKU1MxNUoiLCJjcHVBQkkiOiJhcm1lYWJpLXY3YSIsImNwdUFCSTIiOiJhcm1l
LXCTDEVICE YWJpIiwiZGV2aWNlU3RyaW5nIjoic2Ftc3VuZyBHVC1JOTMwMCA0LjMiLCJkaXNwbGF5Ijp7ImgiOjEy
LXCTDEVICE ODAsIm1tIjoxMi41OTg0MjUsInciOjcyMH0sImZpbmdlcnByaW50Ijoic2Ftc3VuZy9tMHh4L20wOjQu
LXCTDEVICE My9KU1MxNUovSTkzMDBYWFVHTkE1OnVzZXIvcmVsZWFzZS1rZXlzIiwiaGFyZHdhcmUiOiJzbWRrNHgx
LXCTDEVICE MiIsIm1hbnVmYWN0dXJlciI6InNhbXN1bmciLCJwcm9kdWN0IjoibTB4eCIsInNkayI6MTh9LCJ4Y3Ry
LXCTDEVICE YWNrIjp7InZlcnNpb25OYW1lIjoiMC41LjAuMyIsInZlcnNpb25Db2RlIjo0M319
LXCG POINTSCOUNT:8900
LXCG COORDBOX:-2.773433,42.545700,-2.661100,42.819284,1403712256.000000,1403717248.000000,131785.312500,133698.687500,4758,5087,26.346523,26.346523,0,                                                                                                                        
I00
B1604374249019N00239755WA0071900719
LXCG     TRX0,255,2,0
B1604384249020N00239754WA0071900719
B1604394249021N00239753WA0071900719
B1604404249021N00239753WA0072000720
B1604414249021N00239753WA0072100721
B1604424249023N00239753WA0072100721
B1604434249024N00239753WA0072000720
B1604444249026N00239753WA0071900719
B1604454249028N00239753WA0072000720
B1604464249029N00239753WA0072200722
B1604474249030N00239753WA0072400724
B1604484249031N00239754WA0072500725
B1604494249032N00239754WA0072500725
B1604504249033N00239755WA0072500725
B1604514249035N00239757WA0072600725
B1604524249037N00239757WA0072600726
B1604534249039N00239758WA0072700727
B1604544249040N00239759WA0072700727
B1604554249041N00239760WA0072700727
B1604564249043N00239761WA0072700727
B1604574249045N00239762WA0072600726
B1604584249046N00239762WA0072600726
B1604594249048N00239762WA0072700727
B1605004249050N00239762WA0072700727
B1605014249052N00239762WA0072700727
B1605024249053N00239760WA0072800728
B1605034249053N00239758WA0072900729
B1605044249052N00239755WA0072900729
B1605054249049N00239751WA0072900729
B1605064249045N00239746WA0072800728
B1605074249041N00239741WA0072800728
B1605084249036N00239737WA0072900729
B1605094249033N00239734WA0072900729
B1605104249030N00239731WA0072900729
B1605114249030N00239728WA0072900728
B1605124249031N00239726WA0072800728
B1605134249032N00239726WA0072800728
B1605144249032N00239726WA0072900729
B1605154249036N00239729WA0072900729
B1605164249037N00239735WA0072900729
B1605174249037N00239743WA0072800728
B1605184249037N00239750WA0072800728
B1605194249037N00239757WA0072800728
B1605204249037N00239762WA0072700727
B1605214249038N00239765WA0072600726
B1605224249040N00239766WA0072500725
B1605234249042N00239764WA0072500725
B1605244249043N00239761WA0072500725
B1605254249044N00239759WA0072500725
B1605264249046N00239757WA0072400724
B1605274249049N00239757WA0072300723
B1605284249052N00239757WA0072300723
B1605294249054N00239757WA0072300723
B1605304249057N00239758WA0072400724
B1605314249059N00239758WA0072500725
B1605324249061N00239758WA0072500725
B1605334249064N00239758WA0072500725
B1605344249066N00239758WA0072500725
B1605354249068N00239757WA0072500725
B1605364249069N00239754WA0072400724
B1605374249068N00239749WA0072300723
B1605384249063N00239743WA0072100721
B1605394249059N00239738WA0072000720
B1605404249053N00239735WA0072000720
B1605414249047N00239732WA0072100721
B1605424249040N00239728WA0072100721
B1605434249035N00239724WA0072200722
B1605444249030N00239718WA0072200722
B1605454249025N00239714WA0072300723
B1605464249021N00239709WA0072400724
B1605474249019N00239704WA0072400724
B1605484249018N00239699WA0072400724
B1605494249019N00239695WA0072300723
B1605504249022N00239695WA0072300723
B1605514249024N00239697WA0072300723
B1605524249027N00239700WA0072200722
B1605534249028N00239704WA0072300723
B1605544249030N00239708WA0072500725
B1605554249032N00239712WA0072600726
B1605564249033N00239716WA0072600726
B1605574249034N00239722WA0072600726
B1605584249036N00239728WA0072600726
B1605594249038N00239739WA0072600726
B1606004249039N00239749WA0072600726
B1606014249041N00239757WA0072600726
B1606024249042N00239760WA0072600726
B1606034249044N00239764WA0072500725
B1606044249047N00239764WA0072400724
B1606054249049N00239761WA0072200722
B1606064249049N00239757WA0072100721
B1606074249046N00239747WA0072000720
B1606084249041N00239741WA0072000720
B1606094249036N00239735WA0072000720
B1606104249031N00239731WA0072100721
B1606114249027N00239727WA0072200722
B1606124249023N00239723WA0072200722
B1606134249020N00239719WA0072300723
B1606144249017N00239715WA0072400724
B1606154249015N00239711WA0072400724
B1606164249012N00239707WA0072400724
B1606174249010N00239702WA0072500725
B1606184249009N00239698WA0072500725
B1606194249009N00239695WA0072400724
B1606204249010N00239693WA0072300723
B1606214249013N00239693WA0072200722
B1606224249015N00239699WA0072000720
B1606234249014N00239705WA0071900719
B1606244249013N00239714WA0072000720
B1606254249012N00239722WA0072000720
B1606264249011N00239728WA0072100721
B1606274249011N00239734WA0072000720
B1606284249012N00239738WA0072000720
B1606294249014N00239742WA0071900719
B1606304249014N00239745WA0072000720
B1606314249015N00239748WA0072100721
B1606324249016N00239750WA0072000720
B1606334249016N00239751WA0071900719
B1606344249017N00239752WA0071700717
B1606354249017N00239753WA0071600716
B1606364249017N00239753WA0071600716
B1606374249017N00239753WA0071600716
B1606384249017N00239753WA0071600716
B1606394249017N00239753WA0071600716
B1606404249017N00239753WA0071500715
B1606414249017N00239753WA0071400714
B1606424249017N00239753WA0071400714
B1606434249017N00239753WA0071400714
B1606444249017N00239753WA0071300713
B1606454249017N00239753WA0071300713
B1606464249017N00239753WA0071400714
B1606474249017N00239753WA0071400714
B1606484249019N00239749WA0071400714
B1606494249019N00239749WA0071300713
B1606504249019N00239749WA0071400714
LXCG     TRCXCTSTATS eyJzdGF0cyI6eyJ0ZXJyYWluQm1wQ2FjaGUiOnsiYWxsb2MiOjAsImFsbG9jRmFpbCI6MCwibWF4c2l6
LXCG     TRCXCTSTATS ZSI6NzIsIm1heHNpemVJbml0Ijo3MiwicmV1c2UiOjB9LCJHUFMiOnsiYWx0Rml4R2VvaWREaWZmIjot
LXCG     TRCXCTSTATS NTMuMjgwNDk4NDE4OTA3NjYsImFsdEZpeE1ldGhvZCI6eyJkaWZmQXBpR2VvaWQiOjAsImRpZmZBcGlO
LXCG     TRCXCTSTATS bWVhIjowLCJubWVhIjo5NTF9LCJhcGlUaW1lT2ZmTVMiOjAsImFwaUNudCI6OTUxLCJhbHRGaXhObWVh
LXCG     TRCXCTSTATS RGlmZiI6LTUxLjI5ODM0NzM0MDA5MzI3LCJiZWFyaW5nQ29tcHV0ZWQiOjgwLCJubWVhQWx0Q250Ijo5
LXCG     TRCXCTSTATS NTEsIm5tZWFDbnQiOjE3OTYxLCJubWVhUG9zQ250Ijo5NTEsInNwZWVkQ29tcHV0ZWQiOjI3fX19
B1607154249020N00239753WA0071500715
B1607164249022N00239753WA0071400714
B1607174249024N00239754WA0071300713
B1607184249026N00239754WA0071400714
B1607194249028N00239755WA0071600716
B1607204249029N00239757WA0071800718
B1607214249030N00239759WA0071800718
B1607224249031N00239761WA0071800718
B1607234249031N00239764WA0071700717
B1607244249032N00239764WA0071600716
B1607254249034N00239764WA0071600715
B1607264249036N00239764WA0071600716
B1607274249038N00239764WA0071600716
B1607284249039N00239761WA0071600716
B1607294249041N00239759WA0071500715
B1607304249042N00239757WA0071500715
B1607314249043N00239752WA0071400714
B1607324249042N00239747WA0071400714
B1607334249040N00239741WA0071400714
B1607344249036N00239735WA0071400714
B1607354249033N00239729WA0071500715
B1607364249029N00239723WA0071600716
B1607374249026N00239718WA0071700717
B1607384249023N00239714WA0071700717
B1607394249020N00239708WA0071600716
B1607404249019N00239704WA0071500715
B1607414249019N00239700WA0071300713
B1607424249020N00239698WA0071200712
B1607434249022N00239698WA0071000710
B1607444249024N00239702WA0070900709
B1607454249026N00239705WA0070900709
B1607464249028N00239707WA0070900709
B1607474249029N00239711WA0070900709
B1607484249030N00239715WA0070800708
B1607494249031N00239718WA0070800708
B1607504249034N00239721WA0070800708
B1607514249035N00239726WA0070900709
B1607524249037N00239730WA0071100711
B1607534249037N00239735WA0071300713
B1607544249037N00239741WA0071400714
B1607554249036N00239745WA0071500715
B1607564249035N00239747WA0071600716
B1607574249035N00239752WA0071600716
B1607584249035N00239757WA0071700717
B1607594249034N00239762WA0071700717
B1608004249033N00239767WA0071700717
B1608014249033N00239772WA0071700717
B1608024249032N00239774WA0071700717
B1608034249032N00239774WA0071600716
B1608044249034N00239771WA0071700717
B1608054249035N00239766WA0071800718
B1608064249034N00239761WA0071900719
B1608074249034N00239757WA0072000720
B1608084249033N00239751WA0072200722
B1608094249034N00239746WA0072100721
B1608104249034N00239742WA0072200722
B1608114249035N00239739WA0072200722
B1608124249036N00239737WA0072300723
B1608134249038N00239738WA0072400723
B1608144249040N00239743WA0072400724
B1608154249039N00239750WA0072400724
B1608164249037N00239757WA0072600726
B1608174249035N00239762WA0072700727
B1608184249035N00239766WA0072800728
B1608194249036N00239768WA0072700727
B1608204249038N00239770WA0072700727
B1608214249040N00239770WA0072800728
B1608224249042N00239771WA0072900729
B1608234249044N00239772WA0073100731
B1608244249044N00239774WA0073300733
B1608254249044N00239776WA0073400734
B1608264249045N00239777WA0073300733
B1608274249046N00239777WA0073100731
B1608284249048N00239777WA0072900729
B1608294249051N00239776WA0072800728
B1608304249054N00239776WA0073000730
B1608314249056N00239774WA0073300733
B1608324249057N00239773WA0073600736
B1608334249058N00239773WA0073800738
B1608344249060N00239773WA0073800738
B1608354249061N00239773WA0073900739
B1608364249062N00239773WA0073900739
B1608374249064N00239773WA0073800738
B1608384249066N00239773WA0073800738
B1608394249068N00239773WA0073800738
B1608404249069N00239772WA0074000740
B1608414249070N00239771WA0074100741
B1608424249071N00239769WA0074100741
B1608434249072N00239768WA0074100740
B1608444249074N00239767WA0074000740
B1608454249076N00239765WA0073900738
B1608464249078N00239764WA0073800738
B1608474249081N00239762WA0073900738
B1608484249082N00239760WA0073900739
B1608494249084N00239759WA0073800738
B1608504249086N00239757WA0073700737
B1608514249088N00239755WA0073600736
B1608524249091N00239752WA0073400734
B1608534249093N00239750WA0073300733
B1608544249095N00239747WA0073300733
B1608554249097N00239745WA0073400734
B1608564249099N00239743WA0073500735
B1608574249100N00239740WA0073500735
B1608584249102N00239738WA0073600736
B1608594249102N00239737WA0073600736
B1609004249103N00239736WA0073600736
B1609014249104N00239734WA0073600736
B1609024249105N00239733WA0073500735
B1609034249107N00239731WA0073400734
B1609044249108N00239730WA0073500735
B1609054249109N00239728WA0073400734
B1609064249111N00239726WA0073200732
B1609074249113N00239724WA0073100731
B1609084249115N00239721WA0073100731
B1609094249117N00239718WA0073200732
B1609104249119N00239715WA0073400734
B1609114249120N00239712WA0073700737
B1609124249121N00239709WA0074000740
B1609134249122N00239707WA0074300743
B1609144249122N00239707WA0074600746
B1609154249123N00239705WA0074600746
B1609164249123N00239705WA0074800748
B1609174249123N00239703WA0074900749
B1609184249124N00239701WA0075000750
B1609194249122N00239698WA0075200752
B1609204249120N00239693WA0075400753
B1609214249114N00239688WA0075500755
B1609224249107N00239685WA0075500755
B1609234249099N00239683WA0075600756
B1609244249092N00239691WA0075700757
B1609254249087N00239699WA0075800758
B1609264249084N00239710WA0075900759
B1609274249085N00239721WA0076100761
B1609284249085N00239726WA0076400764
B1609294249086N00239728WA0076600766
B1609304249087N00239730WA0077000770
B1609314249089N00239732WA0077200772
B1609324249090N00239733WA0077200772
B1609334249091N00239734WA0077300773
B1609344249092N00239734WA0077400774
B1609354249093N00239731WA0077500775
B1609364249091N00239724WA0077500775
B1609374249087N00239720WA0077500775
B1609384249080N00239718WA0077500775
B1609394249072N00239719WA0077500775
B1609404249064N00239724WA0077500775
B1609414249058N00239732WA0077600776
B1609424249053N00239741WA0077800778
B1609434249049N00239749WA0078000780
B1609444249048N00239757WA0078200782
B1609454249047N00239764WA0078300783
B1609464249047N00239769WA0078500785
B1609474249048N00239771WA0078600786
B1609484249050N00239772WA0078700787
B1609494249051N00239773WA0078800788
B1609504249052N00239771WA0079000790
B1609514249052N00239768WA0079100791
B1609524249049N00239764WA0079000790
B1609534249044N00239761WA0078900789
B1609544249036N00239759WA0078900789
B1609554249028N00239759WA0078800788
B1609564249018N00239764WA0078800788
B1609574249009N00239768WA0078800788
B1609584249003N00239777WA0078900789
B1609594248999N00239785WA0079000790
B1610004248997N00239793WA0079200792
B1610014248997N00239802WA0079400794
B1610024248997N00239807WA0079600796
B1610034248998N00239814WA0079600796
B1610044248999N00239821WA0079800798
B1610054249000N00239825WA0079900799
B1610064249002N00239829WA0080100801
B1610074249003N00239833WA0080100801
B1610084249005N00239835WA0080200802
B1610094249006N00239837WA0080300803
B1610104249008N00239837WA0080400804
B1610114249009N00239836WA0080300803
B1610124249011N00239833WA0080300803
B1610134249013N00239831WA0080300803
B1610144249014N00239829WA0080300803
B1610154249015N00239828WA0080300803
B1610164249016N00239827WA0080300803
B1610174249016N00239827WA0080200802
B1610184249016N00239827WA0080100801
B1610194249017N00239826WA0080100801
B1610204249018N00239825WA0080100801
B1610214249019N00239824WA0080100801
B1610224249019N00239822WA0080100801
B1610234249020N00239821WA0080000800
B1610244249021N00239817WA0080000800
B1610254249021N00239814WA0079900799
B1610264249022N00239811WA0079900799
B1610274249023N00239809WA0079900800
B1610284249024N00239806WA0079900799
B1610294249025N00239804WA0079900799
B1610304249026N00239802WA0079800798
B1610314249027N00239798WA0079700797
B1610324249028N00239795WA0079700797
B1610334249030N00239792WA0079700797
B1610344249031N00239790WA0079700797
B1610354249032N00239788WA0079700797
B1610364249033N00239786WA0079700797
B1610374249035N00239785WA0079600797
B1610384249036N00239783WA0079600796
B1610394249038N00239780WA0079500795
B1610404249040N00239777WA0079600796
B1610414249041N00239776WA0079800798
B1610424249042N00239773WA0079900799
B1610434249042N00239772WA0079900799
B1610444249043N00239771WA0079700797
B1610454249044N00239770WA0079500795
B1610464249045N00239768WA0079300794
B1610474249047N00239766WA0079200792
B1610484249048N00239764WA0079200792
B1610494249050N00239764WA0079200792
B1610504249051N00239762WA0079100791
B1610514249052N00239761WA0079000790
B1610524249054N00239760WA0078800788
B1610534249056N00239759WA0078800788
B1610544249058N00239758WA0078800788
B1610554249060N00239757WA0078800788
B1610564249061N00239757WA0078900789
B1610574249062N00239757WA0078900789
B1610584249063N00239757WA0078800788
B1610594249064N00239755WA0078700787
B1611004249066N00239754WA0078600786
B1611014249068N00239752WA0078500785
B1611024249069N00239750WA0078300783
B1611034249070N00239748WA0078300783
B1611044249071N00239746WA0078200782
B1611054249072N00239745WA0078100781
B1611064249074N00239742WA0078100781
B1611074249076N00239741WA0078000780
B1611084249078N00239739WA0078000780
B1611094249079N00239738WA0077900779
B1611104249081N00239736WA0077700777
B1611114249083N00239735WA0077600776
B1611124249086N00239734WA0077600776
B1611134249088N00239733WA0077500775
B1611144249090N00239731WA0077500775
B1611154249092N00239729WA0077400774
B1611164249094N00239726WA0077400774
B1611174249095N00239724WA0077300773
B1611184249097N00239722WA0077100771
B1611194249099N00239719WA0077000770
B1611204249101N00239717WA0077000770
B1611214249103N00239715WA0077000770
B1611224249105N00239714WA0076900769
B1611234249106N00239711WA0076900769
B1611244249108N00239710WA0076900769
B1611254249109N00239709WA0076900769
B1611264249111N00239708WA0076800768
B1611274249113N00239707WA0076700767
B1611284249115N00239707WA0076500765
B1611294249117N00239705WA0076300763
B1611304249119N00239705WA0076200762
B1611314249121N00239704WA0076100761
B1611324249123N00239703WA0076000760
B1611334249124N00239702WA0075900759
B1611344249126N00239701WA0075800758
B1611354249128N00239699WA0075700757
B1611364249130N00239698WA0075500755
B1611374249132N00239696WA0075300753
B1611384249134N00239695WA0075200752
B1611394249136N00239693WA0075200752
B1611404249138N00239692WA0075200752
B1611414249140N00239690WA0075200752
B1611424249141N00239689WA0075200752
B1611434249143N00239689WA0075100752
B1611444249144N00239689WA0075000750
B1611454249147N00239688WA0074800748
B1611464249149N00239688WA0074700747
B1611474249150N00239689WA0074500745
B1611484249152N00239689WA0074400744
B1611494249154N00239688WA0074200742
B1611504249155N00239688WA0074000740
B1611514249157N00239686WA0073800738
B1611524249157N00239681WA0073700737
B1611534249154N00239676WA0073500735
B1611544249148N00239669WA0073300733
B1611554249141N00239665WA0073000730
B1611564249132N00239665WA0072800728
B1611574249125N00239669WA0072900729
B1611584249118N00239673WA0073000730
B1611594249111N00239677WA0073000730
B1612004249104N00239681WA0072900730
B1612014249097N00239684WA0072800728
B1612024249089N00239686WA0072700727
B1612034249081N00239688WA0072600727
B1612044249073N00239689WA0072700727
B1612054249066N00239690WA0072700727
B1612064249058N00239691WA0072800728
B1612074249051N00239693WA0072800728
B1612084249044N00239695WA0072700727
B1612094249037N00239700WA0072700727
B1612104249030N00239707WA0072700727
B1612114249025N00239715WA0072600726
B1612124249025N00239726WA0072700727
B1612134249025N00239735WA0072800728
B1612144249025N00239745WA0072900729
B1612154249025N00239752WA0073000730
B1612164249025N00239759WA0073000730
B1612174249024N00239766WA0072900729
B1612184249024N00239772WA0072900729
B1612194249025N00239777WA0072700727
B1612204249026N00239780WA0072500725
B1612214249028N00239781WA0072400724
B1612224249029N00239780WA0072200722
B1612234249030N00239779WA0072200722
B1612244249031N00239777WA0072100721
B1612254249032N00239776WA0072000720
B1612264249033N00239772WA0071900719
B1612274249034N00239769WA0071800718
B1612284249034N00239765WA0071900719
B1612294249034N00239762WA0071900720
B1612304249033N00239759WA0072100721
B1612314249032N00239757WA0072200722
B1612324249031N00239753WA0072300723
B1612334249031N00239750WA0072200722
B1612344249030N00239747WA0072200722
B1612354249029N00239745WA0072300723
B1612364249028N00239740WA0072300723
B1612374249027N00239736WA0072300723
B1612384249025N00239732WA0072200722
B1612394249024N00239729WA0072200722
B1612404249023N00239726WA0072300723
B1612414249022N00239722WA0072300723
B1612424249021N00239717WA0072300723
B1612434249019N00239714WA0072300723
B1612444249018N00239708WA0072400724
B1612454249017N00239704WA0072400724
B1612464249016N00239700WA0072500725
B1612474249015N00239697WA0072600726
B1612484249015N00239695WA0072600726
B1612494249015N00239692WA0072600726
B1612504249016N00239690WA0072700727
B1612514249018N00239691WA0072700727
B1612524249019N00239695WA0072700727
B1612534249021N00239698WA0072700727
B1612544249023N00239702WA0072600726
B1612554249024N00239707WA0072700727
B1612564249024N00239711WA0072700727
B1612574249024N00239715WA0072900729
B1612584249024N00239718WA0072900729
B1612594249025N00239723WA0072900729
B1613004249026N00239726WA0072900729
B1613014249027N00239728WA0072900729
B1613024249028N00239731WA0072900729
B1613034249030N00239735WA0072900729
B1613044249031N00239737WA0072900729
B1613054249032N00239738WA0072800728
B1613064249033N00239737WA0072800728
B1613074249032N00239733WA0072700727
B1613084249030N00239727WA0072700727
B1613094249028N00239722WA0072700727
B1613104249026N00239717WA0072800728
B1613114249024N00239712WA0072900729
B1613124249023N00239709WA0073000730
B1613134249023N00239707WA0073000730
B1613144249022N00239705WA0073100731
B1613154249022N00239704WA0073100731
B1613164249023N00239703WA0073100731
B1613174249025N00239703WA0073000730
B1613184249027N00239702WA0072900729
B1613194249029N00239702WA0073000730
B1613204249031N00239703WA0073100731
B1613214249033N00239705WA0073200732
B1613224249035N00239707WA0073200732
B1613234249037N00239710WA0073200732
B1613244249039N00239714WA0073300733
B1613254249041N00239717WA0073500735
B1613264249043N00239721WA0073600736
B1613274249044N00239726WA0073800738
B1613284249045N00239733WA0074000740
B1613294249045N00239739WA0074200742
B1613304249046N00239745WA0074300743
B1613314249046N00239750WA0074400744
B1613324249047N00239753WA0074500745
B1613334249048N00239755WA0074600746
B1613344249049N00239754WA0074600746
B1613354249050N00239754WA0074700747
B1613364249051N00239753WA0074800748
B1613374249052N00239753WA0074800748
B1613384249053N00239753WA0074900749
B1613394249055N00239752WA0075000750
B1613404249056N00239751WA0075000750
B1613414249057N00239749WA0075000750
B1613424249057N00239747WA0075100751
B1613434249057N00239743WA0075100751
B1613444249056N00239738WA0075200752
B1613454249053N00239733WA0075200752
B1613464249050N00239727WA0075200752
B1613474249045N00239721WA0075300753
B1613484249040N00239715WA0075400754
B1613494249035N00239710WA0075500755
B1613504249032N00239705WA0075600756
B1613514249030N00239700WA0075700757
B1613524249031N00239695WA0075700757
B1613534249032N00239692WA0075700757
B1613544249034N00239689WA0075800758
B1613554249036N00239688WA0076000760
B1613564249039N00239688WA0076300763
B1613574249041N00239688WA0076500765
B1613584249043N00239688WA0076800768
B1613594249044N00239688WA0077000770
B1614004249046N00239688WA0077000770
B1614014249048N00239689WA0077100771
B1614024249050N00239690WA0077300773
B1614034249051N00239696WA0077600776
B1614044249050N00239703WA0077900779
B1614054249048N00239710WA0078200782
B1614064249043N00239717WA0078500785
B1614074249038N00239726WA0078800788
B1614084249031N00239731WA0079100791
B1614094249024N00239736WA0079300793
B1614104249016N00239738WA0079300793
B1614114249006N00239738WA0079400794
B1614124248998N00239735WA0079500795
B1614134248992N00239729WA0079600796
B1614144248988N00239723WA0079600796
B1614154248986N00239717WA0079800798
B1614164248984N00239712WA0079900799
B1614174248984N00239708WA0080000800
B1614184248984N00239704WA0080100801
B1614194248986N00239702WA0080200802
B1614204248988N00239703WA0080300803
B1614214248991N00239707WA0080500805
B1614224248993N00239712WA0080800808
B1614234248993N00239718WA0081000810
B1614244248990N00239727WA0081200812
B1614254248984N00239735WA0081300813
B1614264248976N00239740WA0081400814
B1614274248967N00239743WA0081500815
B1614284248959N00239741WA0081600816
B1614294248951N00239740WA0081800818
B1614304248946N00239735WA0082100821
B1614314248942N00239728WA0082300823
B1614324248939N00239722WA0082300823
B1614334248938N00239715WA0082300823
B1614344248938N00239709WA0082400824
B1614354248939N00239705WA0082600826
B1614364248941N00239703WA0082800828
B1614374248944N00239703WA0083000830
B1614384248948N00239705WA0083300833
B1614394248951N00239709WA0083600836
B1614404248953N00239714WA0083700837
B1614414248954N00239720WA0083800838
B1614424248954N00239728WA0083900839
B1614434248952N00239736WA0084100841
B1614444248949N00239745WA0084300843
B1614454248942N00239750WA0084500845
B1614464248935N00239753WA0084600846
B1614474248926N00239754WA0084800848
B1614484248918N00239754WA0085200852
B1614494248911N00239753WA0085600856
B1614504248906N00239749WA0086000860
B1614514248903N00239745WA0086300862
B1614524248900N00239739WA0086300863
B1614534248898N00239733WA0086300863
B1614544248898N00239727WA0086500865
B1614554248900N00239723WA0086600866
B1614564248903N00239721WA0086700867
B1614574248906N00239723WA0086900869
B1614584248908N00239727WA0086900869
B1614594248909N00239734WA0086900869
B1615004248909N00239743WA0087000870
B1615014248907N00239751WA0087200872
B1615024248904N00239760WA0087400874
B1615034248899N00239767WA0087600876
B1615044248893N00239770WA0087800878
B1615054248885N00239771WA0088100881
B1615064248879N00239770WA0088400884
B1615074248873N00239767WA0088600886
B1615084248870N00239762WA0088700887
B1615094248868N00239757WA0088800888
B1615104248868N00239752WA0088900889
B1615114248870N00239749WA0088900889
B1615124248873N00239749WA0089000890
B1615134248877N00239751WA0089000890
B1615144248880N00239754WA0089200892
B1615154248882N00239760WA0089300893
B1615164248882N00239767WA0089500895
B1615174248881N00239776WA0089600896
B1615184248880N00239786WA0089800898
B1615194248875N00239795WA0089900899
B1615204248868N00239803WA0090000900
B1615214248862N00239809WA0090200902
B1615224248854N00239814WA0090300903
B1615234248846N00239815WA0090500905
B1615244248837N00239815WA0090600906
B1615254248828N00239811WA0090600906
B1615264248821N00239806WA0090700907
B1615274248815N00239800WA0090900909
B1615284248811N00239795WA0091200912
B1615294248807N00239788WA0091700917
B1615304248805N00239783WA0092000920
B1615314248803N00239779WA0092100921
B1615324248802N00239776WA0092200922
B1615334248802N00239772WA0092200922
B1615344248805N00239770WA0092300923
B1615354248809N00239770WA0092300923
B1615364248813N00239776WA0092400924
B1615374248814N00239783WA0092500925
B1615384248812N00239793WA0092600926
B1615394248808N00239803WA0092800928
B1615404248803N00239809WA0093000930
B1615414248797N00239815WA0093200932
B1615424248791N00239817WA0093500935
B1615434248785N00239819WA0093800938
B1615444248780N00239819WA0093800938
B1615454248774N00239814WA0093700937
B1615464248770N00239809WA0093800938
B1615474248767N00239803WA0093800938
B1615484248765N00239798WA0094000940
B1615494248765N00239795WA0094200942
B1615504248767N00239792WA0094400944
B1615514248770N00239793WA0094500945
B1615524248773N00239796WA0094500945
B1615534248776N00239802WA0094600946
B1615544248776N00239810WA0094700947
B1615554248774N00239819WA0094800948
B1615564248770N00239828WA0094900949
B1615574248765N00239835WA0095100951
B1615584248760N00239841WA0095300953
B1615594248754N00239845WA0095500955
B1616004248748N00239846WA0095700957
B1616014248742N00239846WA0095700957
B1616024248736N00239845WA0095800958
B1616034248730N00239843WA0096000960
B1616044248723N00239841WA0096200962
B1616054248717N00239838WA0096400964
B1616064248712N00239833WA0096500965
B1616074248708N00239828WA0096500965
B1616084248704N00239822WA0096700967
B1616094248703N00239818WA0096800968
B1616104248705N00239814WA0097000970
B1616114248708N00239812WA0097000970
B1616124248712N00239814WA0097100971
B1616134248714N00239821WA0097300973
B1616144248715N00239828WA0097400974
B1616154248713N00239836WA0097500974
B1616164248711N00239846WA0097600976
B1616174248704N00239853WA0097800978
B1616184248698N00239858WA0098000980
B1616194248691N00239861WA0098200982
B1616204248684N00239864WA0098400984
B1616214248677N00239864WA0098600986
B1616224248670N00239864WA0098700987
B1616234248664N00239859WA0098700987
B1616244248660N00239852WA0098900989
B1616254248657N00239846WA0098900989
B1616264248657N00239841WA0099000990
B1616274248658N00239839WA0099000990
B1616284248660N00239838WA0099100991
B1616294248663N00239840WA0099300993
B1616304248665N00239845WA0099500995
B1616314248666N00239849WA0099600996
B1616324248665N00239856WA0099700997
B1616334248665N00239864WA0099800998
B1616344248662N00239872WA0099800998
B1616354248657N00239883WA0100001000
B1616364248650N00239888WA0100101001
B1616374248645N00239892WA0100401004
B1616384248639N00239896WA0100701007
B1616394248633N00239899WA0100901009
B1616404248628N00239902WA0101001010
B1616414248621N00239903WA0101101011
B1616424248615N00239902WA0101101011
B1616434248609N00239899WA0101101011
B1616444248604N00239894WA0101101011
B1616454248601N00239890WA0101201012
B1616464248600N00239883WA0101401014
B1616474248600N00239880WA0101601016
B1616484248601N00239878WA0101701017
B1616494248604N00239878WA0101801018
B1616504248606N00239879WA0101901019
B1616514248608N00239883WA0102001020
B1616524248609N00239888WA0102101021
B1616534248610N00239894WA0102201022
B1616544248611N00239902WA0102201021
B1616554248610N00239910WA0102101021
B1616564248608N00239919WA0102201022
B1616574248605N00239928WA0102301023
B1616584248601N00239935WA0102501025
B1616594248595N00239941WA0102501025
B1617004248590N00239946WA0102601026
B1617014248583N00239950WA0102601026
B1617024248576N00239953WA0102701027
B1617034248568N00239954WA0102901029
B1617044248561N00239953WA0103201031
B1617054248555N00239949WA0103301033
B1617064248549N00239945WA0103501035
B1617074248544N00239940WA0103801038
B1617084248542N00239935WA0104001040
B1617094248540N00239932WA0104201042
B1617104248541N00239928WA0104201042
B1617114248543N00239926WA0104301043
B1617124248545N00239926WA0104401044
B1617134248548N00239928WA0104501044
B1617144248550N00239933WA0104401044
B1617154248552N00239940WA0104401044
B1617164248552N00239949WA0104501045
B1617174248550N00239959WA0104601046
B1617184248545N00239967WA0104801048
B1617194248541N00239974WA0105001050
B1617204248534N00239978WA0105201052
B1617214248527N00239982WA0105201052
B1617224248519N00239984WA0105201052
B1617234248510N00239983WA0105301053
B1617244248503N00239982WA0105601056
B1617254248497N00239979WA0105801058
B1617264248495N00239972WA0106001060
B1617274248493N00239966WA0106201062
B1617284248493N00239961WA0106201062
B1617294248494N00239957WA0106301063
B1617304248496N00239956WA0106301063
B1617314248500N00239959WA0106401064
B1617324248503N00239962WA0106501065
B1617334248505N00239968WA0106601066
B1617344248505N00239978WA0106701067
B1617354248504N00239985WA0106801068
B1617364248500N00239994WA0106801068
B1617374248495N00240003WA0107001070
B1617384248488N00240009WA0107201072
B1617394248482N00240016WA0107401074
B1617404248475N00240019WA0107601076
B1617414248469N00240019WA0107701077
B1617424248463N00240017WA0107901079
B1617434248458N00240012WA0108001080
B1617444248455N00240006WA0108101081
B1617454248454N00240000WA0108201082
B1617464248454N00239995WA0108301083
B1617474248456N00239991WA0108401084
B1617484248456N00239991WA0108501085
B1617494248461N00239991WA0108601086
B1617504248464N00239995WA0108601086
B1617514248466N00240002WA0108701087
B1617524248467N00240009WA0108801088
B1617534248466N00240017WA0109001090
B1617544248463N00240026WA0109101091
B1617554248458N00240035WA0109201092
B1617564248452N00240041WA0109301093
B1617574248445N00240047WA0109501095
B1617584248438N00240050WA0109601096
B1617594248431N00240051WA0109801098
B1618004248424N00240051WA0110101101
B1618014248418N00240049WA0110201102
B1618024248414N00240045WA0110301103
B1618034248410N00240040WA0110301103
B1618044248410N00240033WA0110401104
B1618054248410N00240028WA0110501105
B1618064248412N00240025WA0110701107
B1618074248415N00240026WA0110801108
B1618084248418N00240029WA0110901109
B1618094248420N00240035WA0111001110
B1618104248420N00240042WA0111101111
B1618114248420N00240050WA0111301113
B1618124248417N00240059WA0111501115
B1618134248413N00240068WA0111401114
B1618144248407N00240076WA0111401114
B1618154248401N00240083WA0111501115
B1618164248394N00240087WA0111701117
B1618174248387N00240090WA0111801118
B1618184248379N00240090WA0112001120
B1618194248373N00240089WA0112201122
B1618204248366N00240088WA0112301123
B1618214248362N00240083WA0112401124
B1618224248358N00240078WA0112401124
B1618234248357N00240072WA0112501125
B1618244248357N00240068WA0112601126
B1618254248359N00240066WA0112801128
B1618264248363N00240067WA0113101131
B1618284248365N00240070WA0113301133
B1618294248367N00240075WA0113501135
B1618304248368N00240081WA0113601136
B1618314248367N00240089WA0113601136
B1618324248366N00240097WA0113701137
B1618334248362N00240106WA0113701137
B1618344248358N00240114WA0113801138
B1618354248353N00240123WA0113801138
B1618364248346N00240129WA0113901139
B1618374248339N00240135WA0113901139
B1618384248331N00240138WA0113901140
B1618394248323N00240140WA0114001140
B1618404248315N00240141WA0114101141
B1618414248308N00240139WA0114201142
B1618424248304N00240135WA0114401144
B1618434248300N00240132WA0114601146
B1618444248298N00240128WA0114601146
B1618454248296N00240124WA0114601146
B1618464248295N00240120WA0114701147
B1618474248296N00240118WA0114801148
B1618484248297N00240117WA0115001150
B1618494248300N00240116WA0115101152
B1618504248303N00240121WA0115301153
B1618514248305N00240130WA0115501155
B1618524248305N00240138WA0115801158
B1618534248303N00240147WA0115901159
B1618544248299N00240157WA0116001160
B1618554248293N00240166WA0116001160
B1618564248287N00240173WA0116101161
B1618574248280N00240178WA0116201162
B1618584248273N00240181WA0116301163
B1618594248266N00240182WA0116401164
B1619004248260N00240180WA0116401164
B1619014248254N00240178WA0116401164
B1619024248249N00240174WA0116501165
B1619034248245N00240171WA0116601166
B1619044248242N00240167WA0116701167
B1619054248241N00240163WA0116701167
B1619064248241N00240160WA0116801168
B1619074248242N00240157WA0116901169
B1619084248244N00240156WA0117201172
B1619094248247N00240157WA0117501175
B1619104248249N00240159WA0117901179
B1619114248250N00240164WA0118301183
B1619124248252N00240169WA0118501185
B1619134248252N00240176WA0118601186
B1619144248250N00240185WA0118701187
B1619154248246N00240194WA0118901189
B1619164248240N00240204WA0119001190
B1619174248232N00240208WA0119101191
B1619184248225N00240213WA0119301193
B1619194248217N00240213WA0119501195
B1619204248210N00240211WA0119701197
B1619214248204N00240209WA0119901199
B1619224248201N00240205WA0120001200
B1619234248199N00240200WA0120101201
B1619244248198N00240197WA0120201202
B1619254248199N00240196WA0120401204
B1619264248202N00240197WA0120601206
B1619274248205N00240202WA0120801208
B1619284248207N00240209WA0121101211
B1619294248208N00240218WA0121401214
B1619304248206N00240228WA0121701217
B1619314248202N00240237WA0122001220
B1619324248196N00240245WA0122201222
B1619334248190N00240252WA0122401224
B1619344248182N00240257WA0122501225
B1619354248173N00240259WA0122701227
B1619364248165N00240258WA0122801228
B1619374248158N00240255WA0123001230
B1619384248153N00240251WA0123101231
B1619394248150N00240247WA0123101231
B1619404248148N00240242WA0123201232
B1619414248150N00240238WA0123301233
B1619424248153N00240237WA0123301233
B1619434248156N00240238WA0123501235
B1619444248158N00240242WA0123801238
B1619454248160N00240246WA0124201242
B1619464248161N00240252WA0124601246
B1619474248160N00240259WA0124901249
B1619484248160N00240267WA0125001250
B1619494248158N00240276WA0125201252
B1619504248154N00240286WA0125401254
B1619514248148N00240294WA0125701257
B1619524248142N00240301WA0125901259
B1619534248134N00240307WA0126001260
B1619544248126N00240309WA0126301263
B1619554248119N00240308WA0126601266
B1619564248112N00240307WA0126901269
B1619574248108N00240303WA0127001270
B1619584248105N00240299WA0127101271
B1619594248105N00240294WA0127201272
B1620004248107N00240292WA0127301273
B1620014248109N00240290WA0127401274
B1620024248111N00240292WA0127801278
B1620034248114N00240294WA0128201282
B1620044248115N00240300WA0128501285
B1620054248116N00240308WA0128801288
B1620064248116N00240316WA0128901289
B1620074248114N00240325WA0129101291
B1620084248111N00240334WA0129201292
B1620094248106N00240342WA0129301293
B1620104248100N00240349WA0129301293
B1620114248092N00240354WA0129401294
B1620124248084N00240359WA0129601296
B1620134248077N00240361WA0129801298
B1620144248071N00240361WA0130201302
B1620154248066N00240359WA0130501305
B1620164248062N00240356WA0130701307
B1620174248059N00240353WA0130801308
B1620184248055N00240349WA0130901309
B1620194248053N00240345WA0131101311
B1620204248052N00240341WA0131301313
B1620214248053N00240339WA0131401314
B1620224248058N00240339WA0131701317
B1620234248061N00240339WA0131901319
B1620244248064N00240344WA0132201322
B1620254248065N00240350WA0132401325
B1620264248065N00240361WA0132501325
B1620274248064N00240369WA0132601326
B1620284248063N00240377WA0132601326
B1620294248059N00240385WA0132601326
B1620304248054N00240394WA0132501325
B1620314248049N00240400WA0132501325
B1620324248041N00240406WA0132501325
B1620334248034N00240410WA0132501325
B1620344248026N00240413WA0132601326
B1620354248019N00240416WA0132701327
B1620364248012N00240418WA0132901329
B1620374248005N00240416WA0133101331
B1620384247998N00240415WA0133301333
B1620394247992N00240414WA0133601336
B1620404247986N00240413WA0133901339
B1620414247982N00240411WA0134101341
B1620424247978N00240407WA0134201342
B1620434247975N00240404WA0134201342
B1620444247972N00240400WA0134301343
B1620454247972N00240396WA0134401344
B1620464247974N00240392WA0134601346
B1620474247976N00240391WA0134801348
B1620484247980N00240393WA0135101351
B1620494247982N00240400WA0135301353
B1620504247981N00240408WA0135501355
B1620514247979N00240418WA0135601356
B1620524247975N00240428WA0135801358
B1620534247970N00240437WA0135901359
B1620544247964N00240444WA0136001360
B1620554247957N00240447WA0136101361
B1620564247949N00240450WA0136201362
B1620574247944N00240451WA0136401364
B1620584247939N00240448WA0136501365
B1620594247935N00240446WA0136601366
B1621004247931N00240442WA0136701367
B1621014247928N00240439WA0136901369
B1621494232812N00246316WA0045900458
LXCG     TRX0,65280,2,0
B1621504232812N00246316WA0045900459
B1621514232812N00246316WA0045900459
B1621524232812N00246316WA0045900459
B1621534232812N00246316WA0045900459
B1621544232812N00246316WA0045900459
B1621554232812N00246316WA0045900459
B1621564232812N00246316WA0045900459
B1621574232812N00246316WA0045900459
B1621584232812N00246316WA0046000459
B1621594232812N00246316WA0045900459
B1622004232812N00246316WA0045900459
B1622014232812N00246316WA0045900459
B1622024232812N00246316WA0045900459
B1622034232811N00246316WA0045900459
B1622044232810N00246316WA0045900459
B1622054232809N00246316WA0045900459
B1622064232808N00246316WA0045900459
B1622074232807N00246316WA0045900459
B1622084232805N00246317WA0045800458
B1622094232805N00246317WA0045800458
B1622104232803N00246317WA0045800458
B1622114232802N00246317WA0045800458
B1622124232800N00246318WA0045800458
B1622134232799N00246320WA0045800458
B1622144232797N00246320WA0045800458
B1622154232796N00246320WA0045800458
B1622164232794N00246321WA0045800458
B1622174232793N00246322WA0045700457
B1622184232792N00246322WA0045800458
B1622194232791N00246323WA0045700457
B1622204232790N00246324WA0045800458
B1622214232787N00246327WA0045800458
B1622224232785N00246329WA0045800458
B1622234232782N00246331WA0045900459
B1622244232780N00246333WA0046100461
B1622254232777N00246335WA0046100461
B1622264232774N00246337WA0046200462
B1622274232771N00246339WA0046300463
B1622284232766N00246340WA0046400464
B1622294232763N00246344WA0046400464
B1622304232759N00246349WA0046500465
B1622314232756N00246353WA0046800468
B1622324232752N00246358WA0047100471
B1622334232749N00246361WA0047300473
B1622344232747N00246363WA0047500475
B1622354232744N00246367WA0047500475
B1622364232742N00246373WA0047600476
B1622374232743N00246377WA0047900479
B1622384232744N00246381WA0048200482
B1622394232746N00246386WA0048500485
B1622404232748N00246390WA0048800488
B1622414232752N00246393WA0049100490
B1622424232758N00246396WA0049200492
B1622434232763N00246399WA0049300493
B1622444232770N00246401WA0049400494
B1622454232776N00246403WA0049600496
B1622464232783N00246405WA0049700497
B1622474232791N00246404WA0049900499
B1622484232798N00246402WA0050200502
B1622494232803N00246401WA0050500505
B1622504232809N00246400WA0050700507
B1622514232815N00246399WA0050800508
B1622524232821N00246397WA0050900509
B1622534232829N00246394WA0050800508
B1622544232836N00246390WA0050900509
B1622554232842N00246385WA0051200512
B1622564232847N00246381WA0051500515
B1622574232849N00246377WA0051700517
B1622584232851N00246372WA0051800518
B1622594232855N00246365WA0051700517
B1623004232858N00246358WA0051700517
B1623014232862N00246350WA0051700517
B1623024232866N00246343WA0051900519
B1623034232872N00246337WA0051900519
B1623044232878N00246331WA0052100521
B1623054232884N00246329WA0052400524
B1623064232890N00246327WA0052700527
B1623074232897N00246325WA0053000530
B1623084232902N00246327WA0053100531
B1623094232908N00246331WA0053200532
B1623104232914N00246334WA0053300533
B1623114232921N00246335WA0053500535
B1623124232929N00246335WA0053700537
B1623134232935N00246332WA0053900539
B1623144232943N00246327WA0054100540
B1623154232948N00246320WA0054200542
B1623164232953N00246313WA0054300543
B1623174232958N00246306WA0054400544
B1623184232963N00246298WA0054500545
B1623194232969N00246291WA0054700547
B1623204232974N00246284WA0054800548
B1623214232980N00246277WA0054900549
B1623224232986N00246271WA0055000550
B1623234232991N00246264WA0055200552
B1623244232997N00246258WA0055300553
B1623254233003N00246251WA0055300553
B1623264233009N00246244WA0055400554
B1623274233015N00246236WA0055300553
B1623284233021N00246229WA0055400554
B1623294233028N00246221WA0055700557
B1623304233035N00246214WA0056000560
B1623314233042N00246208WA0056300563
B1623324233048N00246201WA0056400564
B1623334233055N00246195WA0056500565
B1623344233062N00246189WA0056500565
B1623354233068N00246182WA0056800568
B1623364233075N00246175WA0057100571
B1623374233081N00246168WA0057500575
B1623384233087N00246163WA0057700577
B1623394233094N00246155WA0057800578
B1623404233100N00246148WA0057900579
B1623414233108N00246144WA0058000579
B1623424233115N00246138WA0058000580
B1623434233124N00246134WA0058100581
B1623444233132N00246132WA0058200582
B1623454233140N00246128WA0058200582
B1623464233148N00246125WA0058300583
B1623474233156N00246122WA0058200582
B1623484233164N00246119WA0058100580
B1623494233173N00246116WA0058000580
B1623504233181N00246114WA0058100581
B1623514233188N00246111WA0058300583
B1623524233196N00246109WA0058400584
B1623534233203N00246106WA0058400584
B1623544233210N00246104WA0058500585
B1623554233218N00246101WA0058700587
B1623564233226N00246099WA0058800588
B1623574233235N00246096WA0058900589
B1623584233243N00246094WA0059000590
B1623594233252N00246090WA0059200592
B1624004233260N00246088WA0059200592
B1624014233269N00246085WA0059200592
B1624024233277N00246082WA0059200592
B1624034233286N00246079WA0059300592
B1624044233295N00246075WA0059400594
B1624054233303N00246072WA0059600596
B1624064233312N00246069WA0059700597
B1624074233320N00246065WA0059800598
B1624084233328N00246061WA0060000599
B1624094233337N00246058WA0060100601
B1624104233345N00246053WA0060300603
B1624114233353N00246050WA0060400604
B1624124233360N00246047WA0060400604
B1624134233368N00246044WA0060400604
B1624144233376N00246038WA0060500605
B1624154233382N00246032WA0060500605
B1624164233388N00246025WA0060500605
B1624174233393N00246018WA0060500605
B1624184233399N00246012WA0060600605
B1624194233405N00246006WA0060600606
B1624204233411N00246000WA0060700606
B1624214233417N00245993WA0060600606
B1624224233424N00245987WA0060500604
B1624234233430N00245981WA0060300603
B1624244233436N00245975WA0060200602
B1624254233442N00245970WA0060200601
B1624264233448N00245964WA0060000600
B1624274233453N00245959WA0059900599
B1624284233458N00245953WA0059700597
B1624294233464N00245947WA0059700597
B1624304233468N00245940WA0059600596
B1624314233472N00245932WA0059700597
B1624324233478N00245928WA0059800598
B1624334233483N00245923WA0060000600
B1624344233489N00245919WA0060000600
B1624354233495N00245915WA0059900599
B1624364233501N00245911WA0060000599
B1624374233507N00245907WA0059900599
B1624384233514N00245903WA0059900598
B1624394233521N00245899WA0059900599
B1624404233528N00245896WA0059900598
B1624414233535N00245894WA0059800598
B1624424233543N00245894WA0059800598
B1624434233551N00245894WA0059800598
B1624444233558N00245895WA0059900599
B1624454233565N00245895WA0060100601
B1624464233572N00245895WA0060100601
B1624474233579N00245895WA0060100601
B1624484233585N00245896WA0060000600
B1624494233594N00245897WA0060100601
B1624504233604N00245899WA0060300603
B1624514233613N00245899WA0060500605
B1624524233622N00245900WA0060700607
B1624534233631N00245902WA0060800608
B1624544233641N00245903WA0060800608
B1624554233649N00245903WA0061000610
B1624564233658N00245902WA0061300613
B1624574233666N00245900WA0061600616
B1624584233674N00245900WA0061900619
B1624594233683N00245900WA0062100621
B1625004233692N00245899WA0062200622
B1625014233701N00245899WA0062200622
B1625024233711N00245896WA0062400624
B1625034233721N00245895WA0062600626
B1625044233730N00245894WA0062900629
B1625054233739N00245893WA0063100631
B1625064233748N00245892WA0063300633
B1625074233757N00245890WA0063400634
B1625084233766N00245889WA0063500635
B1625094233775N00245888WA0063700637
B1625104233784N00245886WA0063800638
B1625114233793N00245884WA0064000640
B1625124233803N00245882WA0064200642
B1625134233812N00245880WA0064400644
B1625144233822N00245875WA0064500645
B1625154233832N00245870WA0064700647
B1625164233841N00245865WA0065000650
B1625174233850N00245861WA0065300653
B1625184233859N00245855WA0065600656
B1625194233867N00245850WA0065900659
B1625204233876N00245845WA0066000660
B1625214233884N00245840WA0066100661
B1625224233894N00245834WA0066100661
B1625234233904N00245828WA0066200662
B1625244233914N00245823WA0066400664
B1625254233923N00245817WA0066700667
B1625264233932N00245811WA0067000670
B1625274233941N00245806WA0067300673
B1625284233950N00245800WA0067500675
B1625294233960N00245796WA0067700677
B1625304233969N00245792WA0067800678
B1625314233979N00245786WA0068100681
B1625324233989N00245781WA0068500685
B1625334233998N00245776WA0068900689
B1625344234008N00245770WA0069300693
B1625354234016N00245764WA0069700697
B1625364234025N00245757WA0069500695
B1625374234034N00245750WA0067800678
B1625384234043N00245743WA0070100701
B1625394234052N00245736WA0070500705
B1625404234060N00245730WA0070900709
B1625414234069N00245724WA0071200712
B1625424234078N00245719WA0071400714
B1625434234086N00245713WA0071500715
B1625444234096N00245707WA0071500715
B1625454234106N00245701WA0071700717
B1625464234116N00245697WA0072000720
B1625474234127N00245691WA0072400724
B1625484234136N00245685WA0072700727
B1625494234145N00245680WA0072900729
B1625504234153N00245675WA0072900729
B1625514234163N00245669WA0073000730
B1625524234173N00245664WA0073300733
B1625534234182N00245659WA0073600736
B1625544234192N00245654WA0073900739
B1625554234202N00245649WA0074100741
B1625564234211N00245643WA0074200742
B1625574234221N00245637WA0074400744
B1625584234230N00245631WA0074700747
B1625594234240N00245625WA0075000750
B1626004234249N00245619WA0075300753
B1626014234258N00245614WA0075500755
B1626024234267N00245609WA0075600756
B1626034234276N00245603WA0075700757
B1626044234285N00245598WA0075900759
B1626054234295N00245592WA0076100761
B1626064234305N00245586WA0076400764
B1626074234314N00245581WA0076700767
B1626084234323N00245576WA0076900769
B1626094234332N00245570WA0077100771
B1626104234341N00245566WA0077200772
B1626114234350N00245560WA0077500775
B1626124234359N00245554WA0077800778
B1626134234368N00245548WA0078100781
B1626144234377N00245543WA0078400784
B1626154234385N00245538WA0078600786
B1626164234394N00245532WA0078700787
B1626174234402N00245528WA0078900789
B1626184234410N00245521WA0079100791
B1626194234419N00245515WA0079400794
B1626204234428N00245509WA0079800798
B1626214234437N00245504WA0080100801
B1626224234445N00245499WA0080400804
B1626234234452N00245495WA0080600806
B1626244234460N00245490WA0080700807
B1626254234469N00245483WA0080900809
B1626264234477N00245477WA0081100811
B1626274234486N00245471WA0081300813
B1626284234494N00245466WA0081600816
B1626294234502N00245461WA0081900819
B1626304234510N00245456WA0082100821
B1626314234518N00245450WA0082300823
B1626324234528N00245445WA0082500825
B1626334234537N00245440WA0082800828
B1626344234545N00245434WA0083100831
B1626354234553N00245429WA0083500835
B1626364234560N00245423WA0083800838
B1626374234568N00245418WA0084000840
B1626384234576N00245411WA0084200842
B1626394234585N00245405WA0084400844
B1626404234594N00245398WA0084500845
B1626414234603N00245392WA0084800848
B1626424234611N00245385WA0085100851
B1626434234620N00245379WA0085300853
B1626444234629N00245372WA0085500855
B1626454234637N00245365WA0085700857
B1626464234645N00245358WA0085900859
B1626474234654N00245352WA0086000860
B1626484234662N00245345WA0086100861
B1626494234669N00245338WA0086300863
B1626504234678N00245329WA0086500865
B1626514234686N00245322WA0086800868
B1626524234694N00245316WA0087100871
B1626534234702N00245309WA0087300873
B1626544234710N00245303WA0087400874
B1626554234718N00245296WA0087500875
B1626564234726N00245289WA0087500875
B1626574234735N00245283WA0087800878
B1626584234744N00245276WA0088100881
B1626594234752N00245270WA0088500885
B1627004234760N00245265WA0088700887
B1627014234768N00245260WA0088900889
B1627024234776N00245255WA0089000890
B1627034234783N00245250WA0089100891
B1627044234792N00245245WA0089200892
B1627054234800N00245239WA0089300893
B1627064234807N00245234WA0089400894
B1627074234813N00245228WA0089500895
B1627084234820N00245222WA0089500895
B1627094234828N00245215WA0089500895
B1627104234836N00245208WA0089500895
B1627114234845N00245201WA0089500895
B1627124234853N00245195WA0089600896
B1627134234860N00245188WA0089700897
B1627144234869N00245181WA0089800899
B1627154234877N00245175WA0089900899
B1627164234885N00245169WA0090000900
B1627174234893N00245162WA0090200902
B1627184234901N00245157WA0090400904
B1627194234909N00245150WA0090600906
B1627204234916N00245142WA0090700907
B1627214234924N00245135WA0090700907
B1627224234932N00245128WA0090900909
B1627234234940N00245121WA0091100911
B1627244234947N00245114WA0091400914
B1627254234954N00245108WA0091600916
B1627264234961N00245102WA0091700917
B1627274234968N00245096WA0091600916
B1627284234976N00245090WA0091600916
B1627294234984N00245084WA0091600916
B1627304234993N00245078WA0091800918
B1627314235001N00245072WA0092000920
B1627324235009N00245066WA0092300923
B1627334235017N00245060WA0092500925
B1627344235025N00245054WA0092600926
B1627354235033N00245047WA0092700927
B1627364235041N00245041WA0092800928
B1627374235049N00245035WA0092900929
B1627384235056N00245028WA0093100930
B1627394235065N00245022WA0093200932
B1627404235073N00245015WA0093300933
B1627414235081N00245009WA0093500934
B1627424235089N00245002WA0093500935
B1627434235098N00244995WA0093600936
B1627444235106N00244989WA0093700937
B1627454235115N00244982WA0093900939
B1627464235123N00244975WA0094100941
B1627474235132N00244969WA0094300943
B1627484235141N00244963WA0094400944
B1627494235150N00244956WA0094500945
B1627504235159N00244949WA0094500945
B1627514235168N00244943WA0094700947
B1627524235176N00244936WA0094800948
B1627534235184N00244930WA0095000950
B1627544235192N00244924WA0095100951
B1627554235200N00244917WA0095100951
B1627564235208N00244911WA0095200952
B1627574235216N00244905WA0095200952
B1627584235225N00244896WA0095200952
B1627594235234N00244889WA0095200952
B1628004235242N00244882WA0095300953
B1628014235251N00244874WA0095400954
B1628024235259N00244867WA0095500955
B1628034235268N00244860WA0095500955
B1628044235276N00244853WA0095500955
B1628054235286N00244845WA0095500955
B1628064235295N00244837WA0095400954
B1628074235305N00244829WA0095600956
B1628084235314N00244821WA0095800958
B1628094235323N00244815WA0095900959
B1628104235332N00244810WA0096000960
B1628114235340N00244802WA0096000960
B1628124235349N00244795WA0096000960
B1628134235359N00244788WA0096200962
B1628144235367N00244782WA0096400964
B1628154235376N00244777WA0096700967
B1628164235384N00244770WA0096800968
B1628174235393N00244764WA0096800968
B1628184235402N00244758WA0096900969
B1628194235411N00244751WA0097000970
B1628204235421N00244745WA0097200972
B1628214235430N00244738WA0097400974
B1628224235440N00244732WA0097500975
B1628234235449N00244726WA0097700977
B1628244235458N00244722WA0097800978
B1628254235468N00244715WA0097900979
B1628264235477N00244710WA0098000980
B1628274235487N00244703WA0098200982
B1628284235496N00244698WA0098400984
B1628294235505N00244693WA0098500985
B1628304235515N00244687WA0098700987
B1628314235524N00244682WA0098700987
B1628324235533N00244676WA0098700987
B1628334235543N00244672WA0098800988
B1628344235552N00244665WA0099000990
B1628354235561N00244658WA0099200992
B1628364235570N00244651WA0099400994
B1628374235579N00244645WA0099500995
B1628384235589N00244638WA0099700997
B1628394235599N00244631WA0099800998
B1628404235609N00244624WA0100001000
B1628414235618N00244619WA0100201002
B1628424235627N00244612WA0100301003
B1628434235637N00244606WA0100401004
B1628444235647N00244599WA0100501005
B1628454235657N00244593WA0100601006
B1628464235668N00244587WA0100801008
B1628474235677N00244581WA0100901009
B1628484235687N00244577WA0101001010
B1628494235697N00244570WA0101001010
B1628504235707N00244565WA0101101011
B1628514235716N00244560WA0101301013
B1628524235726N00244555WA0101501015
B1628534235736N00244550WA0101701017
B1628544235745N00244546WA0101901019
B1628554235755N00244540WA0102001020
B1628564235765N00244535WA0102101021
B1628574235774N00244530WA0102301023
B1628584235784N00244525WA0102501025
B1628594235794N00244521WA0102701027
B1629004235804N00244516WA0102901029
B1629014235814N00244511WA0103101031
B1629024235824N00244508WA0103301033
B1629034235833N00244502WA0103501035
B1629044235843N00244498WA0103601036
B1629054235853N00244494WA0103701037
B1629064235863N00244490WA0103901039
B1629074235873N00244486WA0104101041
B1629084235883N00244482WA0104301043
B1629094235892N00244478WA0104501045
B1629104235902N00244474WA0104701047
B1629114235911N00244470WA0104901049
B1629124235921N00244466WA0105001050
B1629134235931N00244461WA0105101051
B1629144235942N00244456WA0105201052
B1629154235952N00244451WA0105401054
B1629164235962N00244445WA0105601056
B1629174235971N00244440WA0105801058
B1629184235980N00244433WA0106101061
B1629194235989N00244427WA0106201062
B1629204235998N00244421WA0106401064
B1629214236007N00244414WA0106601066
B1629224236016N00244408WA0106801068
B1629234236024N00244402WA0107101071
B1629244236033N00244396WA0107301073
B1629254236042N00244390WA0107501075
B1629264236051N00244384WA0107801078
B1629274236059N00244379WA0108001080
B1629284236068N00244373WA0108201082
B1629294236077N00244366WA0108401084
B1629304236085N00244360WA0108601086
B1629314236094N00244353WA0108901089
B1629324236103N00244347WA0109101091
B1629334236111N00244341WA0109301093
B1629344236120N00244335WA0109501095
B1629354236128N00244329WA0109701097
B1629364236136N00244323WA0109801098
B1629374236143N00244317WA0109901099
B1629384236151N00244311WA0110101101
B1629394236159N00244304WA0110201102
B1629404236167N00244297WA0110401104
B1629414236175N00244290WA0110601107
B1629424236183N00244284WA0110901109
B1629434236191N00244278WA0111101111
B1629444236198N00244272WA0111301114
B1629454236206N00244265WA0111501115
B1629464236213N00244258WA0111601116
B1629474236221N00244251WA0111901119
B1629484236229N00244245WA0112201123
B1629494236236N00244238WA0112601126
B1629504236244N00244232WA0112901129
B1629514236251N00244225WA0113101131
B1629524236259N00244218WA0113201132
B1629534236266N00244211WA0113301134
B1629544236274N00244203WA0113601136
B1629554236281N00244197WA0113901139
B1629564236289N00244190WA0114201142
B1629574236296N00244183WA0114401144
B1629584236303N00244176WA0114601146
B1629594236310N00244170WA0114801148
B1630004236319N00244164WA0115001150
B1630014236327N00244157WA0115301153
B1630024236335N00244150WA0115501155
B1630034236343N00244144WA0115901159
B1630044236350N00244137WA0116301163
B1630054236358N00244131WA0116701167
B1630064236365N00244125WA0117101171
B1630074236372N00244120WA0117401174
B1630084236380N00244116WA0117601176
B1630094236387N00244109WA0117801178
B1630104236394N00244101WA0118301183
B1630114236402N00244094WA0118801188
B1630124236409N00244087WA0119301193
B1630134236417N00244080WA0119601196
B1630144236424N00244074WA0119801198
B1630154236431N00244068WA0119801198
B1630164236440N00244062WA0120201202
B1630174236448N00244055WA0120701207
B1630184236456N00244049WA0121201212
B1630194236464N00244043WA0121501216
B1630204236471N00244037WA0121801218
B1630214236479N00244031WA0121901219
B1630224236487N00244024WA0122101221
B1630234236494N00244018WA0122501225
B1630244236502N00244011WA0123001230
B1630254236510N00244004WA0123401235
B1630264236518N00243999WA0123801238
B1630274236526N00243992WA0124101241
B1630284236534N00243985WA0124401244
B1630294236542N00243977WA0124701247
B1630304236550N00243971WA0125001250
B1630314236558N00243963WA0125401254
B1630324236566N00243955WA0125701257
B1630334236574N00243948WA0126001260
B1630344236582N00243940WA0126301263
B1630354236590N00243933WA0126701267
B1630364236598N00243925WA0127201272
B1630374236606N00243917WA0127601276
B1630384236613N00243911WA0128001280
B1630394236620N00243902WA0128201282
B1630404236627N00243895WA0128401284
B1630414236635N00243886WA0128801288
B1630424236642N00243878WA0129301293
B1630434236650N00243869WA0129801298
B1630444236656N00243861WA0130101301
B1630454236663N00243852WA0130301303
B1630464236670N00243843WA0130501305
B1630474236676N00243835WA0130501305
B1630484236683N00243824WA0130501305
B1630494236691N00243813WA0130701307
B1630504236699N00243804WA0131101312
B1630514236707N00243795WA0131501315
B1630524236715N00243788WA0131701317
B1630534236723N00243781WA0132001320
B1630544236731N00243773WA0132101321
B1630554236741N00243766WA0132101321
B1630564236750N00243757WA0132201322
B1630574236759N00243749WA0132301323
B1630584236768N00243741WA0132401324
B1630594236777N00243734WA0132401324
B1631004236786N00243726WA0132201322
B1631014236796N00243717WA0132001320
B1631024236809N00243712WA0131801319
B1631034236819N00243711WA0132001320
B1631044236826N00243713WA0132201322
B1631054236834N00243716WA0132501325
B1631064236838N00243724WA0132701327
B1631074236840N00243730WA0132901329
B1631084236840N00243730WA0133101331
B1631094236840N00243730WA0133301333
B1631104236839N00243728WA0133401334
B1631114236838N00243723WA0133401334
B1631124236839N00243716WA0133401334
B1631134236840N00243707WA0133401334
B1631144236842N00243697WA0133401334
B1631154236845N00243688WA0133301333
B1631164236850N00243678WA0133101331
B1631174236855N00243667WA0132901329
B1631184236861N00243657WA0132801328
B1631194236868N00243648WA0132701327
B1631204236875N00243640WA0132701327
B1631214236882N00243630WA0132701327
B1631224236889N00243621WA0132601326
B1631234236896N00243611WA0132601326
B1631244236904N00243602WA0132401324
B1631254236912N00243594WA0132501325
B1631264236920N00243585WA0132401324
B1631274236928N00243577WA0132501325
B1631284236937N00243571WA0132501325
B1631294236946N00243564WA0132501325
B1631304236956N00243561WA0132501325
B1631314236965N00243558WA0132601326
B1631324236974N00243560WA0132801328
B1631334236983N00243564WA0133001330
B1631344236990N00243569WA0133201332
B1631354236995N00243575WA0133401334
B1631364236999N00243581WA0133501335
B1631374237002N00243586WA0133701337
B1631384237004N00243590WA0133801338
B1631394237004N00243590WA0133901339
B1631404237004N00243588WA0133801338
B1631414237003N00243585WA0133801338
B1631424237002N00243583WA0133801338
B1631434237000N00243579WA0133801338
B1631444236999N00243576WA0133801338
B1631454236997N00243573WA0133701337
B1631464236994N00243569WA0133501335
B1631474236991N00243566WA0133201332
B1631484236989N00243562WA0133101331
B1631494236988N00243555WA0132901329
B1631504236988N00243546WA0132901329
B1631514236991N00243537WA0132801328
B1631524236995N00243527WA0132801328
B1631534237002N00243517WA0132801328
B1631544237009N00243508WA0132701327
B1631554237018N00243503WA0132701327
B1631564237026N00243502WA0132601326
B1631574237034N00243503WA0132601326
B1631584237041N00243505WA0132501325
B1631594237046N00243510WA0132301323
B1632004237050N00243516WA0132201322
B1632014237052N00243522WA0132001320
B1632024237053N00243526WA0131901319
B1632034237052N00243528WA0131701317
B1632044237052N00243528WA0131501315
B1632054237052N00243528WA0131301313
B1632064237051N00243524WA0131101311
B1632074237051N00243517WA0130901309
B1632084237051N00243508WA0130701307
B1632094237054N00243498WA0130501305
B1632104237059N00243486WA0130401304
B1632114237065N00243476WA0130401304
B1632124237074N00243468WA0130401304
B1632134237082N00243465WA0130401304
B1632144237091N00243465WA0130401304
B1632154237099N00243467WA0130301303
B1632164237105N00243472WA0130101301
B1632174237108N00243481WA0129901299
B1632184237111N00243488WA0129801298
B1632194237112N00243495WA0129801298
B1632204237111N00243496WA0129701297
B1632214237109N00243493WA0129401294
B1632224237107N00243488WA0129101291
B1632234237105N00243483WA0128901289
B1632244237103N00243477WA0128801288
B1632254237102N00243471WA0128801288
B1632264237100N00243466WA0128601286
B1632274237098N00243460WA0128301283
B1632284237096N00243454WA0127901279
B1632294237094N00243449WA0127701277
B1632304237092N00243443WA0127501275
B1632314237090N00243438WA0127401274
B1632324237089N00243431WA0127401274
B1632334237087N00243424WA0127301273
B1632344237086N00243418WA0127301273
B1632354237085N00243412WA0127201272
B1632364237084N00243405WA0127201272
B1632374237083N00243398WA0127201272
B1632384237082N00243391WA0127201272
B1632394237081N00243385WA0127201272
B1632404237081N00243378WA0127201272
B1632414237080N00243372WA0127301273
B1632424237080N00243365WA0127301273
B1632434237080N00243359WA0127201272
B1632444237080N00243352WA0127301273
B1632454237080N00243344WA0127201272
B1632464237080N00243338WA0127101271
B1632474237080N00243329WA0127101271
B1632484237080N00243320WA0127101271
B1632494237083N00243310WA0127101271
B1632504237088N00243300WA0127101271
B1632514237093N00243289WA0127101271
B1632524237101N00243279WA0127101271
B1632534237108N00243271WA0127101271
B1632544237117N00243263WA0127101271
B1632554237126N00243258WA0127201272
B1632564237135N00243255WA0127101271
B1632574237144N00243254WA0127101271
B1632584237152N00243255WA0127001271
B1632594237161N00243256WA0127001270
B1633004237168N00243259WA0127001270
B1633014237176N00243263WA0127001270
B1633024237184N00243267WA0127001270
B1633034237188N00243271WA0127801278
B1633044237191N00243275WA0129301293
B1633054237193N00243279WA0122201223
B1633064237194N00243283WA0108901089
B1633074237195N00243288WA0126901269
B1633084237195N00243291WA0126801268
B1633094237194N00243295WA0126801268
B1633104237194N00243297WA0126801268
B1633114237194N00243300WA0126801269
B1633124237193N00243300WA0126801268
B1633134237191N00243302WA0126601266
B1633144237187N00243303WA0126401264
B1633154237185N00243304WA0126301263
B1633164237183N00243305WA0126301263
B1633174237182N00243305WA0126201262
B1633184237181N00243304WA0126301263
B1633194237180N00243302WA0126301263
B1633204237179N00243298WA0126301263
B1633214237180N00243292WA0126301263
B1633224237181N00243283WA0126301263
B1633234237185N00243272WA0126201262
B1633244237191N00243262WA0126201262
B1633254237199N00243253WA0126201262
B1633264237207N00243244WA0126201262
B1633274237215N00243239WA0126201262
B1633284237224N00243238WA0126101261
B1633294237232N00243239WA0126001260
B1633304237239N00243243WA0126001260
B1633314237244N00243245WA0126201262
B1633324237248N00243250WA0125801258
B1633334237251N00243253WA0124801248
B1633344237253N00243258WA0125801258
B1633354237255N00243262WA0125701257
B1633364237258N00243267WA0125601256
B1633374237260N00243271WA0125401254
B1633384237262N00243276WA0125301253
B1633394237264N00243281WA0125201252
B1633404237266N00243286WA0125201252
B1633414237268N00243290WA0125101251
B1633424237271N00243295WA0125001250
B1633434237274N00243301WA0124901249
B1633444237276N00243307WA0124801248
B1633454237278N00243313WA0124601246
B1633464237278N00243317WA0124501245
B1633474237276N00243319WA0124501245
B1633484237275N00243319WA0124401244
B1633494237274N00243314WA0124301243
B1633504237272N00243309WA0124301243
B1633514237269N00243298WA0124401244
B1633524237275N00243288WA0124301243
B1633534237282N00243277WA0124201242
B1633544237291N00243269WA0124001240
B1633554237300N00243269WA0123901239
B1633564237308N00243267WA0123901239
B1633574237315N00243269WA0123801238
B1633584237321N00243272WA0123601236
B1633594237326N00243276WA0123301233
B1634004237331N00243281WA0123101231
B1634014237337N00243285WA0122901229
B1634024237342N00243290WA0122801228
B1634034237348N00243295WA0122701227
B1634044237354N00243300WA0122601226
B1634054237359N00243303WA0122601226
B1634064237365N00243308WA0122501225
B1634074237371N00243312WA0122401224
B1634084237376N00243317WA0122201223
B1634094237381N00243322WA0122201222
B1634104237386N00243328WA0122101221
B1634114237391N00243333WA0122101221
B1634124237394N00243338WA0122101221
B1634134237398N00243342WA0122101221
B1634144237401N00243347WA0122001220
B1634154237404N00243352WA0122001220
B1634164237407N00243357WA0122101221
B1634174237408N00243362WA0122101221
B1634184237408N00243366WA0122201222
B1634194237407N00243369WA0122301223
B1634204237407N00243369WA0122301223
B1634214237406N00243369WA0122301223
B1634224237405N00243364WA0122301223
B1634234237405N00243358WA0122301223
B1634244237406N00243350WA0122401224
B1634254237408N00243341WA0122401224
B1634264237412N00243331WA0122501225
B1634274237417N00243321WA0122501225
B1634284237424N00243314WA0122501225
B1634294237432N00243308WA0122501225
B1634304237440N00243305WA0122401224
B1634314237449N00243303WA0122401224
B1634324237457N00243302WA0122301223
B1634334237466N00243300WA0122201222
B1634344237474N00243300WA0122201222
B1634354237483N00243297WA0122101221
B1634364237492N00243296WA0121901219
B1634374237500N00243296WA0121801218
B1634384237509N00243300WA0121701217
B1634394237516N00243303WA0121801218
B1634404237523N00243307WA0122001220
B1634414237527N00243313WA0122101221
B1634424237530N00243317WA0122201222
B1634434237529N00243321WA0122201222
B1634444237529N00243321WA0122201222
B1634454237529N00243320WA0122101221
B1634464237528N00243317WA0122101221
B1634474237527N00243311WA0122201222
B1634484237527N00243305WA0122101221
B1634494237528N00243297WA0122101221
B1634504237530N00243288WA0122101221
B1634514237534N00243277WA0122001220
B1634524237540N00243267WA0121901219
B1634534237547N00243260WA0121801218
B1634544237555N00243255WA0121601216
B1634554237562N00243250WA0121401214
B1634564237570N00243250WA0121301213
B1634574237578N00243250WA0121201212
B1634584237586N00243250WA0121201212
B1634594237593N00243253WA0121201212
B1635004237599N00243256WA0121201212
B1635014237602N00243262WA0121201212
B1635024237602N00243266WA0121101211
B1635034237601N00243270WA0121101211
B1635044237601N00243270WA0121001210
B1635054237599N00243269WA0121001210
B1635064237598N00243266WA0120901209
B1635074237597N00243262WA0120901209
B1635084237598N00243255WA0120801208
B1635094237601N00243246WA0120601206
B1635104237605N00243234WA0120501205
B1635114237610N00243223WA0120401204
B1635124237617N00243212WA0120301203
B1635134237625N00243207WA0120201201
B1635144237633N00243203WA0119901199
B1635154237640N00243204WA0119801198
B1635164237648N00243207WA0119701197
B1635174237653N00243210WA0119701197
B1635184237658N00243215WA0119701197
B1635194237661N00243221WA0119601196
B1635204237659N00243225WA0119501195
B1635214237658N00243229WA0119401194
B1635224237656N00243228WA0119301193
B1635234237656N00243227WA0119301193
B1635244237655N00243224WA0119401194
B1635254237655N00243219WA0119501195
B1635264237655N00243214WA0119301193
B1635274237656N00243207WA0119101191
B1635284237658N00243198WA0118801188
B1635294237659N00243189WA0118601185
B1635304237663N00243178WA0118401184
B1635314237667N00243166WA0118401184
B1635324237675N00243158WA0118301183
B1635334237683N00243152WA0118301183
B1635344237691N00243147WA0118201182
B1635354237699N00243149WA0118001180
B1635364237706N00243151WA0117701177
B1635374237712N00243158WA0117401173
B1635384237713N00243166WA0117101171
B1635394237713N00243172WA0116901169
B1635404237710N00243172WA0116701167
B1635414237707N00243171WA0116701167
B1635424237706N00243168WA0116701167
B1635434237705N00243165WA0116801168
B1635444237704N00243162WA0116501165
B1635454237703N00243156WA0116101161
B1635464237703N00243146WA0115701157
B1635474237706N00243134WA0115501155
B1635484237708N00243120WA0115401154
B1635494237717N00243111WA0115301153
B1635504237726N00243108WA0115201152
B1635514237734N00243109WA0115001150
B1635524237739N00243112WA0115001149
B1635534237744N00243118WA0114801148
B1635544237749N00243124WA0114701147
B1635554237752N00243128WA0114501145
B1635564237752N00243132WA0114301143
B1635574237751N00243134WA0114201142
B1635584237750N00243134WA0114201142
B1635594237747N00243131WA0114201142
B1636004237745N00243127WA0114001140
B1636014237744N00243119WA0113701137
B1636024237745N00243108WA0113401134
B1636034237748N00243097WA0113201132
B1636044237752N00243087WA0113001130
B1636054237760N00243079WA0112801128
B1636064237768N00243074WA0112601126
B1636074237775N00243070WA0112601126
B1636084237783N00243069WA0112501125
B1636094237789N00243072WA0112501125
B1636104237796N00243076WA0112301123
B1636114237798N00243080WA0112101121
B1636124237800N00243086WA0111901119
B1636134237799N00243089WA0111701116
B1636144237798N00243089WA0111501115
B1636154237796N00243086WA0111301113
B1636164237795N00243078WA0111201112
B1636174237797N00243067WA0111001110
B1636184237802N00243057WA0110901109
B1636194237808N00243045WA0110801108
B1636204237816N00243037WA0110701107
B1636214237824N00243031WA0110601106
B1636224237832N00243030WA0110501104
B1636234237838N00243030WA0110301103
B1636244237844N00243036WA0110101101
B1636254237848N00243041WA0109901098
B1636264237850N00243048WA0109701097
B1636274237850N00243049WA0109701096
B1636284237850N00243049WA0109501095
B1636294237850N00243043WA0109401094
B1636304237852N00243033WA0109201092
B1636314237857N00243021WA0109001090
B1636324237864N00243010WA0108901089
B1636334237873N00243003WA0108801088
B1636344237881N00242999WA0108701087
B1636354237890N00242999WA0108601086
B1636364237897N00243003WA0108501085
B1636374237902N00243007WA0108401084
B1636384237906N00243012WA0108101081
B1636394237908N00243018WA0107801077
B1636404237907N00243023WA0107401074
B1636414237905N00243026WA0107201072
B1636424237901N00243026WA0107001070
B1636434237899N00243022WA0106901068
B1636444237898N00243017WA0106801068
B1636454237898N00243008WA0106701067
B1636464237902N00242998WA0106601066
B1636474237907N00242986WA0106501065
B1636484237914N00242976WA0106401064
B1636494237923N00242967WA0106301063
B1636504237931N00242964WA0106201062
B1636514237939N00242967WA0106101061
B1636524237946N00242968WA0106101061
B1636534237952N00242973WA0106001060
B1636544237956N00242979WA0105801058
B1636554237957N00242986WA0105501055
B1636564237956N00242990WA0105301053
B1636574237954N00242995WA0105201051
B1636584237951N00242998WA0105101051
B1636594237948N00242998WA0105001050
B1637004237946N00242993WA0104801048
B1637014237944N00242990WA0104701047
B1637024237944N00242986WA0104601046
B1637034237944N00242977WA0104601046
B1637044237946N00242968WA0104501045
B1637054237952N00242957WA0104401044
B1637064237960N00242946WA0104301043
B1637074237967N00242938WA0104301043
B1637084237975N00242934WA0104201042
B1637094237983N00242932WA0104001040
B1637104237990N00242934WA0103901038
B1637114237994N00242939WA0103701037
B1637124237999N00242945WA0103701037
B1637134238001N00242951WA0103601036
B1637144238001N00242954WA0103401034
B1637154238000N00242957WA0103201032
B1637164237998N00242958WA0103101030
B1637174237995N00242957WA0103001030
B1637184237993N00242955WA0102901029
B1637194237990N00242953WA0102801028
B1637204237988N00242950WA0102601026
B1637214237985N00242948WA0102501025
B1637224237983N00242943WA0102301023
B1637234237982N00242938WA0102001020
B1637244237981N00242934WA0101801018
B1637254237981N00242927WA0101501015
B1637264237983N00242918WA0101201012
B1637274237986N00242908WA0101101011
B1637284237990N00242895WA0101101011
B1637294237996N00242885WA0101101011
B1637304238004N00242884WA0101201012
B1637314238013N00242885WA0101301013
B1637324238020N00242886WA0101301013
B1637334238025N00242891WA0101401014
B1637344238029N00242896WA0101401014
B1637354238031N00242901WA0101401013
B1637364238029N00242904WA0101301013
B1637374238027N00242905WA0101001010
B1637384238024N00242906WA0100701007
B1637394238020N00242905WA0100401003
B1637404238017N00242904WA0100101001
B1637414238015N00242899WA0099900999
B1637424238014N00242892WA0099900999
B1637434238015N00242882WA0099900999
B1637444238020N00242872WA0099900999
B1637454238025N00242862WA0100000999
B1637464238032N00242857WA0100001000
B1637474238039N00242855WA0099900999
B1637484238044N00242861WA0099900999
B1637494238050N00242867WA0099800998
B1637504238053N00242874WA0099700997
B1637514238054N00242881WA0099600996
B1637524238053N00242885WA0099500995
B1637534238051N00242886WA0099400993
B1637544238050N00242884WA0099200992
B1637554238050N00242879WA0099100991
B1637564238050N00242872WA0098900989
B1637574238051N00242863WA0098700987
B1637584238054N00242853WA0098600986
B1637594238060N00242841WA0098500984
B1638004238067N00242830WA0098400984
B1638014238073N00242829WA0098400984
B1638024238081N00242834WA0098500984
B1638034238087N00242837WA0098500985
B1638044238093N00242843WA0098500985
B1638054238097N00242849WA0098500985
B1638064238098N00242855WA0098500985
B1638074238097N00242861WA0098400984
B1638084238094N00242862WA0098200981
B1638094238092N00242861WA0097900979
B1638104238090N00242858WA0097800978
B1638114238089N00242853WA0097600976
B1638124238091N00242844WA0097600976
B1638134238093N00242834WA0097500975
B1638144238099N00242826WA0097400974
B1638154238107N00242820WA0097400974
B1638164238115N00242818WA0097400974
B1638174238123N00242819WA0097400974
B1638184238130N00242822WA0097200972
B1638194238135N00242826WA0097100970
B1638204238137N00242834WA0096800968
B1638214238140N00242843WA0096700967
B1638224238138N00242849WA0096500965
B1638234238136N00242854WA0096400964
B1638244238134N00242855WA0096400964
B1638254238131N00242855WA0096300963
B1638264238129N00242855WA0096100961
B1638274238127N00242855WA0096100961
B1638284238125N00242855WA0095900959
B1638294238123N00242855WA0095700957
B1638304238120N00242853WA0095500955
B1638314238117N00242846WA0095300953
B1638324238115N00242838WA0095300953
B1638334238116N00242829WA0095300953
B1638344238120N00242819WA0095300953
B1638354238128N00242811WA0095300953
B1638364238135N00242804WA0095300953
B1638374238144N00242800WA0095400954
B1638384238152N00242800WA0095600956
B1638394238158N00242803WA0095700957
B1638404238164N00242807WA0095800958
B1638414238167N00242814WA0095700957
B1638424238169N00242819WA0095400954
B1638434238169N00242825WA0095000950
B1638444238168N00242830WA0094800948
B1638454238166N00242837WA0094700947
B1638464238164N00242842WA0094700947
B1638474238162N00242846WA0094600946
B1638484238161N00242849WA0094600946
B1638494238159N00242850WA0094600945
B1638504238157N00242850WA0094600946
B1638514238156N00242849WA0094800947
B1638524238155N00242847WA0094900949
B1638534238153N00242845WA0095100951
B1638544238151N00242844WA0095200952
B1638554238151N00242845WA0095300953
B1638564238151N00242847WA0095400953
B1638574238152N00242850WA0095400954
B1638584238154N00242854WA0095400954
B1638594238156N00242857WA0095400954
B1639004238158N00242860WA0095300953
B1639014238160N00242864WA0095200952
B1639024238163N00242870WA0095100951
B1639034238165N00242875WA0095100951
B1639044238167N00242880WA0095000950
B1639054238168N00242884WA0095000950
B1639064238168N00242888WA0094800948
B1639074238169N00242892WA0094700947
B1639084238170N00242896WA0094500945
B1639094238171N00242901WA0094400944
B1639104238171N00242904WA0094500945
B1639114238170N00242908WA0094600946
B1639124238170N00242910WA0094700947
B1639134238170N00242911WA0094800948
B1639144238169N00242913WA0094800948
B1639154238168N00242915WA0094700947
B1639164238167N00242915WA0094700947
B1639174238165N00242916WA0094700947
B1639184238164N00242915WA0094800948
B1639194238163N00242914WA0095000949
B1639204238162N00242913WA0094900949
B1639214238160N00242912WA0094800948
B1639224238157N00242910WA0094800948
B1639234238154N00242908WA0094800948
B1639244238151N00242902WA0094700947
B1639254238151N00242895WA0094600946
B1639264238153N00242884WA0094700947
B1639274238155N00242874WA0094800948
B1639284238159N00242866WA0094900949
B1639294238166N00242861WA0094700947
B1639304238174N00242855WA0094600946
B1639314238183N00242850WA0094500945
B1639324238191N00242845WA0094500944
B1639334238199N00242842WA0094500945
B1639344238206N00242845WA0094400944
B1639354238211N00242850WA0094200942
B1639364238217N00242856WA0094300943
B1639374238220N00242861WA0094300943
B1639384238223N00242865WA0094400944
B1639394238223N00242866WA0094400944
B1639404238222N00242867WA0094300943
B1639414238221N00242868WA0094100941
B1639424238220N00242872WA0094000940
B1639434238218N00242875WA0093800938
B1639444238217N00242879WA0093800937
B1639454238216N00242882WA0093700937
B1639464238215N00242882WA0093600936
B1639474238214N00242881WA0093600936
B1639484238213N00242879WA0093600935
B1639494238212N00242875WA0093600936
B1639504238210N00242872WA0093700937
B1639514238208N00242869WA0093700937
B1639524238205N00242868WA0093700937
B1639534238203N00242870WA0093700936
B1639544238202N00242874WA0093700936
B1639554238201N00242876WA0093600936
B1639564238199N00242880WA0093400934
B1639574238198N00242884WA0093200932
B1639584238196N00242891WA0093200932
B1639594238194N00242895WA0093100931
B1640004238192N00242901WA0093200932
B1640014238190N00242905WA0093400934
B1640024238189N00242910WA0093500935
B1640034238188N00242913WA0093500935
B1640044238186N00242917WA0093600936
B1640054238184N00242922WA0093800938
B1640064238182N00242925WA0093900939
B1640074238179N00242929WA0093900939
B1640084238178N00242933WA0094000940
B1640094238176N00242936WA0094000940
B1640104238174N00242939WA0094000940
B1640114238172N00242943WA0094100941
B1640124238169N00242946WA0094200942
B1640134238167N00242949WA0094300943
B1640144238165N00242952WA0094400944
B1640154238162N00242955WA0094500945
B1640164238160N00242957WA0094500945
B1640174238158N00242960WA0094400944
B1640184238156N00242964WA0094400944
B1640194238153N00242968WA0094400944
B1640204238151N00242972WA0094600946
B1640214238149N00242975WA0094700947
B1640224238148N00242977WA0094800948
B1640234238146N00242979WA0094700947
B1640244238144N00242982WA0094700947
B1640254238142N00242986WA0094700947
B1640264238139N00242988WA0094700947
B1640274238137N00242989WA0094800948
B1640284238135N00242990WA0094800948
B1640294238132N00242991WA0094900949
B1640304238130N00242991WA0094900949
B1640314238128N00242991WA0094900949
B1640324238125N00242992WA0095000950
B1640334238121N00242993WA0095100951
B1640344238118N00242994WA0095200952
B1640354238116N00242996WA0095200952
B1640364238114N00242998WA0095300953
B1640374238111N00242999WA0095300953
B1640384238108N00243001WA0095300953
B1640394238105N00243003WA0095400954
B1640404238102N00243005WA0095500955
B1640414238098N00243007WA0095600956
B1640424238095N00243009WA0095700957
B1640434238092N00243011WA0095900959
B1640444238088N00243012WA0096000960
B1640454238085N00243014WA0096200962
B1640464238082N00243017WA0096400964
B1640474238079N00243018WA0096500965
B1640484238076N00243020WA0096700967
B1640494238073N00243022WA0096700967
B1640504238070N00243025WA0096700967
B1640514238066N00243027WA0096600966
B1640524238063N00243029WA0096900969
B1640534238059N00243031WA0097200972
B1640544238056N00243032WA0097500975
B1640554238053N00243034WA0097800978
B1640564238050N00243036WA0097900979
B1640574238046N00243036WA0098100981
B1640584238042N00243038WA0098300983
B1640594238038N00243039WA0098400984
B1641004238035N00243041WA0098500985
B1641014238031N00243043WA0098800988
B1641024238028N00243045WA0099100991
B1641034238025N00243048WA0099300993
B1641044238021N00243048WA0099500995
B1641054238018N00243049WA0099600996
B1641064238015N00243050WA0099800998
B1641074238012N00243052WA0100101001
B1641084238009N00243055WA0100301003
B1641094238006N00243055WA0100501005
B1641104238004N00243056WA0100601006
B1641114238002N00243056WA0100701007
B1641124238000N00243057WA0101001010
B1641134237997N00243058WA0101301013
B1641144237995N00243060WA0101401014
B1641154237992N00243062WA0101501015
B1641164237989N00243063WA0101501015
B1641174237986N00243065WA0101601016
B1641184237983N00243067WA0101701017
B1641194237980N00243068WA0101901019
B1641204237977N00243070WA0102101021
B1641214237974N00243072WA0102201022
B1641224237971N00243074WA0102401024
B1641234237968N00243075WA0102601026
B1641244237965N00243076WA0103001030
B1641254237963N00243077WA0103301033
B1641264237960N00243078WA0103601036
B1641274237958N00243079WA0103901039
B1641284237955N00243080WA0104101041
B1641294237953N00243082WA0104301043
B1641304237950N00243082WA0104501045
B1641314237948N00243084WA0104701047
B1641324237945N00243086WA0105001050
B1641334237942N00243087WA0105201052
B1641344237938N00243089WA0105301053
B1641354237935N00243090WA0105501055
B1641364237932N00243093WA0105801058
B1641374237930N00243094WA0106101061
B1641384237927N00243096WA0106401064
B1641394237924N00243099WA0106601066
B1641404237922N00243102WA0106801068
B1641414237920N00243103WA0107001070
B1641424237918N00243105WA0107201072
B1641434237915N00243107WA0107301073
B1641444237913N00243110WA0107501075
B1641454237911N00243112WA0107701077
B1641464237908N00243115WA0107901079
B1641474237906N00243119WA0108101081
B1641484237904N00243122WA0108201082
B1641494237902N00243126WA0108401084
B1641504237900N00243130WA0108501085
B1641514237897N00243134WA0108601086
B1641524237895N00243138WA0108801088
B1641534237892N00243143WA0109001090
B1641544237889N00243145WA0109201092
B1641554237887N00243148WA0109501095
B1641564237884N00243151WA0109701097
B1641574237882N00243153WA0109801098
B1641584237878N00243157WA0109801098
B1641594237875N00243160WA0109801098
B1642004237871N00243163WA0109901099
B1642014237867N00243165WA0110101101
B1642024237864N00243167WA0110301103
B1642034237860N00243170WA0110601106
B1642044237857N00243174WA0110701107
B1642054237852N00243176WA0110901109
B1642064237850N00243178WA0111001110
B1642074237846N00243181WA0111201112
B1642084237843N00243182WA0111401114
B1642094237840N00243184WA0111601116
B1642104237837N00243186WA0111801118
B1642114237834N00243187WA0112001120
B1642124237831N00243189WA0112101121
B1642134237828N00243190WA0112201122
B1642144237825N00243191WA0112401124
B1642154237823N00243193WA0112601126
B1642164237820N00243193WA0112801128
B1642174237817N00243194WA0112901129
B1642184237815N00243194WA0113001130
B1642194237812N00243195WA0113001130
B1642204237809N00243196WA0113101131
B1642214237805N00243197WA0113201132
B1642224237802N00243198WA0113501135
B1642234237799N00243200WA0113801138
B1642244237796N00243200WA0114001140
B1642254237793N00243201WA0114301143
B1642264237790N00243203WA0114601146
B1642274237788N00243204WA0114701147
B1642284237784N00243205WA0114801149
B1642294237781N00243207WA0114901149
B1642304237778N00243208WA0115001150
B1642314237775N00243209WA0115201152
B1642324237773N00243212WA0115401154
B1642334237771N00243212WA0115601156
B1642344237769N00243213WA0115801158
B1642354237767N00243214WA0116001160
B1642364237766N00243215WA0116201162
B1642374237765N00243218WA0116201162
B1642384237764N00243223WA0116101161
B1642394237763N00243228WA0116301163
B1642404237762N00243233WA0116601166
B1642414237761N00243238WA0116901169
B1642424237760N00243243WA0117101171
B1642434237759N00243248WA0117301173
B1642444237757N00243254WA0117301174
B1642454237755N00243258WA0117401174
B1642464237753N00243263WA0117401174
B1642474237750N00243269WA0117601176
B1642484237748N00243273WA0117801178
B1642494237746N00243278WA0118001180
B1642504237744N00243283WA0118201182
B1642514237741N00243288WA0118401184
B1642524237738N00243293WA0118501185
B1642534237735N00243298WA0118701187
B1642544237732N00243303WA0118901189
B1642554237730N00243308WA0119101191
B1642564237727N00243313WA0119401194
B1642574237724N00243319WA0119601196
B1642584237721N00243323WA0119901199
B1642594237719N00243328WA0120101201
B1643004237716N00243333WA0120301203
B1643014237713N00243338WA0120401204
B1643024237711N00243344WA0120501206
B1643034237708N00243350WA0120801208
B1643044237705N00243354WA0120901209
B1643054237703N00243360WA0121101211
B1643064237700N00243366WA0121301213
B1643074237698N00243372WA0121501216
B1643084237696N00243376WA0121701217
B1643094237694N00243381WA0121901219
B1643104237691N00243388WA0122201222
B1643114237689N00243393WA0122401224
B1643124237687N00243398WA0122701227
B1643134237685N00243404WA0122901229
B1643144237683N00243410WA0123201232
B1643154237681N00243416WA0123401234
B1643164237679N00243423WA0123501235
B1643174237677N00243430WA0123601236
B1643184237676N00243438WA0123901239
B1643194237674N00243445WA0124301243
B1643204237672N00243451WA0124701247
B1643214237670N00243457WA0125101251
B1643224237669N00243460WA0125401254
B1643234237668N00243465WA0125601256
B1643244237666N00243470WA0125701257
B1643254237665N00243477WA0125801258
B1643264237664N00243484WA0125901259
B1643274237663N00243491WA0126001260
B1643284237662N00243498WA0126401264
B1643294237663N00243505WA0126701267
B1643304237664N00243512WA0127001270
B1643314237665N00243518WA0127201272
B1643324237666N00243524WA0127401274
B1643334237666N00243530WA0127501275
B1643344237666N00243537WA0127701277
B1643354237665N00243543WA0127901279
B1643364237664N00243549WA0128101281
B1643374237664N00243555WA0128301283
B1643384237663N00243560WA0128501285
B1643394237662N00243566WA0128701287
B1643404237661N00243571WA0129101291
B1643414237660N00243576WA0129401294
B1643424237659N00243583WA0129701297
B1643434237659N00243587WA0129901299
B1643444237660N00243592WA0130001300
B1643454237660N00243597WA0130101301
B1643464237660N00243602WA0130401304
B1643474237660N00243606WA0130601306
B1643484237660N00243611WA0130801308
B1643494237660N00243616WA0130901309
B1643504237660N00243621WA0131001310
B1643514237660N00243626WA0131001310
B1643524237660N00243631WA0131301313
B1643534237660N00243636WA0131601316
B1643544237661N00243642WA0131901319
B1643554237663N00243648WA0132201322
B1643564237665N00243654WA0132401324
B1643574237666N00243659WA0132601326
B1643584237667N00243665WA0132801328
B1643594237669N00243671WA0133001330
B1644004237670N00243676WA0133301333
B1644014237672N00243682WA0133701337
B1644024237673N00243688WA0134001340
B1644034237675N00243693WA0134301343
B1644044237677N00243699WA0134501345
B1644054237679N00243705WA0134601346
B1644064237681N00243711WA0134601346
B1644074237684N00243717WA0134701347
B1644084237686N00243724WA0134801348
B1644094237688N00243730WA0134901349
B1644104237690N00243737WA0135201352
B1644114237691N00243743WA0135401354
B1644124237693N00243749WA0135601356
B1644134237694N00243756WA0135701357
B1644144237696N00243762WA0135701357
B1644154237698N00243769WA0135901359
B1644164237699N00243775WA0136201362
B1644174237701N00243780WA0136401364
B1644184237702N00243786WA0136601366
B1644194237704N00243791WA0136601366
B1644204237707N00243797WA0136901369
B1644214237710N00243802WA0137201372
B1644224237712N00243807WA0137601376
B1644234237715N00243811WA0137901379
B1644244237717N00243816WA0138101381
B1644254237720N00243819WA0138101381
B1644264237722N00243824WA0138001380
B1644274237723N00243831WA0137901379
B1644284237723N00243836WA0138101381
B1644294237723N00243842WA0138301383
B1644304237723N00243847WA0138501385
B1644314237723N00243851WA0138601386
B1644324237723N00243854WA0138601386
B1644334237722N00243857WA0138601386
B1644344237722N00243863WA0138501385
B1644354237723N00243869WA0138701387
B1644364237726N00243875WA0138801388
B1644374237729N00243880WA0139101391
B1644384237732N00243885WA0139401394
B1644394237736N00243890WA0139601396
B1644404237739N00243894WA0139701397
B1644414237743N00243899WA0139901399
B1644424237747N00243904WA0140001400
B1644434237750N00243908WA0140101401
B1644444237754N00243913WA0140101401
B1644454237757N00243917WA0140001400
B1644464237760N00243923WA0140101401
B1644474237764N00243928WA0140201402
B1644484237767N00243933WA0140401404
B1644494237770N00243938WA0140501405
B1644504237773N00243943WA0140601406
B1644514237777N00243948WA0140601406
B1644524237780N00243954WA0140701407
B1644534237784N00243958WA0140701408
B1644544237787N00243963WA0140901409
B1644554237790N00243968WA0140901409
B1644564237793N00243973WA0140901409
B1644574237796N00243980WA0141001410
B1644584237798N00243985WA0141101411
B1644594237800N00243992WA0141201412
B1645004237802N00243996WA0141201412
B1645014237805N00244003WA0141401414
B1645024237807N00244008WA0141701417
B1645034237810N00244014WA0141901419
B1645044237812N00244019WA0142001420
B1645054237815N00244025WA0142101421
B1645064237819N00244031WA0142201422
B1645074237822N00244038WA0142401424
B1645084237826N00244044WA0142701427
B1645094237832N00244049WA0142901429
B1645104237838N00244054WA0143001430
B1645114237843N00244058WA0143001430
B1645124237848N00244062WA0143101431
B1645134237855N00244068WA0143201432
B1645144237862N00244071WA0143401434
B1645154237869N00244074WA0143701437
B1645164237876N00244077WA0143901439
B1645174237883N00244080WA0144001440
B1645184237890N00244082WA0144101441
B1645194237898N00244084WA0144101441
B1645204237906N00244087WA0144101441
B1645214237915N00244088WA0144201442
B1645224237924N00244089WA0144401444
B1645234237931N00244091WA0144701447
B1645244237939N00244092WA0144801448
B1645254237947N00244094WA0144901449
B1645264237955N00244096WA0145001450
B1645274237963N00244099WA0145101451
B1645284237971N00244101WA0145201452
B1645294237980N00244104WA0145301453
B1645304237989N00244106WA0145401454
B1645314237998N00244109WA0145501455
B1645324238006N00244112WA0145701457
B1645334238015N00244114WA0145801458
B1645344238024N00244118WA0145901459
B1645354238033N00244120WA0145901459
B1645364238042N00244122WA0146001460
B1645374238051N00244125WA0146101461
B1645384238060N00244127WA0146201462
B1645394238069N00244129WA0146301463
B1645404238078N00244131WA0146301463
B1645414238087N00244134WA0146301463
B1645424238096N00244137WA0146401464
B1645434238105N00244139WA0146401464
B1645444238115N00244141WA0146501465
B1645454238124N00244144WA0146601466
B1645464238134N00244146WA0146701467
B1645474238143N00244149WA0146701468
B1645484238153N00244151WA0146801468
B1645494238162N00244153WA0146901470
B1645504238171N00244156WA0147101471
B1645514238180N00244157WA0147301473
B1645524238189N00244158WA0147501475
B1645534238198N00244160WA0147701477
B1645544238207N00244161WA0147801478
B1645554238216N00244161WA0147901479
B1645564238225N00244161WA0148001480
B1645574238234N00244160WA0148001480
B1645584238243N00244158WA0148001480
B1645594238252N00244156WA0148201482
B1646004238261N00244152WA0148401484
B1646014238269N00244149WA0148601486
B1646024238278N00244145WA0148801488
B1646034238287N00244142WA0148901489
B1646044238295N00244138WA0149001490
B1646054238304N00244135WA0149101491
B1646064238313N00244132WA0149201492
B1646074238322N00244129WA0149301493
B1646084238331N00244126WA0149401494
B1646094238341N00244123WA0149401494
B1646104238351N00244120WA0149501495
B1646114238360N00244118WA0149601496
B1646124238369N00244116WA0149801498
B1646134238378N00244114WA0149901500
B1646144238387N00244112WA0150101501
B1646154238397N00244111WA0150301503
B1646164238406N00244109WA0150401504
B1646174238415N00244108WA0150501505
B1646184238425N00244106WA0150501505
B1646194238435N00244104WA0150601507
B1646204238444N00244102WA0150801508
B1646214238454N00244100WA0151001510
B1646224238463N00244099WA0151201512
B1646234238472N00244097WA0151301513
B1646244238481N00244096WA0151401514
B1646254238490N00244094WA0151401514
B1646264238499N00244092WA0151501515
B1646274238508N00244090WA0151701517
B1646284238517N00244088WA0151901519
B1646294238526N00244087WA0152001520
B1646304238535N00244084WA0152101521
B1646314238545N00244083WA0152201522
B1646324238555N00244080WA0152401524
B1646334238564N00244078WA0152701527
B1646344238573N00244077WA0153001530
B1646354238581N00244075WA0153201532
B1646364238590N00244073WA0153301533
B1646374238600N00244072WA0153301533
B1646384238609N00244070WA0153401534
B1646394238618N00244069WA0153701537
B1646404238627N00244068WA0154001540
B1646414238636N00244066WA0154301543
B1646424238646N00244064WA0154501545
B1646434238655N00244063WA0154601546
B1646444238664N00244061WA0154701547
B1646454238673N00244059WA0154901549
B1646464238682N00244056WA0155101551
B1646474238691N00244053WA0155201552
B1646484238699N00244050WA0155401554
B1646494238708N00244047WA0155601556
B1646504238716N00244043WA0156001560
B1646514238725N00244039WA0156201562
B1646524238733N00244035WA0156401564
B1646534238741N00244031WA0156501565
B1646544238750N00244028WA0156701567
B1646554238758N00244024WA0156901569
B1646564238766N00244021WA0157001570
B1646574238774N00244018WA0157201572
B1646584238783N00244015WA0157401574
B1646594238792N00244013WA0157501575
B1647004238801N00244011WA0157701577
B1647014238811N00244008WA0157801578
B1647024238821N00244006WA0157801579
B1647034238830N00244004WA0158101581
B1647044238839N00244002WA0158201582
B1647054238847N00244001WA0158401584
B1647064238855N00244000WA0158501585
B1647074238862N00243999WA0158501585
B1647084238871N00243999WA0158501586
B1647094238880N00243997WA0158501585
B1647104238889N00243997WA0158601586
B1647114238898N00243999WA0158801588
B1647124238907N00243999WA0159001590
B1647134238916N00243999WA0159201592
B1647144238924N00244001WA0159301593
B1647154238933N00244002WA0159301593
B1647164238942N00244004WA0159301593
B1647174238952N00244007WA0159401595
B1647184238961N00244011WA0159701597
B1647194238970N00244013WA0160101601
B1647204238979N00244015WA0160301603
B1647214238988N00244018WA0160501605
B1647224238996N00244021WA0160701607
B1647234239004N00244024WA0160901609
B1647244239012N00244027WA0161001610
B1647254239020N00244031WA0161101611
B1647264239027N00244034WA0161101611
B1647274239035N00244037WA0161301613
B1647284239042N00244041WA0161501615
B1647294239050N00244045WA0161701617
B1647304239057N00244049WA0161901619
B1647314239064N00244053WA0162101621
B1647324239071N00244057WA0162201622
B1647334239078N00244061WA0162201622
B1647344239086N00244064WA0162301623
B1647354239094N00244068WA0162401625
B1647364239102N00244072WA0162601626
B1647374239109N00244075WA0162801628
B1647384239116N00244080WA0162901629
B1647394239122N00244085WA0162901629
B1647404239128N00244091WA0162901629
B1647414239132N00244099WA0162901629
B1647424239136N00244106WA0162901629
B1647434239140N00244113WA0162801628
B1647444239144N00244120WA0162801628
B1647454239147N00244128WA0162801628
B1647464239149N00244137WA0162801628
B1647474239150N00244144WA0162901629
B1647484239149N00244150WA0162901629
B1647494239147N00244157WA0162901629
B1647504239141N00244160WA0163101631
B1647514239141N00244157WA0163301633
B1647524239138N00244156WA0163501635
B1647534239138N00244147WA0163601636
B1647544239138N00244137WA0163801638
B1647554239140N00244128WA0163901639
B1647564239145N00244120WA0164001640
B1647574239150N00244113WA0164101641
B1647584239156N00244106WA0164101641
B1647594239163N00244097WA0164201642
B1648004239170N00244089WA0164101641
B1648014239176N00244082WA0164201642
B1648024239184N00244075WA0164301643
B1648034239189N00244070WA0164501645
B1648044239197N00244065WA0164601646
B1648054239205N00244061WA0164601646
B1648064239212N00244057WA0164601647
B1648074239221N00244055WA0164601647
B1648084239229N00244054WA0164601646
B1648094239239N00244054WA0164501646
B1648104239248N00244054WA0164501645
B1648114239256N00244054WA0164401645
B1648124239266N00244056WA0164401644
B1648134239274N00244058WA0164401644
B1648144239282N00244061WA0164401644
B1648154239289N00244064WA0164301643
B1648164239296N00244068WA0164301643
B1648174239302N00244072WA0164301643
B1648184239308N00244080WA0164401644
B1648194239313N00244087WA0164401644
B1648204239316N00244094WA0164401645
B1648214239317N00244101WA0164501645
B1648224239318N00244107WA0164501645
B1648234239317N00244111WA0164501645
B1648244239315N00244115WA0164401644
B1648254239312N00244116WA0164201642
B1648264239310N00244115WA0164101641
B1648274239309N00244111WA0164001640
B1648284239309N00244106WA0163901639
B1648294239311N00244096WA0163801638
B1648304239314N00244088WA0163801638
B1648314239318N00244080WA0163701637
B1648324239322N00244072WA0163701637
B1648334239329N00244068WA0163601636
B1648344239338N00244062WA0163501636
B1648354239346N00244061WA0163501635
B1648364239355N00244061WA0163501635
B1648374239362N00244063WA0163501635
B1648384239369N00244066WA0163501635
B1648394239376N00244072WA0163501635
B1648404239382N00244080WA0163401634
B1648414239386N00244088WA0163501635
B1648424239389N00244097WA0163401634
B1648434239390N00244104WA0163301633
B1648444239389N00244109WA0163201632
B1648454239385N00244112WA0163101631
B1648464239381N00244114WA0163101631
B1648474239378N00244112WA0163001630
B1648484239377N00244108WA0162901629
B1648494239377N00244100WA0162801628
B1648504239380N00244091WA0162701627
B1648514239385N00244082WA0162601626
B1648524239392N00244074WA0162601626
B1648534239400N00244070WA0162501625
B1648544239408N00244068WA0162401624
B1648554239416N00244068WA0162301623
B1648564239424N00244069WA0162301623
B1648574239430N00244073WA0162201622
B1648584239435N00244080WA0162201622
B1648594239440N00244087WA0162201622
B1649004239443N00244094WA0162101621
B1649014239444N00244103WA0161901619
B1649024239444N00244112WA0161701617
B1649034239442N00244118WA0161501615
B1649044239440N00244121WA0161501615
B1649054239438N00244122WA0161401614
B1649064239438N00244118WA0161301613
B1649074239436N00244112WA0161201612
B1649084239436N00244104WA0161001610
B1649094239438N00244097WA0161001610
B1649104239439N00244091WA0161001610
B1649114239441N00244083WA0160901609
B1649124239444N00244076WA0160801608
B1649134239448N00244068WA0160601606
B1649144239454N00244058WA0160401604
B1649154239461N00244050WA0160301603
B1649164239470N00244045WA0160201602
B1649174239479N00244044WA0160201602
B1649184239489N00244045WA0160101601
B1649194239497N00244049WA0160101601
B1649204239505N00244052WA0160101601
B1649214239512N00244056WA0160101601
B1649224239517N00244063WA0159901599
B1649234239520N00244071WA0159801598
B1649244239522N00244080WA0159701597
B1649254239522N00244085WA0159601595
B1649264239520N00244089WA0159401594
B1649274239518N00244090WA0159201592
B1649284239514N00244088WA0159201592
B1649294239511N00244087WA0159101591
B1649304239510N00244080WA0159001590
B1649314239510N00244073WA0158801588
B1649324239514N00244063WA0158601586
B1649334239520N00244053WA0158401584
B1649344239528N00244044WA0158201582
B1649354239536N00244040WA0158101581
B1649364239545N00244039WA0157901579
B1649374239553N00244040WA0157901579
B1649384239561N00244044WA0157801578
B1649394239568N00244049WA0157701577
B1649404239573N00244056WA0157601576
B1649414239578N00244063WA0157501575
B1649424239581N00244072WA0157501575
B1649434239584N00244078WA0157401574
B1649444239583N00244082WA0157201572
B1649454239582N00244085WA0157101571
B1649464239581N00244088WA0156901569
B1649474239578N00244090WA0156601566
B1649484239576N00244089WA0156301563
B1649494239574N00244087WA0156101561
B1649504239571N00244083WA0155901559
B1649514239568N00244076WA0155801558
B1649524239568N00244069WA0155801558
B1649534239573N00244061WA0155801558
B1649544239580N00244053WA0155601556
B1649554239587N00244045WA0155401554
B1649564239595N00244041WA0155201552
B1649574239603N00244041WA0155001550
B1649584239612N00244041WA0154801548
B1649594239620N00244044WA0154701547
B1650004239627N00244046WA0154601546
B1650014239634N00244051WA0154601546
B1650024239639N00244056WA0154501545
B1650034239642N00244063WA0154301543
B1650044239643N00244070WA0154001540
B1650054239643N00244077WA0153801538
B1650064239642N00244082WA0153701537
B1650074239641N00244087WA0153401534
B1650084239640N00244087WA0153101531
B1650094239638N00244081WA0152801527
B1650104239637N00244074WA0152501525
B1650114239637N00244068WA0152301523
B1650124239638N00244059WA0152301523
B1650134239640N00244052WA0152301523
B1650144239642N00244044WA0152201522
B1650154239649N00244038WA0151901519
B1650164239656N00244032WA0151601516
B1650174239665N00244028WA0151201512
B1650184239674N00244027WA0150901509
B1650194239683N00244026WA0150801508
B1650204239691N00244027WA0150701507
B1650214239699N00244028WA0150701507
B1650224239706N00244035WA0150601506
B1650234239711N00244043WA0150501505
B1650244239715N00244052WA0150301503
B1650254239718N00244061WA0150101501
B1650264239717N00244068WA0149801498
B1650274239714N00244070WA0149501495
B1650284239712N00244068WA0149201492
B1650294239709N00244064WA0148901489
B1650304239708N00244059WA0148801488
B1650314239709N00244052WA0148701487
B1650324239712N00244043WA0148701487
B1650334239716N00244035WA0148601486
B1650344239722N00244027WA0148601486
B1650354239730N00244020WA0148301483
B1650364239738N00244015WA0148001480
B1650374239746N00244018WA0147701477
B1650384239753N00244023WA0147301473
B1650394239758N00244032WA0147101471
B1650404239762N00244040WA0146801468
B1650414239766N00244050WA0146601466
B1650424239767N00244057WA0146301463
B1650434239766N00244063WA0146101461
B1650444239764N00244063WA0146001460
B1650454239760N00244062WA0145801458
B1650464239759N00244057WA0145701457
B1650474239760N00244049WA0145601456
B1650484239763N00244042WA0145601456
B1650494239767N00244034WA0145501455
B1650504239773N00244027WA0145501455
B1650514239780N00244019WA0145301453
B1650524239789N00244015WA0145001450
B1650534239798N00244016WA0144801448
B1650544239807N00244020WA0144501445
B1650554239815N00244023WA0144401444
B1650564239821N00244030WA0144201442
B1650574239827N00244037WA0144001440
B1650584239831N00244046WA0143801438
B1650594239834N00244055WA0143601436
B1651004239831N00244061WA0143401434
B1651014239828N00244061WA0143201432
B1651024239827N00244057WA0143001430
B1651034239825N00244053WA0142901429
B1651044239825N00244046WA0142801428
B1651054239826N00244038WA0142701426
B1651064239830N00244030WA0142401424
B1651074239838N00244019WA0142201422
B1651084239845N00244014WA0141901419
B1651094239852N00244011WA0141701417
B1651104239860N00244011WA0141501415
B1651114239868N00244014WA0141301413
B1651124239875N00244018WA0141301413
B1651134239880N00244024WA0141001410
B1651144239884N00244032WA0140801408
B1651154239886N00244041WA0140501405
B1651164239886N00244050WA0140201402
B1651174239884N00244057WA0139901399
B1651184239884N00244057WA0139701397
B1651194239884N00244055WA0139401394
B1651204239882N00244051WA0139201392
B1651214239882N00244045WA0138901389
B1651224239882N00244038WA0138801388
B1651234239886N00244031WA0138701387
B1651244239891N00244023WA0138601386
B1651254239897N00244016WA0138301383
B1651264239905N00244011WA0138101381
B1651274239912N00244008WA0137801378
B1651284239920N00244008WA0137501375
B1651294239927N00244012WA0137301373
B1651304239932N00244018WA0137101371
B1651314239936N00244026WA0136901369
B1651324239939N00244035WA0136701366
B1651334239941N00244044WA0136401364
B1651344239940N00244051WA0136201362
B1651354239939N00244052WA0135901359
B1651364239938N00244050WA0135701357
B1651374239935N00244046WA0135401354
B1651384239936N00244039WA0135201352
B1651394239939N00244031WA0135001350
B1651404239943N00244022WA0134901349
B1651414239950N00244014WA0134901349
B1651424239956N00244009WA0134701347
B1651434239964N00244008WA0134501345
B1651444239972N00244009WA0134301343
B1651454239980N00244012WA0134101341
B1651464239986N00244019WA0133901339
B1651474239991N00244026WA0133601336
B1651484239994N00244034WA0133501335
B1651494239997N00244043WA0133401334
B1651504239997N00244049WA0133201332
B1651514239995N00244052WA0132901329
B1651524239992N00244053WA0132601325
B1651534239988N00244053WA0132201322
B1651544239983N00244052WA0131901319
B1651554239977N00244047WA0131701317
B1651564239975N00244041WA0131501315
B1651574239975N00244035WA0131401314
B1651584239976N00244030WA0131301313
B1651594239979N00244023WA0131201312
B1652004239983N00244016WA0131101311
B1652014239989N00244008WA0130901309
B1652024239995N00243999WA0130701307
B1652034240003N00243990WA0130601306
B1652044240012N00243987WA0130501305
B1652054240021N00243992WA0130401304
B1652064240029N00243996WA0130401304
B1652074240036N00244001WA0130201302
B1652084240042N00244009WA0130001300
B1652094240047N00244018WA0129801298
B1652104240050N00244026WA0129701297
B1652114240050N00244033WA0129501295
B1652124240049N00244037WA0129301293
B1652134240048N00244041WA0129001290
B1652144240047N00244042WA0128801288
B1652154240045N00244041WA0128501285
B1652164240043N00244038WA0128301283
B1652174240042N00244031WA0128001280
B1652184240046N00244023WA0127901279
B1652194240051N00244014WA0127801278
B1652204240058N00244005WA0127701277
B1652214240067N00243999WA0127501275
B1652224240076N00243995WA0127401274
B1652234240085N00243997WA0127201272
B1652244240093N00244000WA0127101271
B1652254240099N00244005WA0126901269
B1652264240105N00244011WA0126701267
B1652274240108N00244021WA0126401264
B1652284240108N00244031WA0126101261
B1652294240105N00244035WA0125901259
B1652304240103N00244036WA0125701257
B1652314240102N00244034WA0125601256
B1652324240100N00244031WA0125501255
B1652334240099N00244024WA0125401254
B1652344240102N00244018WA0125201252
B1652354240106N00244008WA0124901249
B1652364240112N00244000WA0124601246
B1652374240119N00243992WA0124301243
B1652384240125N00243984WA0124001240
B1652394240133N00243980WA0123901239
B1652404240140N00243985WA0123701237
B1652414240146N00243992WA0123501235
B1652424240151N00243999WA0123201232
B1652434240154N00244006WA0123101231
B1652444240156N00244015WA0122901229
B1652454240155N00244020WA0122701227
B1652464240155N00244020WA0122501225
B1652474240154N00244016WA0122301223
B1652484240154N00244008WA0122101221
B1652494240157N00243999WA0121801218
B1652504240162N00243989WA0121501215
B1652514240168N00243980WA0121301213
B1652524240176N00243974WA0121101211
B1652534240182N00243973WA0121001210
B1652544240190N00243976WA0120801208
B1652554240197N00243981WA0120601206
B1652564240203N00243985WA0120301203
B1652574240209N00243992WA0120001200
B1652584240213N00244002WA0119801198
B1652594240215N00244013WA0119701197
B1653004240213N00244018WA0119701197
B1653014240211N00244018WA0119501195
B1653024240209N00244016WA0119301193
B1653034240209N00244009WA0119101191
B1653044240209N00244001WA0119001190
B1653054240211N00243993WA0118801188
B1653064240215N00243985WA0118701187
B1653074240220N00243980WA0118501185
B1653084240227N00243973WA0118301183
B1653094240234N00243967WA0118001180
B1653104240241N00243964WA0117801178
B1653114240249N00243963WA0117501175
B1653124240256N00243962WA0117301173
B1653134240264N00243961WA0117101171
B1653144240272N00243963WA0116901169
B1653154240281N00243966WA0116801168
B1653164240286N00243973WA0116701167
B1653174240292N00243978WA0116701167
B1653184240296N00243985WA0116701167
B1653194240297N00243992WA0116801168
B1653204240296N00244000WA0116901169
B1653214240295N00244005WA0116901169
B1653224240294N00244005WA0116901169
B1653234240293N00244002WA0116901169
B1653244240291N00243999WA0116901169
B1653254240291N00243990WA0116801168
B1653264240293N00243980WA0116801168
B1653274240298N00243969WA0116701167
B1653284240302N00243962WA0116601166
B1653294240308N00243956WA0116501165
B1653304240314N00243954WA0116201162
B1653314240320N00243954WA0115901159
B1653324240327N00243954WA0115601156
B1653334240334N00243958WA0115401154
B1653344240340N00243964WA0115201152
B1653354240344N00243971WA0115101151
B1653364240346N00243978WA0115001150
B1653374240344N00243983WA0115001150
B1653384240342N00243986WA0115001150
B1653394240340N00243988WA0114901149
B1653404240338N00243985WA0114801148
B1653414240335N00243980WA0114601146
B1653424240333N00243973WA0114501145
B1653434240334N00243964WA0114401144
B1653444240338N00243954WA0114201142
B1653454240343N00243944WA0114001140
B1653464240350N00243938WA0113801138
B1653474240356N00243938WA0113801138
B1653484240361N00243942WA0113801138
B1653494240366N00243944WA0113701137
B1653504240369N00243951WA0113501135
B1653514240371N00243959WA0113401134
B1653524240369N00243968WA0113301133
B1653534240367N00243971WA0113301133
B1653544240365N00243969WA0113301133
B1653554240363N00243965WA0113101131
B1653564240362N00243956WA0113001130
B1653574240363N00243945WA0112801128
B1653584240366N00243935WA0112701127
B1653594240372N00243926WA0112501125
B1654004240378N00243918WA0112501125
B1654014240385N00243918WA0112501125
B1654024240392N00243920WA0112301123
B1654034240399N00243925WA0112101121
B1654044240403N00243931WA0111801118
B1654054240405N00243940WA0111701117
B1654064240405N00243949WA0111601116
B1654074240402N00243954WA0111501115
B1654084240399N00243954WA0111401114
B1654094240395N00243954WA0111301113
B1654104240394N00243947WA0111101111
B1654114240395N00243937WA0111001110
B1654124240397N00243926WA0110901109
B1654134240401N00243914WA0110801108
B1654144240406N00243907WA0110701107
B1654154240412N00243906WA0110601106
B1654164240418N00243905WA0110501105
B1654174240424N00243908WA0110401104
B1654184240429N00243913WA0110301102
B1654194240433N00243920WA0110001100
B1654204240434N00243927WA0109801098
B1654214240432N00243935WA0109701097
B1654224240430N00243940WA0109501095
B1654234240427N00243940WA0109401094
B1654244240424N00243935WA0109201092
B1654254240421N00243927WA0109201092
B1654264240420N00243919WA0109201092
B1654274240423N00243911WA0109201092
B1654284240429N00243904WA0109001090
B1654294240437N00243900WA0108701087
B1654304240445N00243897WA0108401084
B1654314240453N00243896WA0108301083
B1654324240460N00243895WA0108301083
B1654334240468N00243893WA0108201082
B1654344240475N00243892WA0108001080
B1654354240483N00243889WA0107801078
B1654364240491N00243887WA0107601076
B1654374240499N00243885WA0107501075
B1654384240507N00243883WA0107501075
B1654394240515N00243881WA0107501075
B1654404240524N00243879WA0107601076
B1654414240532N00243876WA0107601076
B1654424240541N00243874WA0107601076
B1654434240550N00243873WA0107501075
B1654444240559N00243870WA0107501075
B1654454240567N00243868WA0107401074
B1654464240576N00243866WA0107301073
B1654474240584N00243863WA0107301073
B1654484240593N00243861WA0107201072
B1654494240603N00243859WA0107301073
B1654504240612N00243857WA0107501075
B1654514240619N00243855WA0107701077
B1654524240627N00243854WA0107801078
B1654534240635N00243851WA0107801078
B1654544240643N00243849WA0107801078
B1654554240652N00243847WA0108001080
B1654564240662N00243843WA0108201082
B1654574240671N00243839WA0108301083
B1654584240681N00243836WA0108401084
B1654594240690N00243832WA0108401084
B1655004240698N00243829WA0108401084
B1655014240707N00243825WA0108801088
B1655024240715N00243823WA0109101091
B1655034240724N00243818WA0109401094
B1655044240732N00243816WA0109701097
B1655054240740N00243812WA0109901099
B1655064240748N00243808WA0110001100
B1655074240756N00243804WA0110001100
B1655084240764N00243800WA0110101101
B1655094240773N00243795WA0110301103
B1655104240781N00243791WA0110701107
B1655114240789N00243787WA0111001110
B1655124240797N00243785WA0111201112
B1655134240805N00243781WA0111301113
B1655144240813N00243778WA0111301114
B1655154240821N00243772WA0111501115
B1655164240829N00243767WA0111801118
B1655174240837N00243762WA0112101121
B1655184240845N00243757WA0112401124
B1655194240853N00243753WA0112501125
B1655204240861N00243748WA0112501126
B1655214240869N00243741WA0112701127
B1655224240877N00243733WA0112901129
B1655234240883N00243725WA0113001130
B1655244240888N00243716WA0113301133
B1655254240891N00243707WA0113401134
B1655264240893N00243700WA0113501135
B1655274240895N00243692WA0113501135
B1655284240897N00243683WA0113501135
B1655294240899N00243675WA0113601136
B1655304240902N00243666WA0113701137
B1655314240904N00243657WA0113901139
B1655324240906N00243649WA0114001140
B1655334240907N00243641WA0114101141
B1655344240909N00243633WA0114101141
B1655354240911N00243624WA0114201142
B1655364240912N00243616WA0114201142
B1655374240913N00243609WA0114201142
B1655384240912N00243602WA0114201142
B1655394240912N00243593WA0114301143
B1655404240912N00243586WA0114501145
B1655414240912N00243579WA0114701147
B1655424240912N00243573WA0114801148
B1655434240911N00243565WA0114901149
B1655444240910N00243559WA0115001150
B1655454240908N00243552WA0115101151
B1655464240907N00243548WA0115201152
B1655474240903N00243546WA0115201152
B1655484240900N00243546WA0115201152
B1655494240899N00243548WA0115201152
B1655504240897N00243550WA0115201152
B1655514240896N00243554WA0115201152
B1655524240897N00243559WA0115201152
B1655534240900N00243564WA0115301153
B1655544240905N00243571WA0115201152
B1655554240912N00243578WA0115201152
B1655564240920N00243581WA0115401154
B1655574240928N00243584WA0115601156
B1655584240936N00243584WA0115701157
B1655594240944N00243580WA0115701157
B1656004240951N00243573WA0115701157
B1656014240958N00243565WA0115601156
B1656024240962N00243555WA0115601156
B1656034240965N00243546WA0115601156
B1656044240967N00243537WA0115601156
B1656054240968N00243529WA0115601156
B1656064240969N00243522WA0115501155
B1656074240969N00243514WA0115401154
B1656084240970N00243505WA0115201152
B1656094240970N00243495WA0115101151
B1656104240970N00243484WA0115101151
B1656114240970N00243476WA0115201152
B1656124240968N00243471WA0115301153
B1656134240967N00243467WA0115201152
B1656144240964N00243464WA0115201152
B1656154240961N00243462WA0115101151
B1656164240958N00243459WA0115001150
B1656174240954N00243457WA0115001150
B1656184240950N00243457WA0115001150
B1656194240946N00243460WA0115001150
B1656204240944N00243464WA0114901149
B1656214240944N00243468WA0114901149
B1656224240947N00243473WA0114901149
B1656234240950N00243480WA0114801148
B1656244240955N00243486WA0114801148
B1656254240962N00243489WA0114901149
B1656264240970N00243491WA0114901149
B1656274240978N00243491WA0115001150
B1656284240986N00243490WA0115001150
B1656294240993N00243485WA0114801148
B1656304240999N00243478WA0114601146
B1656314241004N00243470WA0114501145
B1656324241008N00243461WA0114401144
B1656334241012N00243453WA0114401144
B1656344241013N00243445WA0114301143
B1656354241014N00243436WA0114301143
B1656364241013N00243428WA0114201142
B1656374241012N00243420WA0114201142
B1656384241010N00243414WA0114201142
B1656394241007N00243411WA0114201142
B1656404241004N00243409WA0114201142
B1656414241001N00243410WA0114201142
B1656424241000N00243412WA0114301143
B1656434240999N00243415WA0114201142
B1656444240999N00243419WA0114201142
B1656454241002N00243426WA0114101141
B1656464241007N00243431WA0114001140
B1656474241012N00243436WA0114001140
B1656484241019N00243440WA0114001140
B1656494241026N00243443WA0114101141
B1656504241034N00243445WA0114101141
B1656514241041N00243445WA0114001140
B1656524241047N00243440WA0113801138
B1656534241053N00243435WA0113701137
B1656544241059N00243428WA0113601136
B1656554241063N00243418WA0113601136
B1656564241067N00243409WA0113501135
B1656574241069N00243400WA0113401134
B1656584241069N00243392WA0113401134
B1656594241068N00243385WA0113401134
B1657004241067N00243380WA0113401134
B1657014241064N00243377WA0113601136
B1657024241061N00243376WA0113701137
B1657034241057N00243376WA0113801138
B1657044241057N00243378WA0113601136
B1657054241059N00243383WA0113401134
B1657064241061N00243390WA0113201132
B1657074241064N00243397WA0113101131
B1657084241069N00243403WA0113101131
B1657094241076N00243408WA0113001130
B1657104241084N00243410WA0112901129
B1657114241092N00243410WA0112901129
B1657124241100N00243408WA0112901129
B1657134241106N00243407WA0112801128
B1657144241112N00243401WA0112601126
B1657154241118N00243393WA0112301123
B1657164241123N00243383WA0112201122
B1657174241126N00243373WA0112201122
B1657184241127N00243363WA0112301123
B1657194241126N00243355WA0112401124
B1657204241124N00243350WA0112401124
B1657214241120N00243345WA0112401124
B1657224241115N00243347WA0112501125
B1657234241114N00243350WA0112501125
B1657244241114N00243354WA0112401124
B1657254241117N00243361WA0112201122
B1657264241120N00243369WA0112001120
B1657274241124N00243376WA0111801118
B1657284241130N00243381WA0111701117
B1657294241137N00243384WA0111701117
B1657304241145N00243386WA0111601116
B1657314241153N00243386WA0111501115
B1657324241160N00243383WA0111301113
B1657334241166N00243378WA0111101111
B1657344241170N00243370WA0110901109
B1657354241172N00243361WA0110701107
B1657364241172N00243353WA0110501105
B1657374241169N00243342WA0110501105
B1657384241167N00243336WA0110501104
B1657394241164N00243333WA0110501105
B1657404241162N00243334WA0110401104
B1657414241162N00243338WA0110201102
B1657424241162N00243342WA0110001100
B1657434241165N00243350WA0109701097
B1657444241170N00243357WA0109601096
B1657454241176N00243361WA0109501095
B1657464241185N00243365WA0109401094
B1657474241193N00243367WA0109301093
B1657484241201N00243369WA0109201092
B1657494241207N00243362WA0109001090
B1657504241211N00243355WA0108801088
B1657514241216N00243348WA0108701087
B1657524241218N00243339WA0108701087
B1657534241219N00243329WA0108601086
B1657544241220N00243320WA0108401085
B1657554241219N00243314WA0108301083
B1657564241217N00243310WA0108101081
B1657574241215N00243308WA0108001081
B1657584241213N00243310WA0108001080
B1657594241213N00243315WA0107801078
B1658004241212N00243319WA0107701077
B1658014241215N00243326WA0107501075
B1658024241219N00243334WA0107301073
B1658034241224N00243341WA0107301073
B1658044241231N00243345WA0107201072
B1658054241238N00243345WA0107101071
B1658064241245N00243343WA0106901069
B1658074241251N00243339WA0106701067
B1658084241257N00243331WA0106601066
B1658094241261N00243323WA0106501065
B1658104241264N00243314WA0106401064
B1658114241264N00243305WA0106201062
B1658124241261N00243297WA0106101061
B1658134241253N00243291WA0106001060
B1658144241250N00243292WA0105901059
B1658154241251N00243300WA0105701057
B1658164241252N00243307WA0105601056
B1658174241256N00243314WA0105401054
B1658184241261N00243320WA0105401053
B1658194241266N00243326WA0105201052
B1658204241272N00243329WA0104901049
B1658214241280N00243331WA0104701047
B1658224241290N00243328WA0104401044
B1658234241298N00243323WA0104301043
B1658244241304N00243315WA0104201042
B1658254241308N00243307WA0104201042
B1658264241309N00243297WA0104101041
B1658274241308N00243290WA0104101041
B1658284241304N00243284WA0104101041
B1658294241300N00243279WA0104001040
B1658304241298N00243279WA0103901039
B1658314241298N00243282WA0103901039
B1658324241299N00243288WA0103601036
B1658334241302N00243294WA0103301033
B1658344241305N00243301WA0103201032
B1658354241310N00243307WA0103101031
B1658364241316N00243311WA0102901029
B1658374241324N00243313WA0102701027
B1658384241332N00243310WA0102401024
B1658394241339N00243307WA0102201022
B1658404241346N00243301WA0102101021
B1658414241350N00243293WA0102001020
B1658424241353N00243285WA0101901019
B1658434241354N00243275WA0101901019
B1658444241354N00243267WA0101901019
B1658454241351N00243262WA0101901019
B1658464241348N00243264WA0101901019
B1658474241345N00243269WA0101701017
B1658484241345N00243276WA0101601016
B1658494241346N00243284WA0101501015
B1658504241349N00243290WA0101601016
B1658514241353N00243298WA0101601016
B1658524241359N00243302WA0101501015
B1658534241367N00243303WA0101301013
B1658544241375N00243304WA0101101011
B1658554241382N00243305WA0100901009
B1658564241390N00243307WA0100801008
B1658574241397N00243307WA0100701007
B1658584241405N00243308WA0100501005
B1658594241412N00243308WA0100501005
B1659004241420N00243308WA0100501005
B1659014241427N00243307WA0100601006
B1659024241433N00243307WA0100601006
B1659034241440N00243305WA0100501005
B1659044241448N00243304WA0100401004
B1659054241456N00243302WA0100401004
B1659064241465N00243300WA0100601006
B1659074241473N00243298WA0100901009
B1659084241482N00243296WA0101101011
B1659094241490N00243294WA0101301013
B1659104241497N00243293WA0101401014
B1659114241505N00243291WA0101501015
B1659124241513N00243289WA0101501015
B1659134241522N00243288WA0101601016
B1659144241531N00243285WA0101601016
B1659154241539N00243283WA0101701017
B1659164241548N00243281WA0101801018
B1659174241557N00243281WA0101901019
B1659184241565N00243281WA0102001020
B1659194241573N00243282WA0102101021
B1659204241580N00243282WA0102201022
B1659214241588N00243283WA0102301023
B1659224241596N00243284WA0102401024
B1659234241604N00243284WA0102401024
B1659244241612N00243284WA0102401024
B1659254241621N00243283WA0102501025
B1659264241629N00243282WA0102601026
B1659274241638N00243281WA0102701027
B1659284241646N00243281WA0102701027
B1659294241655N00243281WA0102701027
B1659304241664N00243281WA0102601026
B1659314241674N00243281WA0102701027
B1659324241683N00243281WA0102801028
B1659334241691N00243281WA0102901029
B1659344241698N00243281WA0103001031
B1659354241705N00243281WA0103101031
B1659364241713N00243282WA0103101031
B1659374241720N00243283WA0103101031
B1659384241728N00243285WA0103101031
B1659394241736N00243286WA0103101032
B1659404241744N00243288WA0103201032
B1659414241751N00243289WA0103401034
B1659424241759N00243291WA0103401034
B1659434241766N00243293WA0103401034
B1659444241772N00243295WA0103401034
B1659454241779N00243298WA0103401034
B1659464241786N00243301WA0103301034
B1659474241792N00243304WA0103401034
B1659484241799N00243307WA0103501035
B1659494241805N00243309WA0103601036
B1659504241811N00243312WA0103601036
B1659514241818N00243315WA0103701037
B1659524241825N00243319WA0103701037
B1659534241832N00243321WA0103801038
B1659544241839N00243323WA0103901039
B1659554241847N00243324WA0104001040
B1659564241854N00243325WA0104001040
B1659574241861N00243326WA0104001040
B1659584241869N00243327WA0104001040
B1659594241877N00243326WA0104001040
B1700004241887N00243326WA0104001040
B1700014241896N00243324WA0104101041
B1700024241903N00243320WA0104101041
B1700034241911N00243314WA0104101041
B1700044241916N00243307WA0104001041
B1700054241922N00243300WA0104001040
B1700064241925N00243290WA0104001040
B1700074241928N00243282WA0104001040
B1700084241928N00243274WA0104001040
B1700094241929N00243266WA0104001040
B1700104241928N00243259WA0104001040
B1700114241926N00243254WA0104101041
B1700124241923N00243251WA0104101041
B1700134241919N00243250WA0104201042
B1700144241917N00243252WA0104201042
B1700154241917N00243254WA0104201042
B1700164241918N00243260WA0104101041
B1700174241921N00243265WA0104201042
B1700184241924N00243271WA0104201042
B1700194241929N00243276WA0104201042
B1700204241936N00243281WA0104301043
B1700214241944N00243282WA0104201042
B1700224241953N00243284WA0104201042
B1700234241961N00243283WA0104201042
B1700244241968N00243282WA0104201042
B1700254241975N00243279WA0104201042
B1700264241982N00243274WA0104101041
B1700274241989N00243269WA0104001041
B1700284241995N00243262WA0104001040
B1700294242000N00243253WA0104001040
B1700304242005N00243244WA0104001040
B1700314242007N00243237WA0104001040
B1700324242009N00243228WA0104001040
B1700334242009N00243220WA0104001040
B1700344242009N00243212WA0104001041
B1700354242007N00243208WA0104101041
B1700364242005N00243204WA0104201042
B1700374242000N00243202WA0104201042
B1700384241997N00243205WA0104201042
B1700394241995N00243209WA0104201042
B1700404241995N00243213WA0104201042
B1700414241998N00243219WA0104201042
B1700424242002N00243226WA0104201042
B1700434242007N00243231WA0104201042
B1700444242012N00243236WA0104101041
B1700454242019N00243239WA0104101041
B1700464242027N00243243WA0104201042
B1700474242036N00243244WA0104201042
B1700484242044N00243244WA0104201042
B1700494242052N00243243WA0104301043
B1700504242060N00243239WA0104301043
B1700514242066N00243235WA0104301043
B1700524242071N00243228WA0104301043
B1700534242077N00243221WA0104201042
B1700544242081N00243213WA0104101041
B1700554242084N00243204WA0104101041
B1700564242087N00243196WA0104101041
B1700574242088N00243188WA0104001040
B1700584242087N00243181WA0103901039
B1700594242086N00243174WA0103901039
B1701004242084N00243171WA0103801038
B1701014242081N00243169WA0103801038
B1701024242078N00243168WA0103901039
B1701034242075N00243171WA0103901039
B1701044242075N00243174WA0103901039
B1701054242077N00243179WA0103801038
B1701064242079N00243184WA0103801038
B1701074242082N00243189WA0103801038
B1701084242085N00243194WA0103801038
B1701094242091N00243200WA0103701037
B1701104242099N00243202WA0103701037
B1701114242107N00243203WA0103801038
B1701124242115N00243204WA0103801038
B1701134242123N00243202WA0103701037
B1701144242130N00243198WA0103701037
B1701154242137N00243193WA0103601036
B1701164242142N00243185WA0103501035
B1701174242146N00243179WA0103601036
B1701184242151N00243171WA0103501035
B1701194242155N00243163WA0103501035
B1701204242157N00243155WA0103401034
B1701214242158N00243146WA0103301033
B1701224242157N00243136WA0103301033
B1701234242154N00243128WA0103301033
B1701244242153N00243122WA0103301033
B1701254242150N00243119WA0103401034
B1701264242147N00243118WA0103401034
B1701274242146N00243119WA0103301033
B1701284242146N00243124WA0103301033
B1701294242147N00243127WA0103301033
B1701304242149N00243133WA0103301033
B1701314242150N00243139WA0103301033
B1701324242153N00243144WA0103301033
B1701334242156N00243149WA0103301034
B1701344242161N00243153WA0103301033
B1701354242168N00243156WA0103201032
B1701364242176N00243159WA0103201032
B1701374242184N00243162WA0103201032
B1701384242193N00243160WA0103201032
B1701394242201N00243159WA0103201032
B1701404242207N00243155WA0103201032
B1701414242213N00243148WA0103101031
B1701424242219N00243143WA0103001030
B1701434242224N00243132WA0103001030
B1701444242227N00243125WA0102901029
B1701454242229N00243117WA0102901029
B1701464242230N00243109WA0102801028
B1701474242230N00243101WA0102801028
B1701484242229N00243095WA0102901029
B1701494242228N00243091WA0102901029
B1701504242226N00243090WA0102801028
B1701514242224N00243090WA0102801028
B1701524242222N00243089WA0102701027
B1701534242219N00243089WA0102701027
B1701544242218N00243093WA0102701027
B1701554242218N00243094WA0102601026
B1701564242219N00243099WA0102701027
B1701574242223N00243107WA0102701027
B1701584242227N00243111WA0102701027
B1701594242232N00243116WA0102701027
B1702004242240N00243118WA0102601026
B1702014242248N00243120WA0102501025
B1702024242257N00243122WA0102501025
B1702034242266N00243124WA0102501025
B1702044242275N00243124WA0102601026
B1702054242282N00243119WA0102601026
B1702064242288N00243115WA0102601026
B1702074242294N00243109WA0102601026
B1702084242299N00243103WA0102501025
B1702094242302N00243093WA0102501025
B1702104242305N00243084WA0102401024
B1702114242306N00243076WA0102401024
B1702124242306N00243068WA0102301023
B1702134242304N00243064WA0102301023
B1702144242302N00243061WA0102301023
B1702154242299N00243059WA0102301023
B1702164242296N00243061WA0102301023
B1702174242294N00243062WA0102401024
B1702184242295N00243067WA0102401024
B1702194242299N00243071WA0102401024
B1702204242303N00243077WA0102401024
B1702214242308N00243081WA0102401023
B1702224242313N00243086WA0102301023
B1702234242321N00243090WA0102301023
B1702244242329N00243091WA0102301023
B1702254242337N00243091WA0102201022
B1702264242345N00243091WA0102201022
B1702274242352N00243088WA0102101021
B1702284242359N00243084WA0102101021
B1702294242365N00243077WA0102101021
B1702304242371N00243070WA0102001020
B1702314242375N00243062WA0101901019
B1702324242379N00243053WA0102001020
B1702334242381N00243044WA0102001020
B1702344242382N00243036WA0102001020
B1702354242382N00243029WA0102001020
B1702364242379N00243025WA0102001020
B1702374242375N00243023WA0102001020
B1702384242369N00243025WA0102001020
B1702394242368N00243029WA0102101021
B1702404242370N00243033WA0102101021
B1702414242375N00243038WA0102001020
B1702424242379N00243044WA0102001020
B1702434242385N00243048WA0102001020
B1702444242392N00243052WA0102001020
B1702454242401N00243052WA0101901019
B1702464242410N00243052WA0101801018
B1702474242418N00243048WA0101701017
B1702484242424N00243041WA0101801018
B1702494242429N00243034WA0101801018
B1702504242433N00243027WA0101801018
B1702514242435N00243019WA0101701017
B1702524242436N00243010WA0101601016
B1702534242435N00243002WA0101601016
B1702544242431N00242998WA0101601016
B1702554242428N00243000WA0101601016
B1702564242427N00243002WA0101601016
B1702574242426N00243005WA0101501015
B1702584242427N00243007WA0101501015
B1702594242429N00243012WA0101501015
B1703004242433N00243018WA0101501015
B1703014242439N00243023WA0101501015
B1703024242446N00243027WA0101401014
B1703034242456N00243030WA0101401014
B1703044242464N00243029WA0101401014
B1703054242473N00243027WA0101301013
B1703064242479N00243022WA0101301013
B1703074242485N00243014WA0101301013
B1703084242490N00243006WA0101201012
B1703094242494N00242998WA0101201012
B1703104242496N00242990WA0101201012
B1703114242495N00242983WA0101101011
B1703124242493N00242976WA0100901009
B1703134242489N00242971WA0100901009
B1703144242484N00242971WA0100801008
B1703154242483N00242975WA0100801008
B1703164242484N00242979WA0100801007
B1703174242486N00242986WA0100801008
B1703184242490N00242992WA0100801008
B1703194242496N00242998WA0100801008
B1703204242503N00243001WA0100801008
B1703214242512N00243003WA0100601006
B1703224242520N00243002WA0100501005
B1703234242529N00242998WA0100401004
B1703244242536N00242990WA0100301003
B1703254242542N00242980WA0100301003
B1703264242545N00242970WA0100301003
B1703274242547N00242961WA0100301003
B1703284242546N00242953WA0100301002
B1703294242544N00242948WA0100201002
B1703304242542N00242943WA0100301003
B1703314242540N00242941WA0100301003
B1703324242538N00242939WA0100301003
B1703334242536N00242938WA0100101001
B1703344242533N00242937WA0100001000
B1703354242530N00242938WA0099900999
B1703364242526N00242941WA0099900999
B1703374242525N00242943WA0099900999
B1703384242525N00242945WA0100001000
B1703394242526N00242949WA0100001000
B1703404242528N00242954WA0100001000
B1703414242530N00242958WA0100001000
B1703424242534N00242963WA0099900999
B1703434242539N00242968WA0099900999
B1703444242546N00242971WA0099900999
B1703454242553N00242972WA0099900999
B1703464242561N00242972WA0099800998
B1703474242568N00242969WA0099800998
B1703484242574N00242964WA0099800998
B1703494242579N00242958WA0099700997
B1703504242583N00242950WA0099700997
B1703514242585N00242942WA0099600996
B1703524242588N00242933WA0099600996
B1703534242589N00242925WA0099400994
B1703544242590N00242917WA0099400994
B1703554242588N00242913WA0099300993
B1703564242582N00242912WA0099200992
B1703574242581N00242913WA0099200992
B1703584242582N00242915WA0099200992
B1703594242584N00242919WA0099200992
B1704004242588N00242923WA0099200992
B1704014242592N00242927WA0099100991
B1704024242596N00242930WA0098900989
B1704034242602N00242935WA0098900989
B1704044242608N00242938WA0098800988
B1704054242616N00242941WA0098800988
B1704064242624N00242943WA0098800988
B1704074242633N00242941WA0098700987
B1704084242640N00242935WA0098500985
B1704094242646N00242927WA0098400984
B1704104242650N00242919WA0098300983
B1704114242654N00242910WA0098200982
B1704124242655N00242902WA0098100981
B1704134242653N00242898WA0098000980
B1704144242650N00242892WA0098000980
B1704154242644N00242894WA0098000980
B1704164242644N00242894WA0098000980
B1704174242645N00242898WA0097900979
B1704184242648N00242902WA0097800978
B1704194242653N00242907WA0097700977
B1704204242658N00242912WA0097700977
B1704214242663N00242917WA0097600976
B1704224242670N00242920WA0097600976
B1704234242677N00242920WA0097500975
B1704244242685N00242919WA0097400974
B1704254242691N00242915WA0097300973
B1704264242697N00242910WA0097300973
B1704274242702N00242903WA0097200972
B1704284242706N00242895WA0097000970
B1704294242708N00242886WA0096700967
B1704304242708N00242880WA0096500965
B1704314242704N00242875WA0096300963
B1704324242699N00242873WA0096200962
B1704334242695N00242873WA0096200962
B1704344242695N00242875WA0096200962
B1704354242696N00242879WA0096200962
B1704364242699N00242884WA0096100961
B1704374242705N00242888WA0096100961
B1704384242711N00242891WA0096100961
B1704394242718N00242893WA0096100961
B1704404242726N00242893WA0096100961
B1704414242734N00242891WA0096100961
B1704424242742N00242891WA0096000960
B1704434242748N00242883WA0096100961
B1704444242754N00242875WA0095700957
B1704454242757N00242864WA0095300953
B1704464242758N00242854WA0095100951
B1704474242757N00242847WA0095000950
B1704484242755N00242846WA0095000950
B1704494242755N00242846WA0094900949
B1704504242755N00242848WA0094800948
B1704514242756N00242853WA0094800948
B1704524242759N00242857WA0094800948
B1704534242763N00242861WA0094700947
B1704544242769N00242863WA0094600946
B1704554242777N00242863WA0094500945
B1704564242784N00242862WA0094500945
B1704574242792N00242862WA0094400944
B1704584242800N00242858WA0094400944
B1704594242809N00242853WA0094300943
B1705004242816N00242843WA0094100940
B1705014242822N00242834WA0093900939
B1705024242824N00242824WA0093900939
B1705034242823N00242814WA0093800938
B1705044242821N00242808WA0093500935
B1705054242818N00242805WA0093300933
B1705064242814N00242805WA0093100931
B1705074242811N00242807WA0093000930
B1705084242810N00242812WA0093000930
B1705094242811N00242818WA0092800928
B1705104242813N00242825WA0092700927
B1705114242817N00242829WA0092700927
B1705124242824N00242834WA0092700926
B1705134242831N00242834WA0092600925
B1705144242839N00242832WA0092400924
B1705154242847N00242828WA0092400924
B1705164242855N00242820WA0092300923
B1705174242859N00242810WA0092200922
B1705184242862N00242800WA0092100921
B1705194242863N00242789WA0092100921
B1705204242859N00242779WA0092000920
B1705214242856N00242779WA0091900918
B1705224242851N00242780WA0091700917
B1705234242849N00242784WA0091500915
B1705244242851N00242792WA0091500915
B1705254242853N00242797WA0091400914
B1705264242856N00242803WA0091200912
B1705274242862N00242805WA0091000910
B1705284242868N00242806WA0090800907
B1705294242877N00242804WA0090600906
B1705304242886N00242796WA0090600906
B1705314242894N00242785WA0090400904
B1705324242897N00242773WA0090300903
B1705334242897N00242767WA0090400904
B1705344242895N00242762WA0090400904
B1705354242891N00242762WA0090300903
B1705364242887N00242765WA0090000900
B1705374242886N00242765WA0089800898
B1705384242885N00242769WA0089500895
B1705394242884N00242774WA0089300893
B1705404242884N00242779WA0089000890
B1705414242886N00242787WA0088800888
B1705424242888N00242795WA0088700887
B1705434242893N00242800WA0088700887
B1705444242900N00242803WA0088700887
B1705454242908N00242806WA0088700887
B1705464242915N00242804WA0088700887
B1705474242922N00242800WA0088600886
B1705484242928N00242792WA0088600886
B1705494242931N00242782WA0088500885
B1705504242933N00242772WA0088300883
B1705514242931N00242765WA0088000880
B1705524242928N00242759WA0087800878
B1705534242922N00242758WA0087700877
B1705544242920N00242761WA0087600876
B1705554242921N00242766WA0087400874
B1705564242923N00242772WA0087300873
B1705574242925N00242778WA0087200872
B1705584242929N00242784WA0087200872
B1705594242935N00242787WA0087200872
B1706004242944N00242787WA0087100871
B1706014242952N00242781WA0087000870
B1706024242957N00242775WA0086900869
B1706034242958N00242766WA0086800868
B1706044242959N00242756WA0086500865
B1706054242957N00242746WA0086300863
B1706064242954N00242740WA0086200862
B1706074242950N00242740WA0086100861
B1706084242950N00242743WA0085900859
B1706094242950N00242747WA0085900859
B1706104242952N00242753WA0085700857
B1706114242954N00242759WA0085500855
B1706124242958N00242765WA0085300853
B1706134242964N00242769WA0085200852
B1706144242970N00242772WA0085200852
B1706154242979N00242770WA0085100851
B1706164242987N00242765WA0084900849
B1706174242994N00242758WA0084800848
B1706184242998N00242748WA0084600846
B1706194243000N00242737WA0084500845
B1706204243000N00242727WA0084400844
B1706214242998N00242720WA0084300843
B1706224242993N00242721WA0084100841
B1706234242989N00242723WA0084000840
B1706244242987N00242725WA0083900839
B1706254242988N00242730WA0083900839
B1706264242990N00242737WA0083800838
B1706274242993N00242744WA0083700837
B1706284242998N00242747WA0083500835
B1706294243004N00242750WA0083300833
B1706304243012N00242749WA0083100831
B1706314243020N00242747WA0083100831
B1706324243027N00242742WA0083100831
B1706334243032N00242736WA0083000830
B1706344243036N00242729WA0082900829
B1706354243038N00242721WA0082800828
B1706364243038N00242715WA0082700827
B1706374243036N00242710WA0082600826
B1706384243034N00242710WA0082500825
B1706394243031N00242715WA0082400824
B1706404243031N00242718WA0082400824
B1706414243033N00242724WA0082300823
B1706424243038N00242729WA0082200822
B1706434243042N00242734WA0082000820
B1706444243048N00242737WA0081900819
B1706454243054N00242736WA0081700817
B1706464243061N00242732WA0081500815
B1706474243068N00242727WA0081400814
B1706484243072N00242717WA0081200812
B1706494243075N00242709WA0081000810
B1706504243077N00242703WA0080900809
B1706514243074N00242701WA0080900809
B1706524243072N00242705WA0080800808
B1706534243073N00242707WA0080700807
B1706544243073N00242715WA0080500805
B1706554243076N00242721WA0080300803
B1706564243081N00242728WA0080200802
B1706574243090N00242732WA0080200802
B1706584243099N00242734WA0080100801
B1706594243107N00242729WA0080000800
B1707004243114N00242724WA0079900799
B1707014243118N00242716WA0079800798
B1707024243118N00242707WA0079600796
B1707034243117N00242702WA0079500795
B1707044243113N00242699WA0079400794
B1707054243110N00242700WA0079400794
B1707064243109N00242703WA0079300793
B1707074243111N00242708WA0079100791
B1707084243115N00242715WA0078900789
B1707094243120N00242721WA0078800788
B1707104243126N00242727WA0078800788
B1707114243133N00242730WA0078700787
B1707124243140N00242735WA0078600786
B1707134243147N00242739WA0078500785
B1707144243155N00242743WA0078500785
B1707154243163N00242747WA0078500785
B1707164243170N00242751WA0078500785
B1707174243178N00242754WA0078600786
B1707184243184N00242758WA0078700787
B1707194243191N00242761WA0078700787
B1707204243196N00242765WA0078700787
B1707214243202N00242769WA0078600786
B1707224243209N00242774WA0078600786
B1707234243216N00242778WA0078600786
B1707244243221N00242784WA0078700787
B1707254243227N00242787WA0078700787
B1707264243234N00242791WA0078800788
B1707274243242N00242794WA0078900789
B1707284243248N00242796WA0079000790
B1707294243255N00242797WA0079200792
B1707304243263N00242798WA0079300793
B1707314243271N00242798WA0079300793
B1707324243279N00242797WA0079300793
B1707334243287N00242796WA0079300793
B1707344243296N00242794WA0079400794
B1707354243303N00242793WA0079400794
B1707364243312N00242791WA0079400794
B1707374243320N00242786WA0079400794
B1707384243328N00242784WA0079500795
B1707394243335N00242779WA0079600796
B1707404243343N00242773WA0079600796
B1707414243347N00242766WA0079600796
B1707424243352N00242759WA0079600796
B1707434243355N00242748WA0079700797
B1707444243358N00242740WA0079700797
B1707454243358N00242732WA0079700797
B1707464243354N00242727WA0079600796
B1707474243350N00242723WA0079700797
B1707484243347N00242722WA0079700797
B1707494243345N00242723WA0079800798
B1707504243345N00242725WA0079800798
B1707514243345N00242728WA0079700797
B1707524243345N00242732WA0079600796
B1707534243347N00242736WA0079600796
B1707544243349N00242741WA0079600796
B1707554243352N00242744WA0079700797
B1707564243357N00242746WA0079700797
B1707574243362N00242747WA0079700797
B1707584243368N00242749WA0079700797
B1707594243374N00242753WA0079500795
B1708004243381N00242756WA0079400794
B1708014243388N00242759WA0079300793
B1708024243395N00242762WA0079300793
B1708034243402N00242766WA0079300793
B1708044243410N00242770WA0079300793
B1708054243419N00242774WA0079300793
B1708064243426N00242778WA0079300793
B1708074243434N00242781WA0079500795
B1708084243441N00242785WA0079700797
B1708094243449N00242791WA0079900799
B1708104243457N00242794WA0079800798
B1708114243465N00242799WA0079900799
B1708124243473N00242804WA0079800798
B1708134243480N00242809WA0080100801
B1708144243488N00242813WA0080500805
B1708154243495N00242817WA0080800808
B1708164243503N00242822WA0081000810
B1708174243511N00242825WA0081200812
B1708184243520N00242829WA0081200812
B1708194243528N00242834WA0081200812
B1708204243536N00242837WA0081300813
B1708214243544N00242841WA0081500815
B1708224243551N00242843WA0081800818
B1708234243558N00242845WA0082200822
B1708244243565N00242847WA0082600826
B1708254243573N00242849WA0082900829
B1708264243581N00242853WA0083000830
B1708274243590N00242854WA0083200832
B1708284243599N00242856WA0083500835
B1708294243610N00242857WA0083800838
B1708304243618N00242854WA0084100841
B1708314243624N00242847WA0084400844
B1708324243629N00242839WA0084600846
B1708334243633N00242831WA0084800848
B1708344243636N00242823WA0085100851
B1708354243639N00242813WA0085400854
B1708364243642N00242806WA0085700857
B1708374243644N00242798WA0085900859
B1708384243646N00242791WA0086100861
B1708394243648N00242784WA0086200862
B1708404243650N00242774WA0086400864
B1708414243653N00242766WA0086700867
B1708424243655N00242758WA0087000870
B1708434243658N00242749WA0087200872
B1708444243661N00242742WA0087300873
B1708454243663N00242734WA0087400874
B1708464243665N00242727WA0087400874
B1708474243667N00242719WA0087400874
B1708484243669N00242711WA0087500875
B1708494243670N00242701WA0087600876
B1708504243672N00242692WA0087900879
B1708514243673N00242684WA0088100881
B1708524243674N00242677WA0088300883
B1708534243675N00242668WA0088300883
B1708544243676N00242660WA0088400884
B1708554243676N00242652WA0088500885
B1708564243677N00242643WA0088600886
B1708574243677N00242635WA0088700887
B1708584243677N00242627WA0088800888
B1708594243677N00242617WA0088800888
B1709004243676N00242608WA0089000890
B1709014243676N00242600WA0089200892
B1709024243675N00242593WA0089300893
B1709034243675N00242586WA0089400894
B1709044243675N00242580WA0089500895
B1709054243676N00242573WA0089500895
B1709064243675N00242565WA0089600896
B1709074243674N00242559WA0089600896
B1709084243670N00242555WA0089500896
B1709094243667N00242552WA0089600897
B1709104243665N00242549WA0089800898
B1709114243664N00242545WA0089900900
B1709124243664N00242540WA0090100901
B1709134243664N00242533WA0090000901
B1709144243665N00242526WA0090000900
B1709154243666N00242520WA0090000900
B1709164243667N00242511WA0090200902
B1709174243668N00242503WA0090600906
B1709184243669N00242496WA0090900909
B1709194243669N00242489WA0091100911
B1709204243670N00242482WA0091300913
B1709214243671N00242475WA0091300913
B1709224243671N00242470WA0091400914
B1709234243672N00242461WA0091500915
B1709244243673N00242451WA0091600916
B1709254243674N00242444WA0091700917
B1709264243675N00242436WA0091800918
B1709274243677N00242429WA0091800918
B1709284243678N00242421WA0091900919
B1709294243679N00242413WA0091800918
B1709304243681N00242406WA0091800918
B1709314243683N00242397WA0091800918
B1709324243686N00242388WA0091900919
B1709334243689N00242379WA0091900919
B1709344243690N00242373WA0092000920
B1709354243694N00242363WA0092000920
B1709364243697N00242353WA0092100921
B1709374243700N00242344WA0092200922
B1709384243703N00242333WA0092400924
B1709394243707N00242325WA0092600926
B1709404243710N00242318WA0092600926
B1709414243715N00242309WA0092600926
B1709424243719N00242300WA0092600926
B1709434243724N00242291WA0092600926
B1709444243729N00242282WA0092600926
B1709454243734N00242273WA0092700927
B1709464243740N00242264WA0092700927
B1709474243747N00242256WA0092800928
B1709484243753N00242245WA0093000930
B1709494243760N00242237WA0093100931
B1709504243766N00242227WA0093300933
B1709514243773N00242219WA0093400934
B1709524243780N00242211WA0093500935
B1709534243788N00242202WA0093500935
B1709544243795N00242195WA0093500935
B1709554243803N00242188WA0093700937
B1709564243810N00242182WA0093800938
B1709574243817N00242175WA0094000940
B1709584243825N00242169WA0094000940
B1709594243832N00242163WA0094000940
B1710004243840N00242157WA0094000940
B1710014243849N00242154WA0094100941
B1710024243858N00242151WA0094100941
B1710034243867N00242149WA0094200942
B1710044243876N00242149WA0094300943
B1710054243884N00242147WA0094500945
B1710064243892N00242146WA0094700947
B1710074243900N00242146WA0094800948
B1710084243908N00242146WA0094800948
B1710094243916N00242146WA0094800948
B1710104243924N00242147WA0094700947
B1710114243932N00242149WA0094800948
B1710124243940N00242151WA0094800948
B1710134243947N00242154WA0094800948
B1710144243954N00242156WA0094900949
B1710154243959N00242161WA0094900949
B1710164243964N00242164WA0094900949
B1710174243968N00242168WA0094900949
B1710184243973N00242172WA0095000950
B1710194243979N00242175WA0095100951
B1710204243983N00242178WA0095100951
B1710214243987N00242181WA0095100951
B1710224243989N00242184WA0095100951
B1710234243991N00242187WA0095100951
B1710244243989N00242193WA0095100951
B1710254243989N00242193WA0095000950
B1710264243989N00242193WA0095000950
B1710274243989N00242193WA0095000950
B1710284243988N00242192WA0095100951
B1710294243988N00242188WA0095200952
B1710304243988N00242183WA0095200952
B1710314243988N00242175WA0095300953
B1710324243989N00242168WA0095400954
B1710334243992N00242159WA0095400954
B1710344243998N00242150WA0095400954
B1710354244004N00242142WA0095300953
B1710364244012N00242131WA0095300953
B1710374244021N00242126WA0095300953
B1710384244030N00242124WA0095300953
B1710394244039N00242124WA0095300953
B1710404244048N00242124WA0095400954
B1710414244056N00242125WA0095400954
B1710424244065N00242125WA0095400954
B1710434244073N00242126WA0095300953
B1710444244081N00242128WA0095200952
B1710454244090N00242131WA0095200952
B1710464244097N00242135WA0095300953
B1710474244101N00242140WA0095300953
B1710484244104N00242145WA0095300953
B1710494244106N00242150WA0095300953
B1710504244105N00242157WA0095300953
B1710514244105N00242157WA0095300953
B1710524244105N00242156WA0095200952
B1710534244105N00242153WA0095200952
B1710544244105N00242149WA0095300953
B1710554244107N00242142WA0095300953
B1710564244109N00242133WA0095300953
B1710574244112N00242127WA0095200952
B1710584244116N00242119WA0095200952
B1710594244121N00242111WA0095100951
B1711004244126N00242101WA0095100951
B1711014244132N00242092WA0095000950
B1711024244139N00242081WA0095000950
B1711034244145N00242073WA0095100951
B1711044244151N00242064WA0095200952
B1711054244157N00242056WA0095200952
B1711064244163N00242049WA0095200952
B1711074244168N00242042WA0095200952
B1711084244174N00242033WA0095100951
B1711094244180N00242024WA0095100951
B1711104244184N00242016WA0095100951
B1711114244190N00242005WA0095200952
B1711124244196N00241995WA0095200952
B1711134244202N00241987WA0095300953
B1711144244209N00241979WA0095300953
B1711154244216N00241971WA0095400954
B1711164244224N00241963WA0095500955
B1711174244232N00241957WA0095600956
B1711184244241N00241952WA0095700957
B1711194244251N00241948WA0095900959
B1711204244259N00241945WA0096200962
B1711214244268N00241945WA0096400964
B1711224244277N00241947WA0096500965
B1711234244284N00241948WA0096500965
B1711244244292N00241950WA0096700967
B1711254244299N00241952WA0096800968
B1711264244305N00241956WA0096900969
B1711274244310N00241960WA0096900969
B1711284244314N00241966WA0096900969
B1711294244317N00241973WA0096900969
B1711304244319N00241977WA0096900969
B1711314244318N00241980WA0097000970
B1711324244318N00241983WA0097000970
B1711334244316N00241985WA0097000970
B1711344244314N00241987WA0097000970
B1711354244314N00241987WA0097000970
B1711364244314N00241986WA0096900969
B1711374244313N00241981WA0096800968
B1711384244314N00241974WA0096700967
B1711394244314N00241966WA0096700967
B1711404244317N00241956WA0096800967
B1711414244322N00241947WA0096800968
B1711424244330N00241940WA0096700967
B1711434244338N00241935WA0096800968
B1711444244345N00241928WA0096800968
B1711454244354N00241928WA0096900969
B1711464244362N00241928WA0096900969
B1711474244369N00241931WA0096900969
B1711484244376N00241935WA0096900969
B1711494244382N00241937WA0096900969
B1711504244387N00241942WA0096800968
B1711514244392N00241947WA0096700967
B1711524244394N00241954WA0096600966
B1711534244396N00241961WA0096500965
B1711544244398N00241967WA0096600965
B1711554244400N00241973WA0096500965
B1711564244399N00241975WA0096500965
B1711574244397N00241978WA0096400964
B1711584244395N00241979WA0096300963
B1711594244394N00241977WA0096300963
B1712004244394N00241971WA0096300963
B1712014244395N00241966WA0096500964
B1712024244398N00241956WA0096500965
B1712034244403N00241947WA0096600966
B1712044244411N00241939WA0096600966
B1712054244420N00241935WA0096700967
B1712064244429N00241932WA0096700967
B1712074244438N00241935WA0096700967
B1712084244445N00241938WA0096600966
B1712094244452N00241945WA0096600966
B1712104244457N00241952WA0096600966
B1712114244461N00241959WA0096500965
B1712124244462N00241967WA0096400964
B1712134244461N00241971WA0096400964
B1712144244460N00241969WA0096400964
B1712154244460N00241966WA0096400963
B1712164244460N00241961WA0096300963
B1712174244460N00241954WA0096300963
B1712184244462N00241947WA0096300963
B1712194244467N00241938WA0096300963
B1712204244473N00241929WA0096300963
B1712214244479N00241922WA0096200962
B1712224244487N00241917WA0096300963
B1712234244496N00241918WA0096300962
B1712244244502N00241920WA0096300962
B1712254244509N00241923WA0096200962
B1712264244515N00241930WA0096100961
B1712274244520N00241937WA0096100961
B1712284244522N00241944WA0096000960
B1712294244523N00241949WA0096000960
B1712304244523N00241949WA0096000960
B1712314244522N00241947WA0096000960
B1712324244523N00241942WA0096000960
B1712334244524N00241933WA0095900959
B1712344244528N00241926WA0095900959
B1712354244532N00241918WA0095800958
B1712364244538N00241909WA0095800958
B1712374244545N00241902WA0095700957
B1712384244552N00241895WA0095700957
B1712394244560N00241894WA0095800957
B1712404244568N00241897WA0095700957
B1712414244576N00241901WA0095700957
B1712424244582N00241909WA0095700956
B1712434244587N00241916WA0095600956
B1712444244591N00241921WA0095500955
B1712454244590N00241925WA0095400954
B1712464244590N00241925WA0095400954
B1712474244590N00241925WA0095400954
B1712484244589N00241922WA0095400954
B1712494244588N00241921WA0095300953
B1712504244586N00241917WA0095300953
B1712514244587N00241910WA0095200952
B1712524244588N00241904WA0095100951
B1712534244590N00241894WA0095100951
B1712544244594N00241886WA0095100951
B1712554244598N00241878WA0095100951
B1712564244605N00241871WA0095200952
B1712574244612N00241867WA0095100951
B1712584244620N00241866WA0095200952
B1712594244626N00241864WA0095300952
B1713004244633N00241866WA0095300952
B1713014244639N00241872WA0095100951
B1713024244644N00241878WA0094900949
B1713034244648N00241885WA0094900948
B1713044244649N00241888WA0094900949
B1713054244650N00241891WA0094900949
B1713064244650N00241891WA0094900949
B1713074244648N00241890WA0094800948
B1713084244649N00241885WA0094800948
B1713094244649N00241878WA0094700947
B1713104244653N00241868WA0094700947
B1713114244657N00241859WA0094800948
B1713124244663N00241852WA0094800948
B1713134244670N00241845WA0094800948
B1713144244679N00241841WA0094700947
B1713154244687N00241840WA0094600946
B1713164244696N00241840WA0094600946
B1713174244703N00241842WA0094600946
B1713184244711N00241847WA0094500945
B1713194244718N00241853WA0094400944
B1713204244722N00241859WA0094400943
B1713214244725N00241866WA0094300943
B1713224244727N00241873WA0094300942
B1713234244725N00241873WA0094200942
B1713244244724N00241872WA0094300943
B1713254244724N00241866WA0094300943
B1713264244725N00241859WA0094300943
B1713274244728N00241851WA0094200942
B1713284244732N00241842WA0094200942
B1713294244737N00241833WA0094000940
B1713304244744N00241824WA0094000940
B1713314244752N00241821WA0093900939
B1713324244761N00241816WA0094000940
B1713334244770N00241817WA0094000940
B1713344244778N00241818WA0094000940
B1713354244785N00241822WA0093900939
B1713364244792N00241828WA0093800938
B1713374244799N00241832WA0093800938
B1713384244805N00241838WA0093800938
B1713394244810N00241844WA0093800938
B1713404244813N00241850WA0093800938
B1713414244814N00241855WA0093700937
B1713424244813N00241859WA0093700937
B1713434244809N00241861WA0093700937
B1713444244804N00241860WA0093800938
B1713454244802N00241859WA0093900939
B1713464244803N00241852WA0094000940
B1713474244803N00241845WA0094000940
B1713484244806N00241835WA0093900939
B1713494244809N00241824WA0094000940
B1713504244815N00241814WA0094000939
B1713514244821N00241807WA0093800938
B1713524244829N00241803WA0093600936
B1713534244837N00241798WA0093500935
B1713544244845N00241797WA0093500935
B1713554244852N00241796WA0093500935
B1713564244859N00241799WA0093500935
B1713574244864N00241803WA0093400934
B1713584244870N00241809WA0093400934
B1713594244877N00241812WA0093300933
B1714004244883N00241818WA0093300933
B1714014244885N00241828WA0093200932
B1714024244886N00241834WA0093100930
B1714034244886N00241840WA0093100931
B1714044244886N00241840WA0093400934
B1714054244885N00241840WA0093600936
B1714064244885N00241836WA0093800937
B1714074244885N00241831WA0093800938
B1714084244885N00241826WA0093900939
B1714094244885N00241821WA0093900939
B1714104244885N00241816WA0093800938
B1714114244885N00241809WA0093700937
B1714124244883N00241802WA0093600936
B1714134244885N00241791WA0093500935
B1714144244890N00241781WA0093500935
B1714154244895N00241772WA0093400934
B1714164244903N00241763WA0093500935
B1714174244911N00241756WA0093500935
B1714184244920N00241753WA0093500935
B1714194244928N00241753WA0093500935
B1714204244935N00241755WA0093500935
B1714214244942N00241759WA0093400934
B1714224244947N00241765WA0093400934
B1714234244952N00241772WA0093400934
B1714244244953N00241778WA0093500935
B1714254244954N00241783WA0093500935
B1714264244954N00241785WA0093500935
B1714274244953N00241785WA0093400934
B1714284244952N00241782WA0093400934
B1714294244951N00241778WA0093300933
B1714304244951N00241771WA0093200932
B1714314244954N00241760WA0093100931
B1714324244958N00241752WA0093100931
B1714334244963N00241741WA0093100931
B1714344244970N00241734WA0093200932
B1714354244978N00241728WA0093200932
B1714364244987N00241727WA0093200932
B1714374244995N00241729WA0093000930
B1714384245003N00241733WA0092900929
B1714394245010N00241737WA0092900929
B1714404245017N00241741WA0093000930
B1714414245023N00241748WA0092800928
B1714424245025N00241754WA0092700927
B1714434245026N00241760WA0092600926
B1714444245027N00241765WA0092800928
B1714454245025N00241771WA0093000930
B1714464245025N00241771WA0093100931
B1714474245024N00241771WA0093100931
B1714484245023N00241766WA0093200932
B1714494245022N00241760WA0093200932
B1714504245021N00241755WA0093100931
B1714514245021N00241747WA0093100931
B1714524245024N00241738WA0093100931
B1714534245029N00241728WA0093100931
B1714544245034N00241721WA0093000930
B1714554245042N00241716WA0092900929
B1714564245050N00241714WA0092900929
B1714574245058N00241714WA0092800928
B1714584245066N00241716WA0092700927
B1714594245072N00241722WA0092600926
B1715004245077N00241729WA0092500925
B1715014245080N00241736WA0092500925
B1715024245081N00241741WA0092600926
B1715034245081N00241748WA0092700927
B1715044245080N00241752WA0092700927
B1715054245078N00241754WA0092800928
B1715064245078N00241752WA0092700927
B1715074245078N00241743WA0092600926
B1715084245078N00241734WA0092500925
B1715094245082N00241725WA0092500925
B1715104245086N00241716WA0092500925
B1715114245092N00241708WA0092500925
B1715124245098N00241702WA0092400924
B1715134245104N00241696WA0092400924
B1715144245111N00241695WA0092400924
B1715154245119N00241695WA0092300923
B1715164245126N00241696WA0092100921
B1715174245133N00241699WA0092000920
B1715184245140N00241703WA0091900919
B1715194245147N00241706WA0091800918
B1715204245155N00241709WA0091800918
B1715214245162N00241714WA0091700917
B1715224245169N00241716WA0091700917
B1715234245176N00241719WA0091700917
B1715244245182N00241724WA0091800918
B1715254245189N00241727WA0091900919
B1715264245196N00241733WA0092100921
B1715274245203N00241736WA0092100921
B1715284245209N00241741WA0092300923
B1715294245215N00241745WA0092500925
B1715304245220N00241750WA0092700927
B1715314245227N00241752WA0092900929
B1715324245233N00241755WA0092900929
B1715334245240N00241759WA0092900929
B1715344245248N00241760WA0093000930
B1715354245257N00241761WA0093100931
B1715364245265N00241762WA0093200932
B1715374245273N00241764WA0093400934
B1715384245282N00241765WA0093600936
B1715394245291N00241766WA0093800938
B1715404245300N00241767WA0094000940
B1715414245309N00241768WA0094200942
B1715424245317N00241771WA0094300943
B1715434245325N00241771WA0094400944
B1715444245334N00241773WA0094700947
B1715454245342N00241774WA0094900949
B1715464245351N00241776WA0095200952
B1715474245359N00241778WA0095400954
B1715484245368N00241779WA0095600956
B1715494245377N00241781WA0095600956
B1715504245385N00241783WA0095700957
B1715514245395N00241784WA0095900959
B1715524245403N00241785WA0096200962
B1715534245412N00241786WA0096400964
B1715544245419N00241786WA0096500965
B1715554245426N00241787WA0096600966
B1715564245435N00241787WA0096800968
B1715574245444N00241787WA0097000970
B1715584245452N00241787WA0097300973
B1715594245461N00241787WA0097400974
B1716004245470N00241787WA0097500975
B1716014245479N00241787WA0097700977
B1716024245487N00241787WA0098000980
B1716034245496N00241787WA0098300983
B1716044245505N00241787WA0098600986
B1716054245514N00241787WA0098800988
B1716064245523N00241788WA0098900989
B1716074245533N00241790WA0099000990
B1716084245542N00241790WA0099000990
B1716094245551N00241790WA0099100991
B1716104245560N00241790WA0099200992
B1716114245569N00241790WA0099300993
B1716124245577N00241791WA0099400994
B1716134245587N00241791WA0099500995
B1716144245595N00241792WA0099600996
B1716154245604N00241792WA0099700997
B1716164245613N00241792WA0099900999
B1716174245621N00241792WA0100101001
B1716184245631N00241791WA0100301003
B1716194245640N00241790WA0100401004
B1716204245650N00241787WA0100601006
B1716214245659N00241787WA0100901009
B1716224245667N00241788WA0101201012
B1716234245676N00241787WA0101401014
B1716244245685N00241787WA0101601016
B1716254245694N00241785WA0101701017
B1716264245703N00241783WA0101801018
B1716274245712N00241784WA0102001020
B1716284245721N00241781WA0102401024
B1716294245730N00241780WA0102701027
B1716304245738N00241779WA0102901029
B1716314245747N00241778WA0103101031
B1716324245755N00241779WA0103201032
B1716334245765N00241778WA0103201032
B1716344245774N00241774WA0103401034
B1716354245782N00241773WA0103701037
B1716364245791N00241771WA0104001040
B1716374245800N00241768WA0104301043
B1716384245808N00241766WA0104601046
B1716394245817N00241765WA0104801048
B1716404245825N00241764WA0104901049
B1716414245834N00241762WA0105001050
B1716424245844N00241760WA0105301053
B1716434245853N00241759WA0105801058
B1716444245862N00241756WA0106101061
B1716454245870N00241755WA0106401064
B1716464245878N00241753WA0106501065
B1716474245887N00241752WA0106701067
B1716484245896N00241749WA0107101071
B1716494245905N00241746WA0107401074
B1716504245914N00241744WA0107801078
B1716514245922N00241742WA0108001080
B1716524245929N00241741WA0108101081
B1716534245938N00241738WA0108101081
B1716544245947N00241735WA0108201082
B1716554245956N00241733WA0108601086
B1716564245965N00241729WA0109001090
B1716574245973N00241726WA0109201092
B1716584245981N00241722WA0109401094
B1716594245989N00241719WA0109301093
B1717004245998N00241715WA0109301093
B1717014246007N00241712WA0109501095
B1717024246016N00241709WA0109701097
B1717034246025N00241706WA0109901099
B1717044246034N00241702WA0110101101
B1717054246043N00241699WA0110301103
B1717064246052N00241695WA0110301103
B1717074246061N00241692WA0110401104
B1717084246070N00241689WA0110601106
B1717094246080N00241686WA0110901109
B1717104246089N00241683WA0111101111
B1717114246097N00241679WA0111401114
B1717124246105N00241676WA0111501115
B1717134246114N00241673WA0111701117
B1717144246124N00241669WA0112001120
B1717154246133N00241666WA0112201122
B1717164246142N00241661WA0112501125
B1717174246151N00241656WA0112901129
B1717184246161N00241652WA0113301133
B1717194246170N00241647WA0113601136
B1717204246178N00241643WA0113901139
B1717214246187N00241639WA0114201142
B1717224246196N00241634WA0114501145
B1717234246204N00241631WA0114701147
B1717244246214N00241628WA0114901149
B1717254246223N00241626WA0115001150
B1717264246233N00241622WA0115001150
B1717274246242N00241618WA0115301153
B1717284246250N00241614WA0115701157
B1717294246259N00241610WA0116001160
B1717304246268N00241607WA0116301163
B1717314246277N00241603WA0116401164
B1717324246286N00241599WA0116501165
B1717334246296N00241595WA0116601166
B1717344246305N00241590WA0116901169
B1717354246314N00241586WA0117301173
B1717364246323N00241583WA0117501175
B1717374246331N00241580WA0117801178
B1717384246341N00241576WA0118001180
B1717394246350N00241571WA0118201182
B1717404246360N00241567WA0118501185
B1717414246369N00241562WA0118801188
B1717424246378N00241558WA0119001190
B1717434246387N00241553WA0119401194
B1717444246396N00241549WA0119701197
B1717454246405N00241545WA0119901199
B1717464246414N00241540WA0120101201
B1717474246423N00241535WA0120301203
B1717484246432N00241531WA0120401204
B1717494246441N00241527WA0120601206
B1717504246450N00241524WA0120701207
B1717514246460N00241520WA0121101211
B1717524246470N00241516WA0121601216
B1717534246478N00241514WA0122001220
B1717544246487N00241511WA0122401224
B1717554246496N00241508WA0122701227
B1717564246505N00241505WA0122901229
B1717574246514N00241502WA0123101231
B1717584246523N00241500WA0123101231
B1717594246533N00241496WA0123201232
B1718004246544N00241493WA0123301233
B1718014246556N00241491WA0123601236
B1718024246565N00241488WA0123801238
B1718034246574N00241485WA0124001240
B1718044246583N00241482WA0124101241
B1718054246592N00241479WA0124301243
B1718064246601N00241476WA0124401244
B1718074246612N00241471WA0124701247
B1718084246621N00241467WA0125001250
B1718094246629N00241462WA0125401254
B1718104246637N00241454WA0125701257
B1718114246643N00241447WA0126001260
B1718124246651N00241441WA0126201262
B1718134246658N00241432WA0126201262
B1718144246665N00241424WA0125501255
B1718154246674N00241419WA0126901269
B1718164246682N00241414WA0127201272
B1718174246689N00241407WA0127401274
B1718184246698N00241403WA0127601276
B1718194246705N00241396WA0127901279
B1718204246712N00241387WA0128101281
B1718214246718N00241378WA0128401284
B1718224246722N00241369WA0128701287
B1718234246726N00241362WA0128801288
B1718244246729N00241352WA0128901289
B1718254246731N00241341WA0129001290
B1718264246733N00241332WA0129201292
B1718274246734N00241324WA0129401294
B1718284246734N00241317WA0129501295
B1718294246734N00241312WA0129701297
B1718304246733N00241306WA0129801298
B1718314246732N00241301WA0129801298
B1718324246731N00241296WA0129901299
B1718334246729N00241291WA0129901299
B1718344246728N00241286WA0130101301
B1718354246728N00241280WA0130201302
B1718364246727N00241274WA0130401304
B1718374246727N00241268WA0130401304
B1718384246727N00241263WA0130401304
B1718394246727N00241258WA0130401304
B1718404246727N00241253WA0130401304
B1718414246728N00241246WA0130501305
B1718424246729N00241239WA0130701307
B1718434246729N00241232WA0130801308
B1718444246730N00241225WA0130901309
B1718454246730N00241218WA0130801308
B1718464246730N00241211WA0130801308
B1718474246730N00241203WA0130801308
B1718484246730N00241196WA0130901309
B1718494246731N00241189WA0131101311
B1718504246731N00241183WA0131301313
B1718514246731N00241177WA0131401314
B1718524246732N00241170WA0131401314
B1718534246732N00241162WA0131401314
B1718544246731N00241155WA0131401314
B1718554246731N00241145WA0131501315
B1718564246730N00241136WA0131601316
B1718574246732N00241129WA0131801318
B1718584246734N00241120WA0131901319
B1718594246736N00241112WA0132001320
B1719004246738N00241104WA0132001320
B1719014246740N00241096WA0132101321
B1719024246742N00241087WA0132201322
B1719034246746N00241079WA0132301323
B1719044246749N00241069WA0132401324
B1719054246750N00241062WA0132601326
B1719064246753N00241054WA0132801328
B1719074246757N00241046WA0132901329
B1719084246760N00241038WA0133001330
B1719094246763N00241030WA0133101331
B1719104246767N00241023WA0133301333
B1719114246771N00241014WA0133601336
B1719124246776N00241006WA0133701337
B1719134246779N00240999WA0133901339
B1719144246783N00240992WA0134001340
B1719154246787N00240984WA0134001340
B1719164246792N00240975WA0134101341
B1719174246798N00240966WA0134201342
B1719184246803N00240957WA0134501345
B1719194246808N00240949WA0134701347
B1719204246812N00240941WA0134901349
B1719214246816N00240934WA0135101351
B1719224246821N00240926WA0135201352
B1719234246826N00240918WA0135201352
B1719244246832N00240909WA0135301353
B1719254246837N00240901WA0135301353
B1719264246842N00240893WA0135401354
B1719274246847N00240886WA0135501355
B1719284246852N00240878WA0135401354
B1719294246857N00240870WA0135401354
B1719304246862N00240862WA0135401354
B1719314246868N00240854WA0135401354
B1719324246873N00240846WA0135501355
B1719334246878N00240837WA0135501355
B1719344246883N00240830WA0135601356
B1719354246888N00240822WA0135601356
B1719364246892N00240815WA0135601356
B1719374246897N00240805WA0135601356
B1719384246902N00240796WA0135701357
B1719394246907N00240789WA0135901359
B1719404246911N00240782WA0136001360
B1719414246915N00240774WA0136001360
B1719424246918N00240766WA0136101361
B1719434246921N00240758WA0136201362
B1719444246924N00240750WA0136301363
B1719454246927N00240741WA0136301363
B1719464246930N00240733WA0136401364
B1719474246933N00240724WA0136501365
B1719484246935N00240717WA0136701367
B1719494246936N00240710WA0136801368
B1719504246936N00240705WA0136901369
B1719514246938N00240699WA0137001370
B1719524246940N00240693WA0136901369
B1719534246943N00240685WA0136901369
B1719544246946N00240677WA0136801368
B1719554246949N00240670WA0136801368
B1719564246953N00240660WA0136801368
B1719574246957N00240651WA0136801368
B1719584246963N00240642WA0136801368
B1719594246969N00240633WA0136901369
B1720004246977N00240624WA0137101371
B1720014246988N00240620WA0137401374
B1720024246997N00240618WA0137601376
B1720034247005N00240620WA0137701378
B1720044247012N00240623WA0137901379
B1720054247019N00240627WA0138101381
B1720064247025N00240632WA0138201382
B1720074247029N00240637WA0138401384
B1720084247031N00240643WA0138501385
B1720094247033N00240649WA0138501385
B1720104247034N00240656WA0138601386
B1720114247034N00240663WA0138801388
B1720124247032N00240666WA0138901389
B1720134247030N00240666WA0138901389
B1720144247028N00240663WA0138701387
B1720154247025N00240660WA0138601386
B1720164247023N00240656WA0138601386
B1720174247021N00240651WA0138501385
B1720184247019N00240647WA0138501385
B1720194247016N00240644WA0138501385
B1720204247015N00240640WA0138501385
B1720214247016N00240632WA0138401384
B1720224247017N00240625WA0138401384
B1720234247018N00240616WA0138401384
B1720244247020N00240607WA0138401384
B1720254247022N00240598WA0138401384
B1720264247024N00240591WA0138501385
B1720274247026N00240583WA0138501385
B1720284247029N00240575WA0138401384
B1720294247033N00240566WA0138401384
B1720304247040N00240558WA0138401384
B1720314247048N00240552WA0138401384
B1720324247058N00240549WA0138501385
B1720334247067N00240547WA0138701387
B1720344247075N00240549WA0138801388
B1720354247083N00240553WA0139001390
B1720364247090N00240558WA0139001390
B1720374247095N00240566WA0139101391
B1720384247099N00240575WA0139001390
B1720394247101N00240582WA0139101391
B1720404247103N00240588WA0139101391
B1720414247102N00240591WA0139101391
B1720424247100N00240591WA0138901389
B1720434247097N00240590WA0138701387
B1720444247094N00240587WA0138701387
B1720454247092N00240585WA0138601386
B1720464247089N00240583WA0138601386
B1720474247087N00240582WA0138601386
B1720484247084N00240580WA0138401384
B1720494247081N00240578WA0138301383
B1720504247078N00240576WA0138301383
B1720514247075N00240573WA0138301383
B1720524247072N00240569WA0138301383
B1720534247070N00240566WA0138301383
B1720544247068N00240563WA0138301383
B1720554247067N00240560WA0138201382
B1720564247065N00240555WA0138101381
B1720574247063N00240551WA0138101381
B1720584247061N00240547WA0138101381
B1720594247059N00240542WA0138101381
B1721004247058N00240540WA0138001380
B1721014247056N00240536WA0138001380
B1721024247054N00240532WA0137901379
B1721034247052N00240525WA0138001380
B1721044247050N00240521WA0138201382
B1721054247048N00240516WA0138301383
B1721064247047N00240513WA0138401385
B1721074247045N00240508WA0138501385
B1721084247044N00240504WA0138601386
B1721094247042N00240499WA0138501385
B1721104247040N00240494WA0138501385
B1721114247039N00240487WA0138501385
B1721124247038N00240479WA0138801388
B1721134247037N00240475WA0139101391
B1721144247037N00240469WA0139301393
B1721154247037N00240466WA0139401394
B1721164247037N00240461WA0139301393
B1721174247036N00240456WA0139201392
B1721184247035N00240449WA0139001390
B1721194247034N00240444WA0138901389
B1721204247033N00240435WA0138901389
B1721214247031N00240427WA0139001390
B1721224247031N00240419WA0139001390
B1721234247031N00240410WA0139101391
B1721244247033N00240401WA0139201392
B1721254247036N00240392WA0139101391
B1721264247039N00240382WA0139301393
B1721274247043N00240373WA0139401394
B1721284247049N00240365WA0139501395
B1721294247057N00240358WA0139501395
B1721304247066N00240354WA0139601396
B1721314247074N00240354WA0139701397
B1721324247082N00240356WA0139801398
B1721334247088N00240361WA0139901399
B1721344247094N00240365WA0140001400
B1721354247099N00240369WA0140001400
B1721364247103N00240375WA0140101401
B1721374247107N00240380WA0140101401
B1721384247109N00240385WA0140101401
B1721394247112N00240391WA0140101401
B1721404247114N00240396WA0140101401
B1721414247117N00240401WA0140101401
B1721424247119N00240406WA0140201402
B1721434247121N00240410WA0140301403
B1721444247123N00240413WA0140401404
B1721454247125N00240418WA0140401404
B1721464247127N00240422WA0140301403
B1721474247128N00240428WA0140201402
B1721484247129N00240437WA0140201402
B1721494247129N00240444WA0140201402
B1721504247128N00240448WA0140301403
B1721514247127N00240452WA0140301403
B1721524247125N00240454WA0140301403
B1721534247122N00240456WA0140301403
B1721544247120N00240456WA0140301403
B1721554247117N00240456WA0140301403
B1721564247114N00240456WA0140301403
B1721574247111N00240453WA0140301403
B1721584247109N00240448WA0140301403
B1721594247107N00240444WA0140301403
B1722004247106N00240437WA0140301403
B1722014247105N00240430WA0140201402
B1722024247104N00240421WA0140201402
B1722034247106N00240413WA0140201402
B1722044247108N00240403WA0140201402
B1722054247112N00240394WA0140301403
B1722064247117N00240387WA0140401404
B1722074247124N00240381WA0140401404
B1722084247133N00240380WA0140401404
B1722094247141N00240380WA0140401404
B1722104247148N00240383WA0140501405
B1722114247155N00240387WA0140501405
B1722124247160N00240392WA0140401404
B1722134247163N00240399WA0140201402
B1722144247166N00240404WA0140101401
B1722154247168N00240411WA0140101401
B1722164247168N00240416WA0140101401
B1722174247168N00240419WA0140201402
B1722184247167N00240419WA0140201402
B1722194247167N00240420WA0140201402
B1722204247166N00240419WA0140201402
B1722214247166N00240418WA0140201402
B1722224247164N00240418WA0140001400
B1722234247163N00240416WA0139701397
B1722244247161N00240415WA0139401394
B1722254247158N00240414WA0139201392
B1722264247156N00240414WA0139201392
B1722274247154N00240412WA0139301393
B1722284247152N00240410WA0139501395
B1722294247150N00240407WA0139501396
B1722304247147N00240406WA0139501395
B1722314247145N00240404WA0139501395
B1722324247142N00240404WA0139501395
B1722334247139N00240403WA0139501395
B1722344247137N00240404WA0139801398
B1722354247134N00240406WA0140001400
B1722364247133N00240407WA0140301403
B1722374247132N00240409WA0140701407
B1722384247131N00240411WA0140901409
B1722394247130N00240414WA0140901409
B1722404247128N00240418WA0141001410
B1722414247125N00240420WA0141301413
B1722424247124N00240423WA0141601416
B1722434247123N00240425WA0141801418
B1722444247122N00240425WA0141801418
B1722454247121N00240427WA0141801418
B1722464247119N00240428WA0141801418
B1722474247118N00240430WA0141901419
B1722484247116N00240432WA0141901419
B1722494247114N00240434WA0141901419
B1722504247111N00240434WA0141801418
B1722514247109N00240435WA0141701417
B1722524247106N00240437WA0141501415
B1722534247104N00240438WA0141401414
B1722544247101N00240440WA0141401414
B1722554247098N00240442WA0141401414
B1722564247095N00240444WA0141501415
B1722574247092N00240446WA0141501415
B1722584247090N00240447WA0141601416
B1722594247087N00240449WA0141801418
B1723004247084N00240450WA0141901419
B1723014247081N00240452WA0141901419
B1723024247077N00240453WA0141901419
B1723034247074N00240454WA0141901419
B1723044247071N00240456WA0141901419
B1723054247068N00240458WA0142001420
B1723064247065N00240460WA0142101421
B1723074247063N00240460WA0142201422
B1723084247060N00240460WA0142401424
B1723094247057N00240460WA0142401424
B1723104247054N00240460WA0142401424
B1723114247052N00240461WA0142401424
B1723124247048N00240461WA0142601426
B1723134247045N00240461WA0142801428
B1723144247043N00240461WA0142901429
B1723164247040N00240460WA0143001430
B1723174247037N00240460WA0143001430
B1723184247033N00240459WA0143201432
B1723194247030N00240458WA0143401434
B1723204247026N00240458WA0143801438
B1723214247024N00240457WA0144101441
B1723224247022N00240458WA0144401444
B1723234247019N00240458WA0144601446
B1723244247016N00240459WA0144601446
B1723254247013N00240457WA0144701447
B1723264247010N00240458WA0144801448
B1723274247008N00240460WA0145201452
B1723284247005N00240463WA0145501455
B1723294247004N00240468WA0145801458
B1723304247003N00240472WA0146201462
B1723314247003N00240477WA0146601466
B1723324247005N00240482WA0147001470
B1723334247006N00240488WA0147301473
B1723344247008N00240494WA0147601476
B1723354247009N00240498WA0147901479
B1723364247011N00240503WA0148101482
B1723374247012N00240509WA0148301483
B1723384247013N00240515WA0148501485
B1723394247015N00240521WA0148701487
B1723404247016N00240527WA0148901489
B1723414247017N00240533WA0149201492
B1723424247018N00240538WA0149501495
B1723434247019N00240544WA0149801498
B1723444247020N00240547WA0150001500
B1723454247021N00240551WA0150201502
B1723464247023N00240556WA0150201502
B1723474247024N00240563WA0150301503
B1723484247026N00240568WA0150301503
B1723494247028N00240575WA0150401504
B1723504247030N00240579WA0150601506
B1723514247032N00240585WA0150601506
B1723524247033N00240590WA0150601506
B1723534247035N00240595WA0150701507
B1723544247036N00240601WA0150701507
B1723554247037N00240605WA0150601506
B1723564247039N00240610WA0150401504
B1723574247040N00240615WA0150401504
B1723584247041N00240621WA0150301503
B1723594247042N00240626WA0150301503
B1724004247043N00240632WA0150401504
B1724014247044N00240636WA0150401504
B1724024247045N00240641WA0150401504
B1724034247046N00240647WA0150401504
B1724044247048N00240653WA0150501505
B1724054247050N00240659WA0150601506
B1724064247052N00240664WA0150701507
B1724074247053N00240668WA0150801508
B1724084247054N00240671WA0150801508
B1724094247057N00240676WA0150901509
B1724104247059N00240682WA0150801508
B1724114247062N00240686WA0150901509
B1724124247066N00240691WA0150901509
B1724134247070N00240696WA0151101511
B1724144247074N00240702WA0151201512
B1724154247078N00240706WA0151301513
B1724164247081N00240711WA0151301513
B1724174247085N00240716WA0151301513
B1724184247090N00240721WA0151301513
B1724194247095N00240727WA0151301513
B1724204247101N00240731WA0151301513
B1724214247106N00240737WA0151301513
B1724224247111N00240742WA0151301513
B1724234247117N00240747WA0151301513
B1724244247122N00240752WA0151301513
B1724254247128N00240758WA0151301513
B1724264247136N00240760WA0151401514
B1724274247143N00240764WA0151401514
B1724284247151N00240765WA0151401514
B1724294247159N00240766WA0151401514
B1724304247168N00240765WA0151401514
B1724314247177N00240764WA0151501515
B1724324247184N00240763WA0151601516
B1724334247191N00240760WA0151701517
B1724344247197N00240754WA0151801518
B1724354247203N00240748WA0151701517
B1724364247209N00240741WA0151701517
B1724374247215N00240735WA0151801518
B1724384247220N00240729WA0151701517
B1724394247226N00240723WA0151601516
B1724404247233N00240715WA0151401514
B1724414247241N00240708WA0151401514
B1724424247246N00240697WA0151401514
B1724434247251N00240687WA0151501515
B1724444247254N00240679WA0151701517
B1724454247256N00240670WA0151901519
B1724464247258N00240660WA0152101521
B1724474247257N00240653WA0152101521
B1724484247255N00240648WA0152101521
B1724494247252N00240646WA0152101521
B1724504247251N00240648WA0152101521
B1724514247251N00240652WA0152101521
B1724524247252N00240657WA0152101521
B1724534247255N00240663WA0152001520
B1724544247257N00240668WA0152001520
B1724554247259N00240674WA0152001520
B1724564247261N00240679WA0152001520
B1724574247263N00240685WA0151901519
B1724584247265N00240691WA0151801518
B1724594247267N00240698WA0151701517
B1725004247269N00240704WA0151701517
B1725014247271N00240711WA0151701517
B1725024247272N00240718WA0151701517
B1725034247273N00240724WA0151901519
B1725044247273N00240730WA0152101521
B1725054247274N00240735WA0152201522
B1725064247275N00240741WA0152301523
B1725074247276N00240746WA0152401524
B1725084247277N00240750WA0152401524
B1725094247278N00240755WA0152501525
B1725104247279N00240760WA0152601526
B1725114247281N00240766WA0152701527
B1725124247284N00240771WA0152701527
B1725134247286N00240775WA0152701527
B1725144247289N00240781WA0152701527
B1725154247292N00240787WA0152701527
B1725164247295N00240792WA0152701527
B1725174247299N00240798WA0152801528
B1725184247304N00240803WA0152901529
B1725194247309N00240808WA0152901529
B1725204247314N00240812WA0152901529
B1725214247320N00240816WA0152901529
B1725224247326N00240819WA0152901529
B1725234247334N00240820WA0152901529
B1725244247342N00240821WA0152901529
B1725254247350N00240820WA0152901529
B1725264247360N00240819WA0152901529
B1725274247367N00240816WA0152901529
B1725284247375N00240812WA0153001530
B1725294247380N00240808WA0153001530
B1725304247387N00240799WA0153001530
B1725314247393N00240791WA0153101531
B1725324247397N00240782WA0153201532
B1725334247399N00240772WA0153301533
B1725344247400N00240763WA0153301533
B1725354247400N00240755WA0153301533
B1725364247399N00240748WA0153201532
B1725374247398N00240741WA0153201532
B1725384247396N00240734WA0153201532
B1725394247393N00240729WA0153201532
B1725404247391N00240727WA0153201532
B1725414247388N00240723WA0153101531
B1725424247385N00240720WA0153001530
B1725434247381N00240720WA0153001530
B1725444247378N00240721WA0152901529
B1725454247376N00240724WA0152901529
B1725464247377N00240730WA0152901529
B1725474247379N00240736WA0152901529
B1725484247383N00240740WA0152901529
B1725494247388N00240746WA0153001530
B1725504247393N00240750WA0153201532
B1725514247400N00240753WA0153201532
B1725524247410N00240756WA0153101531
B1725534247418N00240758WA0153101531
B1725544247425N00240755WA0153001530
B1725554247432N00240753WA0153001530
B1725564247439N00240750WA0153001530
B1725574247444N00240743WA0152801528
B1725584247450N00240735WA0152801528
B1725594247456N00240727WA0152801528
B1726004247461N00240718WA0152701527
B1726014247463N00240708WA0152601526
B1726024247465N00240699WA0152601526
B1726034247465N00240690WA0152501525
B1726044247465N00240682WA0152301523
B1726054247464N00240671WA0152301523
B1726064247464N00240665WA0152201523
B1726074247462N00240663WA0152301523
B1726084247458N00240660WA0152201522
B1726094247452N00240658WA0152001520
B1726104247452N00240658WA0151901519
B1726114247452N00240659WA0151801518
B1726124247452N00240661WA0151801518
B1726134247454N00240664WA0151701518
B1726144247457N00240670WA0151701517
B1726154247460N00240675WA0151601516
B1726164247465N00240680WA0151601516
B1726174247470N00240685WA0151701517
B1726184247477N00240689WA0151801518
B1726194247486N00240691WA0151801518
B1726204247494N00240693WA0151901519
B1726214247502N00240690WA0151901519
B1726224247510N00240687WA0151801518
B1726234247516N00240680WA0151601516
B1726244247522N00240672WA0151501515
B1726254247527N00240663WA0151401514
B1726264247531N00240651WA0151401514
B1726274247532N00240642WA0151401514
B1726284247531N00240634WA0151301513
B1726294247529N00240628WA0151301513
B1726304247527N00240625WA0151201512
B1726314247522N00240627WA0151201512
B1726324247522N00240627WA0151101511
B1726334247522N00240630WA0151001510
B1726344247522N00240635WA0150901509
B1726354247525N00240641WA0150901509
B1726364247530N00240644WA0150901509
B1726374247536N00240648WA0150801508
B1726384247544N00240651WA0150701507
B1726394247553N00240651WA0150601506
B1726404247562N00240651WA0150501505
B1726414247570N00240649WA0150501504
B1726424247576N00240643WA0150401504
B1726434247583N00240635WA0150301503
B1726444247589N00240626WA0150301503
B1726454247593N00240616WA0150301503
B1726464247595N00240607WA0150201502
B1726474247594N00240599WA0150201502
B1726484247592N00240591WA0150101501
B1726494247590N00240587WA0150101501
B1726504247587N00240586WA0150001500
B1726514247584N00240589WA0149901499
B1726524247583N00240594WA0149801498
B1726534247585N00240598WA0149801498
B1726544247588N00240604WA0149801498
B1726554247591N00240608WA0149801498
B1726564247597N00240611WA0149601496
B1726574247605N00240613WA0149401494
B1726584247613N00240615WA0149301493
B1726594247621N00240614WA0149201492
B1727004247629N00240609WA0149201492
B1727014247636N00240602WA0149101491
B1727024247643N00240595WA0149101491
B1727034247648N00240585WA0149001490
B1727044247653N00240575WA0149001490
B1727054247654N00240565WA0149001490
B1727064247652N00240556WA0148901489
B1727074247649N00240552WA0148801488
B1727084247645N00240551WA0148801488
B1727094247641N00240553WA0148701487
B1727104247639N00240556WA0148601486
B1727114247639N00240560WA0148501485
B1727124247640N00240564WA0148401484
B1727134247640N00240568WA0148301483
B1727144247643N00240573WA0148301483
B1727154247647N00240578WA0148101481
B1727164247651N00240583WA0147901479
B1727174247656N00240586WA0147801478
B1727184247662N00240589WA0147701477
B1727194247669N00240592WA0147601476
B1727204247675N00240594WA0147601476
B1727214247681N00240595WA0147601476
B1727224247688N00240596WA0147501475
B1727234247696N00240594WA0147401474
B1727244247704N00240594WA0147301473
B1727254247712N00240590WA0147201472
B1727264247719N00240584WA0147101471
B1727274247726N00240577WA0147101471
B1727284247732N00240570WA0147101471
B1727294247738N00240563WA0147101471
B1727304247742N00240555WA0147101471
B1727314247744N00240546WA0147101471
B1727324247744N00240537WA0147001470
B1727334247743N00240528WA0146901468
B1727344247741N00240520WA0146701467
B1727354247738N00240518WA0146701466
B1727364247734N00240518WA0146601466
B1727374247733N00240521WA0146501465
B1727384247731N00240526WA0146401464
B1727394247731N00240535WA0146301463
B1727404247732N00240542WA0146201462
B1727414247736N00240547WA0146201462
B1727424247743N00240551WA0146101461
B1727434247752N00240551WA0146001460
B1727444247760N00240550WA0145901459
B1727454247768N00240548WA0145901459
B1727464247774N00240544WA0145901459
B1727474247781N00240537WA0145801458
B1727484247787N00240530WA0145701457
B1727494247793N00240522WA0145501455
B1727504247796N00240511WA0145401454
B1727514247796N00240502WA0145301453
B1727524247795N00240494WA0145201453
B1727534247793N00240490WA0145201452
B1727544247790N00240490WA0145001451
B1727554247788N00240491WA0144801449
B1727564247789N00240497WA0144801448
B1727574247791N00240506WA0144301444
B1727584247791N00240506WA0144001441
B1727594247795N00240506WA0137301439
B1621494247795N00240506WA0137301439
LXCG     TRX0,16711680,2,0
B1621504247791N00240506WA0144001441
B1621514247791N00240506WA0144301444
B1621524247789N00240497WA0144801448
B1621534247788N00240491WA0144801449
B1621544247790N00240490WA0145001451
B1621554247793N00240490WA0145201452
B1621564247795N00240494WA0145201453
B1621574247796N00240502WA0145301453
B1621584247796N00240511WA0145401454
B1621594247793N00240522WA0145501455
B1622004247787N00240530WA0145701457
B1622014247781N00240537WA0145801458
B1622024247774N00240544WA0145901459
B1622034247768N00240548WA0145901459
B1622044247760N00240550WA0145901459
B1622054247752N00240551WA0146001460
B1622064247743N00240551WA0146101461
B1622074247736N00240547WA0146201462
B1622084247732N00240542WA0146201462
B1622094247731N00240535WA0146301463
B1622104247731N00240526WA0146401464
B1622114247733N00240521WA0146501465
B1622124247734N00240518WA0146601466
B1622134247738N00240518WA0146701466
B1622144247741N00240520WA0146701467
B1622154247743N00240528WA0146901468
B1622164247744N00240537WA0147001470
B1622174247744N00240546WA0147101471
B1622184247742N00240555WA0147101471
B1622194247738N00240563WA0147101471
B1622204247732N00240570WA0147101471
B1622214247726N00240577WA0147101471
B1622224247719N00240584WA0147101471
B1622234247712N00240590WA0147201472
B1622244247704N00240594WA0147301473
B1622254247696N00240594WA0147401474
B1622264247688N00240596WA0147501475
B1622274247681N00240595WA0147601476
B1622284247675N00240594WA0147601476
B1622294247669N00240592WA0147601476
B1622304247662N00240589WA0147701477
B1622314247656N00240586WA0147801478
B1622324247651N00240583WA0147901479
B1622334247647N00240578WA0148101481
B1622344247643N00240573WA0148301483
B1622354247640N00240568WA0148301483
B1622364247640N00240564WA0148401484
B1622374247639N00240560WA0148501485
B1622384247639N00240556WA0148601486
B1622394247641N00240553WA0148701487
B1622404247645N00240551WA0148801488
B1622414247649N00240552WA0148801488
B1622424247652N00240556WA0148901489
B1622434247654N00240565WA0149001490
B1622444247653N00240575WA0149001490
B1622454247648N00240585WA0149001490
B1622464247643N00240595WA0149101491
B1622474247636N00240602WA0149101491
B1622484247629N00240609WA0149201492
B1622494247621N00240614WA0149201492
B1622504247613N00240615WA0149301493
B1622514247605N00240613WA0149401494
B1622524247597N00240611WA0149601496
B1622534247591N00240608WA0149801498
B1622544247588N00240604WA0149801498
B1622554247585N00240598WA0149801498
B1622564247583N00240594WA0149801498
B1622574247584N00240589WA0149901499
B1622584247587N00240586WA0150001500
B1622594247590N00240587WA0150101501
B1623004247592N00240591WA0150101501
B1623014247594N00240599WA0150201502
B1623024247595N00240607WA0150201502
B1623034247593N00240616WA0150301503
B1623044247589N00240626WA0150301503
B1623054247583N00240635WA0150301503
B1623064247576N00240643WA0150401504
B1623074247570N00240649WA0150501504
B1623084247562N00240651WA0150501505
B1623094247553N00240651WA0150601506
B1623104247544N00240651WA0150701507
B1623114247536N00240648WA0150801508
B1623124247530N00240644WA0150901509
B1623134247525N00240641WA0150901509
B1623144247522N00240635WA0150901509
B1623154247522N00240630WA0151001510
B1623164247522N00240627WA0151101511
B1623174247522N00240627WA0151201512
B1623184247527N00240625WA0151201512
B1623194247529N00240628WA0151301513
B1623204247531N00240634WA0151301513
B1623214247532N00240642WA0151401514
B1623224247531N00240651WA0151401514
B1623234247527N00240663WA0151401514
B1623244247522N00240672WA0151501515
B1623254247516N00240680WA0151601516
B1623264247510N00240687WA0151801518
B1623274247502N00240690WA0151901519
B1623284247494N00240693WA0151901519
B1623294247486N00240691WA0151801518
B1623304247477N00240689WA0151801518
B1623314247470N00240685WA0151701517
B1623324247465N00240680WA0151601516
B1623334247460N00240675WA0151601516
B1623344247457N00240670WA0151701517
B1623354247454N00240664WA0151701518
B1623364247452N00240661WA0151801518
B1623374247452N00240659WA0151801518
B1623384247452N00240658WA0151901519
B1623394247452N00240658WA0152001520
B1623404247458N00240660WA0152201522
B1623414247462N00240663WA0152301523
B1623424247464N00240665WA0152201523
B1623434247464N00240671WA0152301523
B1623444247465N00240682WA0152301523
B1623454247465N00240690WA0152501525
B1623464247465N00240699WA0152601526
B1623474247463N00240708WA0152601526
B1623484247461N00240718WA0152701527
B1623494247456N00240727WA0152801528
B1623504247450N00240735WA0152801528
B1623514247444N00240743WA0152801528
B1623524247439N00240750WA0153001530
B1623534247432N00240753WA0153001530
B1623544247425N00240755WA0153001530
B1623554247418N00240758WA0153101531
B1623564247410N00240756WA0153101531
B1623574247400N00240753WA0153201532
B1623584247393N00240750WA0153201532
B1623594247388N00240746WA0153001530
B1624004247383N00240740WA0152901529
B1624014247379N00240736WA0152901529
B1624024247377N00240730WA0152901529
B1624034247376N00240724WA0152901529
B1624044247378N00240721WA0152901529
B1624054247381N00240720WA0153001530
B1624064247385N00240720WA0153001530
B1624074247388N00240723WA0153101531
B1624084247391N00240727WA0153201532
B1624094247393N00240729WA0153201532
B1624104247396N00240734WA0153201532
B1624114247398N00240741WA0153201532
B1624124247399N00240748WA0153201532
B1624134247400N00240755WA0153301533
B1624144247400N00240763WA0153301533
B1624154247399N00240772WA0153301533
B1624164247397N00240782WA0153201532
B1624174247393N00240791WA0153101531
B1624184247387N00240799WA0153001530
B1624194247380N00240808WA0153001530
B1624204247375N00240812WA0153001530
B1624214247367N00240816WA0152901529
B1624224247360N00240819WA0152901529
B1624234247350N00240820WA0152901529
B1624244247342N00240821WA0152901529
B1624254247334N00240820WA0152901529
B1624264247326N00240819WA0152901529
B1624274247320N00240816WA0152901529
B1624284247314N00240812WA0152901529
B1624294247309N00240808WA0152901529
B1624304247304N00240803WA0152901529
B1624314247299N00240798WA0152801528
B1624324247295N00240792WA0152701527
B1624334247292N00240787WA0152701527
B1624344247289N00240781WA0152701527
B1624354247286N00240775WA0152701527
B1624364247284N00240771WA0152701527
B1624374247281N00240766WA0152701527
B1624384247279N00240760WA0152601526
B1624394247278N00240755WA0152501525
B1624404247277N00240750WA0152401524
B1624414247276N00240746WA0152401524
B1624424247275N00240741WA0152301523
B1624434247274N00240735WA0152201522
B1624444247273N00240730WA0152101521
B1624454247273N00240724WA0151901519
B1624464247272N00240718WA0151701517
B1624474247271N00240711WA0151701517
B1624484247269N00240704WA0151701517
B1624494247267N00240698WA0151701517
B1624504247265N00240691WA0151801518
B1624514247263N00240685WA0151901519
B1624524247261N00240679WA0152001520
B1624534247259N00240674WA0152001520
B1624544247257N00240668WA0152001520
B1624554247255N00240663WA0152001520
B1624564247252N00240657WA0152101521
B1624574247251N00240652WA0152101521
B1624584247251N00240648WA0152101521
B1624594247252N00240646WA0152101521
B1625004247255N00240648WA0152101521
B1625014247257N00240653WA0152101521
B1625024247258N00240660WA0152101521
B1625034247256N00240670WA0151901519
B1625044247254N00240679WA0151701517
B1625054247251N00240687WA0151501515
B1625064247246N00240697WA0151401514
B1625074247241N00240708WA0151401514
B1625084247233N00240715WA0151401514
B1625094247226N00240723WA0151601516
B1625104247220N00240729WA0151701517
B1625114247215N00240735WA0151801518
B1625124247209N00240741WA0151701517
B1625134247203N00240748WA0151701517
B1625144247197N00240754WA0151801518
B1625154247191N00240760WA0151701517
B1625164247184N00240763WA0151601516
B1625174247177N00240764WA0151501515
B1625184247168N00240765WA0151401514
B1625194247159N00240766WA0151401514
B1625204247151N00240765WA0151401514
B1625214247143N00240764WA0151401514
B1625224247136N00240760WA0151401514
B1625234247128N00240758WA0151301513
B1625244247122N00240752WA0151301513
B1625254247117N00240747WA0151301513
B1625264247111N00240742WA0151301513
B1625274247106N00240737WA0151301513
B1625284247101N00240731WA0151301513
B1625294247095N00240727WA0151301513
B1625304247090N00240721WA0151301513
B1625314247085N00240716WA0151301513
B1625324247081N00240711WA0151301513
B1625334247078N00240706WA0151301513
B1625344247074N00240702WA0151201512
B1625354247070N00240696WA0151101511
B1625364247066N00240691WA0150901509
B1625374247062N00240686WA0150901509
B1625384247059N00240682WA0150801508
B1625394247057N00240676WA0150901509
B1625404247054N00240671WA0150801508
B1625414247053N00240668WA0150801508
B1625424247052N00240664WA0150701507
B1625434247050N00240659WA0150601506
B1625444247048N00240653WA0150501505
B1625454247046N00240647WA0150401504
B1625464247045N00240641WA0150401504
B1625474247044N00240636WA0150401504
B1625484247043N00240632WA0150401504
B1625494247042N00240626WA0150301503
B1625504247041N00240621WA0150301503
B1625514247040N00240615WA0150401504
B1625524247039N00240610WA0150401504
B1625534247037N00240605WA0150601506
B1625544247036N00240601WA0150701507
B1625554247035N00240595WA0150701507
B1625564247033N00240590WA0150601506
B1625574247032N00240585WA0150601506
B1625584247030N00240579WA0150601506
B1625594247028N00240575WA0150401504
B1626004247026N00240568WA0150301503
B1626014247024N00240563WA0150301503
B1626024247023N00240556WA0150201502
B1626034247021N00240551WA0150201502
B1626044247020N00240547WA0150001500
B1626054247019N00240544WA0149801498
B1626064247018N00240538WA0149501495
B1626074247017N00240533WA0149201492
B1626084247016N00240527WA0148901489
B1626094247015N00240521WA0148701487
B1626104247013N00240515WA0148501485
B1626114247012N00240509WA0148301483
B1626124247011N00240503WA0148101482
B1626134247009N00240498WA0147901479
B1626144247008N00240494WA0147601476
B1626154247006N00240488WA0147301473
B1626164247005N00240482WA0147001470
B1626174247003N00240477WA0146601466
B1626184247003N00240472WA0146201462
B1626194247004N00240468WA0145801458
B1626204247005N00240463WA0145501455
B1626214247008N00240460WA0145201452
B1626224247010N00240458WA0144801448
B1626234247013N00240457WA0144701447
B1626244247016N00240459WA0144601446
B1626254247019N00240458WA0144601446
B1626264247022N00240458WA0144401444
B1626274247024N00240457WA0144101441
B1626284247026N00240458WA0143801438
B1626294247030N00240458WA0143401434
B1626304247033N00240459WA0143201432
B1626314247037N00240460WA0143001430
B1626324247040N00240460WA0143001430
B1626344247043N00240461WA0142901429
B1626354247045N00240461WA0142801428
B1626364247048N00240461WA0142601426
B1626374247052N00240461WA0142401424
B1626384247054N00240460WA0142401424
B1626394247057N00240460WA0142401424
B1626404247060N00240460WA0142401424
B1626414247063N00240460WA0142201422
B1626424247065N00240460WA0142101421
B1626434247068N00240458WA0142001420
B1626444247071N00240456WA0141901419
B1626454247074N00240454WA0141901419
B1626464247077N00240453WA0141901419
B1626474247081N00240452WA0141901419
B1626484247084N00240450WA0141901419
B1626494247087N00240449WA0141801418
B1626504247090N00240447WA0141601416
B1626514247092N00240446WA0141501415
B1626524247095N00240444WA0141501415
B1626534247098N00240442WA0141401414
B1626544247101N00240440WA0141401414
B1626554247104N00240438WA0141401414
B1626564247106N00240437WA0141501415
B1626574247109N00240435WA0141701417
B1626584247111N00240434WA0141801418
B1626594247114N00240434WA0141901419
B1627004247116N00240432WA0141901419
B1627014247118N00240430WA0141901419
B1627024247119N00240428WA0141801418
B1627034247121N00240427WA0141801418
B1627044247122N00240425WA0141801418
B1627054247123N00240425WA0141801418
B1627064247124N00240423WA0141601416
B1627074247125N00240420WA0141301413
B1627084247128N00240418WA0141001410
B1627094247130N00240414WA0140901409
B1627104247131N00240411WA0140901409
B1627114247132N00240409WA0140701407
B1627124247133N00240407WA0140301403
B1627134247134N00240406WA0140001400
B1627144247137N00240404WA0139801398
B1627154247139N00240403WA0139501395
B1627164247142N00240404WA0139501395
B1627174247145N00240404WA0139501395
B1627184247147N00240406WA0139501395
B1627194247150N00240407WA0139501396
B1627204247152N00240410WA0139501395
B1627214247154N00240412WA0139301393
B1627224247156N00240414WA0139201392
B1627234247158N00240414WA0139201392
B1627244247161N00240415WA0139401394
B1627254247163N00240416WA0139701397
B1627264247164N00240418WA0140001400
B1627274247166N00240418WA0140201402
B1627284247166N00240419WA0140201402
B1627294247167N00240420WA0140201402
B1627304247167N00240419WA0140201402
B1627314247168N00240419WA0140201402
B1627324247168N00240416WA0140101401
B1627334247168N00240411WA0140101401
B1627344247166N00240404WA0140101401
B1627354247163N00240399WA0140201402
B1627364247160N00240392WA0140401404
B1627374247155N00240387WA0140501405
B1627384247148N00240383WA0140501405
B1627394247141N00240380WA0140401404
B1627404247133N00240380WA0140401404
B1627414247124N00240381WA0140401404
B1627424247117N00240387WA0140401404
B1627434247112N00240394WA0140301403
B1627444247108N00240403WA0140201402
B1627454247106N00240413WA0140201402
B1627464247104N00240421WA0140201402
B1627474247105N00240430WA0140201402
B1627484247106N00240437WA0140301403
B1627494247107N00240444WA0140301403
B1627504247109N00240448WA0140301403
B1627514247111N00240453WA0140301403
B1627524247114N00240456WA0140301403
B1627534247117N00240456WA0140301403
B1627544247120N00240456WA0140301403
B1627554247122N00240456WA0140301403
B1627564247125N00240454WA0140301403
B1627574247127N00240452WA0140301403
B1627584247128N00240448WA0140301403
B1627594247129N00240444WA0140201402
B1628004247129N00240437WA0140201402
B1628014247128N00240428WA0140201402
B1628024247127N00240422WA0140301403
B1628034247125N00240418WA0140401404
B1628044247123N00240413WA0140401404
B1628054247121N00240410WA0140301403
B1628064247119N00240406WA0140201402
B1628074247117N00240401WA0140101401
B1628084247114N00240396WA0140101401
B1628094247112N00240391WA0140101401
B1628104247109N00240385WA0140101401
B1628114247107N00240380WA0140101401
B1628124247103N00240375WA0140101401
B1628134247099N00240369WA0140001400
B1628144247094N00240365WA0140001400
B1628154247088N00240361WA0139901399
B1628164247082N00240356WA0139801398
B1628174247074N00240354WA0139701397
B1628184247066N00240354WA0139601396
B1628194247057N00240358WA0139501395
B1628204247049N00240365WA0139501395
B1628214247043N00240373WA0139401394
B1628224247039N00240382WA0139301393
B1628234247036N00240392WA0139101391
B1628244247033N00240401WA0139201392
B1628254247031N00240410WA0139101391
B1628264247031N00240419WA0139001390
B1628274247031N00240427WA0139001390
B1628284247033N00240435WA0138901389
B1628294247034N00240444WA0138901389
B1628304247035N00240449WA0139001390
B1628314247036N00240456WA0139201392
B1628324247037N00240461WA0139301393
B1628334247037N00240466WA0139401394
B1628344247037N00240469WA0139301393
B1628354247037N00240475WA0139101391
B1628364247038N00240479WA0138801388
B1628374247039N00240487WA0138501385
B1628384247040N00240494WA0138501385
B1628394247042N00240499WA0138501385
B1628404247044N00240504WA0138601386
B1628414247045N00240508WA0138501385
B1628424247047N00240513WA0138401385
B1628434247048N00240516WA0138301383
B1628444247050N00240521WA0138201382
B1628454247052N00240525WA0138001380
B1628464247054N00240532WA0137901379
B1628474247056N00240536WA0138001380
B1628484247058N00240540WA0138001380
B1628494247059N00240542WA0138101381
B1628504247061N00240547WA0138101381
B1628514247063N00240551WA0138101381
B1628524247065N00240555WA0138101381
B1628534247067N00240560WA0138201382
B1628544247068N00240563WA0138301383
B1628554247070N00240566WA0138301383
B1628564247072N00240569WA0138301383
B1628574247075N00240573WA0138301383
B1628584247078N00240576WA0138301383
B1628594247081N00240578WA0138301383
B1629004247084N00240580WA0138401384
B1629014247087N00240582WA0138601386
B1629024247089N00240583WA0138601386
B1629034247092N00240585WA0138601386
B1629044247094N00240587WA0138701387
B1629054247097N00240590WA0138701387
B1629064247100N00240591WA0138901389
B1629074247102N00240591WA0139101391
B1629084247103N00240588WA0139101391
B1629094247101N00240582WA0139101391
B1629104247099N00240575WA0139001390
B1629114247095N00240566WA0139101391
B1629124247090N00240558WA0139001390
B1629134247083N00240553WA0139001390
B1629144247075N00240549WA0138801388
B1629154247067N00240547WA0138701387
B1629164247058N00240549WA0138501385
B1629174247048N00240552WA0138401384
B1629184247040N00240558WA0138401384
B1629194247033N00240566WA0138401384
B1629204247029N00240575WA0138401384
B1629214247026N00240583WA0138501385
B1629224247024N00240591WA0138501385
B1629234247022N00240598WA0138401384
B1629244247020N00240607WA0138401384
B1629254247018N00240616WA0138401384
B1629264247017N00240625WA0138401384
B1629274247016N00240632WA0138401384
B1629284247015N00240640WA0138501385
B1629294247016N00240644WA0138501385
B1629304247019N00240647WA0138501385
B1629314247021N00240651WA0138501385
B1629324247023N00240656WA0138601386
B1629334247025N00240660WA0138601386
B1629344247028N00240663WA0138701387
B1629354247030N00240666WA0138901389
B1629364247032N00240666WA0138901389
B1629374247034N00240663WA0138801388
B1629384247034N00240656WA0138601386
B1629394247033N00240649WA0138501385
B1629404247031N00240643WA0138501385
B1629414247029N00240637WA0138401384
B1629424247025N00240632WA0138201382
B1629434247019N00240627WA0138101381
B1629444247012N00240623WA0137901379
B1629454247005N00240620WA0137701378
B1629464246997N00240618WA0137601376
B1629474246988N00240620WA0137401374
B1629484246977N00240624WA0137101371
B1629494246969N00240633WA0136901369
B1629504246963N00240642WA0136801368
B1629514246957N00240651WA0136801368
B1629524246953N00240660WA0136801368
B1629534246949N00240670WA0136801368
B1629544246946N00240677WA0136801368
B1629554246943N00240685WA0136901369
B1629564246940N00240693WA0136901369
B1629574246938N00240699WA0137001370
B1629584246936N00240705WA0136901369
B1629594246936N00240710WA0136801368
B1630004246935N00240717WA0136701367
B1630014246933N00240724WA0136501365
B1630024246930N00240733WA0136401364
B1630034246927N00240741WA0136301363
B1630044246924N00240750WA0136301363
B1630054246921N00240758WA0136201362
B1630064246918N00240766WA0136101361
B1630074246915N00240774WA0136001360
B1630084246911N00240782WA0136001360
B1630094246907N00240789WA0135901359
B1630104246902N00240796WA0135701357
B1630114246897N00240805WA0135601356
B1630124246892N00240815WA0135601356
B1630134246888N00240822WA0135601356
B1630144246883N00240830WA0135601356
B1630154246878N00240837WA0135501355
B1630164246873N00240846WA0135501355
B1630174246868N00240854WA0135401354
B1630184246862N00240862WA0135401354
B1630194246857N00240870WA0135401354
B1630204246852N00240878WA0135401354
B1630214246847N00240886WA0135501355
B1630224246842N00240893WA0135401354
B1630234246837N00240901WA0135301353
B1630244246832N00240909WA0135301353
B1630254246826N00240918WA0135201352
B1630264246821N00240926WA0135201352
B1630274246816N00240934WA0135101351
B1630284246812N00240941WA0134901349
B1630294246808N00240949WA0134701347
B1630304246803N00240957WA0134501345
B1630314246798N00240966WA0134201342
B1630324246792N00240975WA0134101341
B1630334246787N00240984WA0134001340
B1630344246783N00240992WA0134001340
B1630354246779N00240999WA0133901339
B1630364246776N00241006WA0133701337
B1630374246771N00241014WA0133601336
B1630384246767N00241023WA0133301333
B1630394246763N00241030WA0133101331
B1630404246760N00241038WA0133001330
B1630414246757N00241046WA0132901329
B1630424246753N00241054WA0132801328
B1630434246750N00241062WA0132601326
B1630444246749N00241069WA0132401324
B1630454246746N00241079WA0132301323
B1630464246742N00241087WA0132201322
B1630474246740N00241096WA0132101321
B1630484246738N00241104WA0132001320
B1630494246736N00241112WA0132001320
B1630504246734N00241120WA0131901319
B1630514246732N00241129WA0131801318
B1630524246730N00241136WA0131601316
B1630534246731N00241145WA0131501315
B1630544246731N00241155WA0131401314
B1630554246732N00241162WA0131401314
B1630564246732N00241170WA0131401314
B1630574246731N00241177WA0131401314
B1630584246731N00241183WA0131301313
B1630594246731N00241189WA0131101311
B1631004246730N00241196WA0130901309
B1631014246730N00241203WA0130801308
B1631024246730N00241211WA0130801308
B1631034246730N00241218WA0130801308
B1631044246730N00241225WA0130901309
B1631054246729N00241232WA0130801308
B1631064246729N00241239WA0130701307
B1631074246728N00241246WA0130501305
B1631084246727N00241253WA0130401304
B1631094246727N00241258WA0130401304
B1631104246727N00241263WA0130401304
B1631114246727N00241268WA0130401304
B1631124246727N00241274WA0130401304
B1631134246728N00241280WA0130201302
B1631144246728N00241286WA0130101301
B1631154246729N00241291WA0129901299
B1631164246731N00241296WA0129901299
B1631174246732N00241301WA0129801298
B1631184246733N00241306WA0129801298
B1631194246734N00241312WA0129701297
B1631204246734N00241317WA0129501295
B1631214246734N00241324WA0129401294
B1631224246733N00241332WA0129201292
B1631234246731N00241341WA0129001290
B1631244246729N00241352WA0128901289
B1631254246726N00241362WA0128801288
B1631264246722N00241369WA0128701287
B1631274246718N00241378WA0128401284
B1631284246712N00241387WA0128101281
B1631294246705N00241396WA0127901279
B1631304246698N00241403WA0127601276
B1631314246689N00241407WA0127401274
B1631324246682N00241414WA0127201272
B1631334246674N00241419WA0126901269
B1631344246665N00241424WA0125501255
B1631354246658N00241432WA0126201262
B1631364246651N00241441WA0126201262
B1631374246643N00241447WA0126001260
B1631384246637N00241454WA0125701257
B1631394246629N00241462WA0125401254
B1631404246621N00241467WA0125001250
B1631414246612N00241471WA0124701247
B1631424246601N00241476WA0124401244
B1631434246592N00241479WA0124301243
B1631444246583N00241482WA0124101241
B1631454246574N00241485WA0124001240
B1631464246565N00241488WA0123801238
B1631474246556N00241491WA0123601236
B1631484246544N00241493WA0123301233
B1631494246533N00241496WA0123201232
B1631504246523N00241500WA0123101231
B1631514246514N00241502WA0123101231
B1631524246505N00241505WA0122901229
B1631534246496N00241508WA0122701227
B1631544246487N00241511WA0122401224
B1631554246478N00241514WA0122001220
B1631564246470N00241516WA0121601216
B1631574246460N00241520WA0121101211
B1631584246450N00241524WA0120701207
B1631594246441N00241527WA0120601206
B1632004246432N00241531WA0120401204
B1632014246423N00241535WA0120301203
B1632024246414N00241540WA0120101201
B1632034246405N00241545WA0119901199
B1632044246396N00241549WA0119701197
B1632054246387N00241553WA0119401194
B1632064246378N00241558WA0119001190
B1632074246369N00241562WA0118801188
B1632084246360N00241567WA0118501185
B1632094246350N00241571WA0118201182
B1632104246341N00241576WA0118001180
B1632114246331N00241580WA0117801178
B1632124246323N00241583WA0117501175
B1632134246314N00241586WA0117301173
B1632144246305N00241590WA0116901169
B1632154246296N00241595WA0116601166
B1632164246286N00241599WA0116501165
B1632174246277N00241603WA0116401164
B1632184246268N00241607WA0116301163
B1632194246259N00241610WA0116001160
B1632204246250N00241614WA0115701157
B1632214246242N00241618WA0115301153
B1632224246233N00241622WA0115001150
B1632234246223N00241626WA0115001150
B1632244246214N00241628WA0114901149
B1632254246204N00241631WA0114701147
B1632264246196N00241634WA0114501145
B1632274246187N00241639WA0114201142
B1632284246178N00241643WA0113901139
B1632294246170N00241647WA0113601136
B1632304246161N00241652WA0113301133
B1632314246151N00241656WA0112901129
B1632324246142N00241661WA0112501125
B1632334246133N00241666WA0112201122
B1632344246124N00241669WA0112001120
B1632354246114N00241673WA0111701117
B1632364246105N00241676WA0111501115
B1632374246097N00241679WA0111401114
B1632384246089N00241683WA0111101111
B1632394246080N00241686WA0110901109
B1632404246070N00241689WA0110601106
B1632414246061N00241692WA0110401104
B1632424246052N00241695WA0110301103
B1632434246043N00241699WA0110301103
B1632444246034N00241702WA0110101101
B1632454246025N00241706WA0109901099
B1632464246016N00241709WA0109701097
B1632474246007N00241712WA0109501095
B1632484245998N00241715WA0109301093
B1632494245989N00241719WA0109301093
B1632504245981N00241722WA0109401094
B1632514245973N00241726WA0109201092
B1632524245965N00241729WA0109001090
B1632534245956N00241733WA0108601086
B1632544245947N00241735WA0108201082
B1632554245938N00241738WA0108101081
B1632564245929N00241741WA0108101081
B1632574245922N00241742WA0108001080
B1632584245914N00241744WA0107801078
B1632594245905N00241746WA0107401074
B1633004245896N00241749WA0107101071
B1633014245887N00241752WA0106701067
B1633024245878N00241753WA0106501065
B1633034245870N00241755WA0106401064
B1633044245862N00241756WA0106101061
B1633054245853N00241759WA0105801058
B1633064245844N00241760WA0105301053
B1633074245834N00241762WA0105001050
B1633084245825N00241764WA0104901049
B1633094245817N00241765WA0104801048
B1633104245808N00241766WA0104601046
B1633114245800N00241768WA0104301043
B1633124245791N00241771WA0104001040
B1633134245782N00241773WA0103701037
B1633144245774N00241774WA0103401034
B1633154245765N00241778WA0103201032
B1633164245755N00241779WA0103201032
B1633174245747N00241778WA0103101031
B1633184245738N00241779WA0102901029
B1633194245730N00241780WA0102701027
B1633204245721N00241781WA0102401024
B1633214245712N00241784WA0102001020
B1633224245703N00241783WA0101801018
B1633234245694N00241785WA0101701017
B1633244245685N00241787WA0101601016
B1633254245676N00241787WA0101401014
B1633264245667N00241788WA0101201012
B1633274245659N00241787WA0100901009
B1633284245650N00241787WA0100601006
B1633294245640N00241790WA0100401004
B1633304245631N00241791WA0100301003
B1633314245621N00241792WA0100101001
B1633324245613N00241792WA0099900999
B1633334245604N00241792WA0099700997
B1633344245595N00241792WA0099600996
B1633354245587N00241791WA0099500995
B1633364245577N00241791WA0099400994
B1633374245569N00241790WA0099300993
B1633384245560N00241790WA0099200992
B1633394245551N00241790WA0099100991
B1633404245542N00241790WA0099000990
B1633414245533N00241790WA0099000990
B1633424245523N00241788WA0098900989
B1633434245514N00241787WA0098800988
B1633444245505N00241787WA0098600986
B1633454245496N00241787WA0098300983
B1633464245487N00241787WA0098000980
B1633474245479N00241787WA0097700977
B1633484245470N00241787WA0097500975
B1633494245461N00241787WA0097400974
B1633504245452N00241787WA0097300973
B1633514245444N00241787WA0097000970
B1633524245435N00241787WA0096800968
B1633534245426N00241787WA0096600966
B1633544245419N00241786WA0096500965
B1633554245412N00241786WA0096400964
B1633564245403N00241785WA0096200962
B1633574245395N00241784WA0095900959
B1633584245385N00241783WA0095700957
B1633594245377N00241781WA0095600956
B1634004245368N00241779WA0095600956
B1634014245359N00241778WA0095400954
B1634024245351N00241776WA0095200952
B1634034245342N00241774WA0094900949
B1634044245334N00241773WA0094700947
B1634054245325N00241771WA0094400944
B1634064245317N00241771WA0094300943
B1634074245309N00241768WA0094200942
B1634084245300N00241767WA0094000940
B1634094245291N00241766WA0093800938
B1634104245282N00241765WA0093600936
B1634114245273N00241764WA0093400934
B1634124245265N00241762WA0093200932
B1634134245257N00241761WA0093100931
B1634144245248N00241760WA0093000930
B1634154245240N00241759WA0092900929
B1634164245233N00241755WA0092900929
B1634174245227N00241752WA0092900929
B1634184245220N00241750WA0092700927
B1634194245215N00241745WA0092500925
B1634204245209N00241741WA0092300923
B1634214245203N00241736WA0092100921
B1634224245196N00241733WA0092100921
B1634234245189N00241727WA0091900919
B1634244245182N00241724WA0091800918
B1634254245176N00241719WA0091700917
B1634264245169N00241716WA0091700917
B1634274245162N00241714WA0091700917
B1634284245155N00241709WA0091800918
B1634294245147N00241706WA0091800918
B1634304245140N00241703WA0091900919
B1634314245133N00241699WA0092000920
B1634324245126N00241696WA0092100921
B1634334245119N00241695WA0092300923
B1634344245111N00241695WA0092400924
B1634354245104N00241696WA0092400924
B1634364245098N00241702WA0092400924
B1634374245092N00241708WA0092500925
B1634384245086N00241716WA0092500925
B1634394245082N00241725WA0092500925
B1634404245078N00241734WA0092500925
B1634414245078N00241743WA0092600926
B1634424245078N00241752WA0092700927
B1634434245078N00241754WA0092800928
B1634444245080N00241752WA0092700927
B1634454245081N00241748WA0092700927
B1634464245081N00241741WA0092600926
B1634474245080N00241736WA0092500925
B1634484245077N00241729WA0092500925
B1634494245072N00241722WA0092600926
B1634504245066N00241716WA0092700927
B1634514245058N00241714WA0092800928
B1634524245050N00241714WA0092900929
B1634534245042N00241716WA0092900929
B1634544245034N00241721WA0093000930
B1634554245029N00241728WA0093100931
B1634564245024N00241738WA0093100931
B1634574245021N00241747WA0093100931
B1634584245021N00241755WA0093100931
B1634594245022N00241760WA0093200932
B1635004245023N00241766WA0093200932
B1635014245024N00241771WA0093100931
B1635024245025N00241771WA0093100931
B1635034245025N00241771WA0093000930
B1635044245027N00241765WA0092800928
B1635054245026N00241760WA0092600926
B1635064245025N00241754WA0092700927
B1635074245023N00241748WA0092800928
B1635084245017N00241741WA0093000930
B1635094245010N00241737WA0092900929
B1635104245003N00241733WA0092900929
B1635114244995N00241729WA0093000930
B1635124244987N00241727WA0093200932
B1635134244978N00241728WA0093200932
B1635144244970N00241734WA0093200932
B1635154244963N00241741WA0093100931
B1635164244958N00241752WA0093100931
B1635174244954N00241760WA0093100931
B1635184244951N00241771WA0093200932
B1635194244951N00241778WA0093300933
B1635204244952N00241782WA0093400934
B1635214244953N00241785WA0093400934
B1635224244954N00241785WA0093500935
B1635234244954N00241783WA0093500935
B1635244244953N00241778WA0093500935
B1635254244952N00241772WA0093400934
B1635264244947N00241765WA0093400934
B1635274244942N00241759WA0093400934
B1635284244935N00241755WA0093500935
B1635294244928N00241753WA0093500935
B1635304244920N00241753WA0093500935
B1635314244911N00241756WA0093500935
B1635324244903N00241763WA0093500935
B1635334244895N00241772WA0093400934
B1635344244890N00241781WA0093500935
B1635354244885N00241791WA0093500935
B1635364244883N00241802WA0093600936
B1635374244885N00241809WA0093700937
B1635384244885N00241816WA0093800938
B1635394244885N00241821WA0093900939
B1635404244885N00241826WA0093900939
B1635414244885N00241831WA0093800938
B1635424244885N00241836WA0093800937
B1635434244885N00241840WA0093600936
B1635444244886N00241840WA0093400934
B1635454244886N00241840WA0093100931
B1635464244886N00241834WA0093100930
B1635474244885N00241828WA0093200932
B1635484244883N00241818WA0093300933
B1635494244877N00241812WA0093300933
B1635504244870N00241809WA0093400934
B1635514244864N00241803WA0093400934
B1635524244859N00241799WA0093500935
B1635534244852N00241796WA0093500935
B1635544244845N00241797WA0093500935
B1635554244837N00241798WA0093500935
B1635564244829N00241803WA0093600936
B1635574244821N00241807WA0093800938
B1635584244815N00241814WA0094000939
B1635594244809N00241824WA0094000940
B1636004244806N00241835WA0093900939
B1636014244803N00241845WA0094000940
B1636024244803N00241852WA0094000940
B1636034244802N00241859WA0093900939
B1636044244804N00241860WA0093800938
B1636054244809N00241861WA0093700937
B1636064244813N00241859WA0093700937
B1636074244814N00241855WA0093700937
B1636084244813N00241850WA0093800938
B1636094244810N00241844WA0093800938
B1636104244805N00241838WA0093800938
B1636114244799N00241832WA0093800938
B1636124244792N00241828WA0093800938
B1636134244785N00241822WA0093900939
B1636144244778N00241818WA0094000940
B1636154244770N00241817WA0094000940
B1636164244761N00241816WA0094000940
B1636174244752N00241821WA0093900939
B1636184244744N00241824WA0094000940
B1636194244737N00241833WA0094000940
B1636204244732N00241842WA0094200942
B1636214244728N00241851WA0094200942
B1636224244725N00241859WA0094300943
B1636234244724N00241866WA0094300943
B1636244244724N00241872WA0094300943
B1636254244725N00241873WA0094200942
B1636264244727N00241873WA0094300942
B1636274244725N00241866WA0094300943
B1636284244722N00241859WA0094400943
B1636294244718N00241853WA0094400944
B1636304244711N00241847WA0094500945
B1636314244703N00241842WA0094600946
B1636324244696N00241840WA0094600946
B1636334244687N00241840WA0094600946
B1636344244679N00241841WA0094700947
B1636354244670N00241845WA0094800948
B1636364244663N00241852WA0094800948
B1636374244657N00241859WA0094800948
B1636384244653N00241868WA0094700947
B1636394244649N00241878WA0094700947
B1636404244649N00241885WA0094800948
B1636414244648N00241890WA0094800948
B1636424244650N00241891WA0094900949
B1636434244650N00241891WA0094900949
B1636444244649N00241888WA0094900949
B1636454244648N00241885WA0094900948
B1636464244644N00241878WA0094900949
B1636474244639N00241872WA0095100951
B1636484244633N00241866WA0095300952
B1636494244626N00241864WA0095300952
B1636504244620N00241866WA0095200952
B1636514244612N00241867WA0095100951
B1636524244605N00241871WA0095200952
B1636534244598N00241878WA0095100951
B1636544244594N00241886WA0095100951
B1636554244590N00241894WA0095100951
B1636564244588N00241904WA0095100951
B1636574244587N00241910WA0095200952
B1636584244586N00241917WA0095300953
B1636594244588N00241921WA0095300953
B1637004244589N00241922WA0095400954
B1637014244590N00241925WA0095400954
B1637024244590N00241925WA0095400954
B1637034244590N00241925WA0095400954
B1637044244591N00241921WA0095500955
B1637054244587N00241916WA0095600956
B1637064244582N00241909WA0095700956
B1637074244576N00241901WA0095700957
B1637084244568N00241897WA0095700957
B1637094244560N00241894WA0095800957
B1637104244552N00241895WA0095700957
B1637114244545N00241902WA0095700957
B1637124244538N00241909WA0095800958
B1637134244532N00241918WA0095800958
B1637144244528N00241926WA0095900959
B1637154244524N00241933WA0095900959
B1637164244523N00241942WA0096000960
B1637174244522N00241947WA0096000960
B1637184244523N00241949WA0096000960
B1637194244523N00241949WA0096000960
B1637204244522N00241944WA0096000960
B1637214244520N00241937WA0096100961
B1637224244515N00241930WA0096100961
B1637234244509N00241923WA0096200962
B1637244244502N00241920WA0096300962
B1637254244496N00241918WA0096300962
B1637264244487N00241917WA0096300963
B1637274244479N00241922WA0096200962
B1637284244473N00241929WA0096300963
B1637294244467N00241938WA0096300963
B1637304244462N00241947WA0096300963
B1637314244460N00241954WA0096300963
B1637324244460N00241961WA0096300963
B1637334244460N00241966WA0096400963
B1637344244460N00241969WA0096400964
B1637354244461N00241971WA0096400964
B1637364244462N00241967WA0096400964
B1637374244461N00241959WA0096500965
B1637384244457N00241952WA0096600966
B1637394244452N00241945WA0096600966
B1637404244445N00241938WA0096600966
B1637414244438N00241935WA0096700967
B1637424244429N00241932WA0096700967
B1637434244420N00241935WA0096700967
B1637444244411N00241939WA0096600966
B1637454244403N00241947WA0096600966
B1637464244398N00241956WA0096500965
B1637474244395N00241966WA0096500964
B1637484244394N00241971WA0096300963
B1637494244394N00241977WA0096300963
B1637504244395N00241979WA0096300963
B1637514244397N00241978WA0096400964
B1637524244399N00241975WA0096500965
B1637534244400N00241973WA0096500965
B1637544244398N00241967WA0096600965
B1637554244396N00241961WA0096500965
B1637564244394N00241954WA0096600966
B1637574244392N00241947WA0096700967
B1637584244387N00241942WA0096800968
B1637594244382N00241937WA0096900969
B1638004244376N00241935WA0096900969
B1638014244369N00241931WA0096900969
B1638024244362N00241928WA0096900969
B1638034244354N00241928WA0096900969
B1638044244345N00241928WA0096800968
B1638054244338N00241935WA0096800968
B1638064244330N00241940WA0096700967
B1638074244322N00241947WA0096800968
B1638084244317N00241956WA0096800967
B1638094244314N00241966WA0096700967
B1638104244314N00241974WA0096700967
B1638114244313N00241981WA0096800968
B1638124244314N00241986WA0096900969
B1638134244314N00241987WA0097000970
B1638144244314N00241987WA0097000970
B1638154244316N00241985WA0097000970
B1638164244318N00241983WA0097000970
B1638174244318N00241980WA0097000970
B1638184244319N00241977WA0096900969
B1638194244317N00241973WA0096900969
B1638204244314N00241966WA0096900969
B1638214244310N00241960WA0096900969
B1638224244305N00241956WA0096900969
B1638234244299N00241952WA0096800968
B1638244244292N00241950WA0096700967
B1638254244284N00241948WA0096500965
B1638264244277N00241947WA0096500965
B1638274244268N00241945WA0096400964
B1638284244259N00241945WA0096200962
B1638294244251N00241948WA0095900959
B1638304244241N00241952WA0095700957
B1638314244232N00241957WA0095600956
B1638324244224N00241963WA0095500955
B1638334244216N00241971WA0095400954
B1638344244209N00241979WA0095300953
B1638354244202N00241987WA0095300953
B1638364244196N00241995WA0095200952
B1638374244190N00242005WA0095200952
B1638384244184N00242016WA0095100951
B1638394244180N00242024WA0095100951
B1638404244174N00242033WA0095100951
B1638414244168N00242042WA0095200952
B1638424244163N00242049WA0095200952
B1638434244157N00242056WA0095200952
B1638444244151N00242064WA0095200952
B1638454244145N00242073WA0095100951
B1638464244139N00242081WA0095000950
B1638474244132N00242092WA0095000950
B1638484244126N00242101WA0095100951
B1638494244121N00242111WA0095100951
B1638504244116N00242119WA0095200952
B1638514244112N00242127WA0095200952
B1638524244109N00242133WA0095300953
B1638534244107N00242142WA0095300953
B1638544244105N00242149WA0095300953
B1638554244105N00242153WA0095200952
B1638564244105N00242156WA0095200952
B1638574244105N00242157WA0095300953
B1638584244105N00242157WA0095300953
B1638594244106N00242150WA0095300953
B1639004244104N00242145WA0095300953
B1639014244101N00242140WA0095300953
B1639024244097N00242135WA0095300953
B1639034244090N00242131WA0095200952
B1639044244081N00242128WA0095200952
B1639054244073N00242126WA0095300953
B1639064244065N00242125WA0095400954
B1639074244056N00242125WA0095400954
B1639084244048N00242124WA0095400954
B1639094244039N00242124WA0095300953
B1639104244030N00242124WA0095300953
B1639114244021N00242126WA0095300953
B1639124244012N00242131WA0095300953
B1639134244004N00242142WA0095300953
B1639144243998N00242150WA0095400954
B1639154243992N00242159WA0095400954
B1639164243989N00242168WA0095400954
B1639174243988N00242175WA0095300953
B1639184243988N00242183WA0095200952
B1639194243988N00242188WA0095200952
B1639204243988N00242192WA0095100951
B1639214243989N00242193WA0095000950
B1639224243989N00242193WA0095000950
B1639234243989N00242193WA0095000950
B1639244243989N00242193WA0095100951
B1639254243991N00242187WA0095100951
B1639264243989N00242184WA0095100951
B1639274243987N00242181WA0095100951
B1639284243983N00242178WA0095100951
B1639294243979N00242175WA0095100951
B1639304243973N00242172WA0095000950
B1639314243968N00242168WA0094900949
B1639324243964N00242164WA0094900949
B1639334243959N00242161WA0094900949
B1639344243954N00242156WA0094900949
B1639354243947N00242154WA0094800948
B1639364243940N00242151WA0094800948
B1639374243932N00242149WA0094800948
B1639384243924N00242147WA0094700947
B1639394243916N00242146WA0094800948
B1639404243908N00242146WA0094800948
B1639414243900N00242146WA0094800948
B1639424243892N00242146WA0094700947
B1639434243884N00242147WA0094500945
B1639444243876N00242149WA0094300943
B1639454243867N00242149WA0094200942
B1639464243858N00242151WA0094100941
B1639474243849N00242154WA0094100941
B1639484243840N00242157WA0094000940
B1639494243832N00242163WA0094000940
B1639504243825N00242169WA0094000940
B1639514243817N00242175WA0094000940
B1639524243810N00242182WA0093800938
B1639534243803N00242188WA0093700937
B1639544243795N00242195WA0093500935
B1639554243788N00242202WA0093500935
B1639564243780N00242211WA0093500935
B1639574243773N00242219WA0093400934
B1639584243766N00242227WA0093300933
B1639594243760N00242237WA0093100931
B1640004243753N00242245WA0093000930
B1640014243747N00242256WA0092800928
B1640024243740N00242264WA0092700927
B1640034243734N00242273WA0092700927
B1640044243729N00242282WA0092600926
B1640054243724N00242291WA0092600926
B1640064243719N00242300WA0092600926
B1640074243715N00242309WA0092600926
B1640084243710N00242318WA0092600926
B1640094243707N00242325WA0092600926
B1640104243703N00242333WA0092400924
B1640114243700N00242344WA0092200922
B1640124243697N00242353WA0092100921
B1640134243694N00242363WA0092000920
B1640144243690N00242373WA0092000920
B1640154243689N00242379WA0091900919
B1640164243686N00242388WA0091900919
B1640174243683N00242397WA0091800918
B1640184243681N00242406WA0091800918
B1640194243679N00242413WA0091800918
B1640204243678N00242421WA0091900919
B1640214243677N00242429WA0091800918
B1640224243675N00242436WA0091800918
B1640234243674N00242444WA0091700917
B1640244243673N00242451WA0091600916
B1640254243672N00242461WA0091500915
B1640264243671N00242470WA0091400914
B1640274243671N00242475WA0091300913
B1640284243670N00242482WA0091300913
B1640294243669N00242489WA0091100911
B1640304243669N00242496WA0090900909
B1640314243668N00242503WA0090600906
B1640324243667N00242511WA0090200902
B1640334243666N00242520WA0090000900
B1640344243665N00242526WA0090000900
B1640354243664N00242533WA0090000901
B1640364243664N00242540WA0090100901
B1640374243664N00242545WA0089900900
B1640384243665N00242549WA0089800898
B1640394243667N00242552WA0089600897
B1640404243670N00242555WA0089500896
B1640414243674N00242559WA0089600896
B1640424243675N00242565WA0089600896
B1640434243676N00242573WA0089500895
B1640444243675N00242580WA0089500895
B1640454243675N00242586WA0089400894
B1640464243675N00242593WA0089300893
B1640474243676N00242600WA0089200892
B1640484243676N00242608WA0089000890
B1640494243677N00242617WA0088800888
B1640504243677N00242627WA0088800888
B1640514243677N00242635WA0088700887
B1640524243677N00242643WA0088600886
B1640534243676N00242652WA0088500885
B1640544243676N00242660WA0088400884
B1640554243675N00242668WA0088300883
B1640564243674N00242677WA0088300883
B1640574243673N00242684WA0088100881
B1640584243672N00242692WA0087900879
B1640594243670N00242701WA0087600876
B1641004243669N00242711WA0087500875
B1641014243667N00242719WA0087400874
B1641024243665N00242727WA0087400874
B1641034243663N00242734WA0087400874
B1641044243661N00242742WA0087300873
B1641054243658N00242749WA0087200872
B1641064243655N00242758WA0087000870
B1641074243653N00242766WA0086700867
B1641084243650N00242774WA0086400864
B1641094243648N00242784WA0086200862
B1641104243646N00242791WA0086100861
B1641114243644N00242798WA0085900859
B1641124243642N00242806WA0085700857
B1641134243639N00242813WA0085400854
B1641144243636N00242823WA0085100851
B1641154243633N00242831WA0084800848
B1641164243629N00242839WA0084600846
B1641174243624N00242847WA0084400844
B1641184243618N00242854WA0084100841
B1641194243610N00242857WA0083800838
B1641204243599N00242856WA0083500835
B1641214243590N00242854WA0083200832
B1641224243581N00242853WA0083000830
B1641234243573N00242849WA0082900829
B1641244243565N00242847WA0082600826
B1641254243558N00242845WA0082200822
B1641264243551N00242843WA0081800818
B1641274243544N00242841WA0081500815
B1641284243536N00242837WA0081300813
B1641294243528N00242834WA0081200812
B1641304243520N00242829WA0081200812
B1641314243511N00242825WA0081200812
B1641324243503N00242822WA0081000810
B1641334243495N00242817WA0080800808
B1641344243488N00242813WA0080500805
B1641354243480N00242809WA0080100801
B1641364243473N00242804WA0079800798
B1641374243465N00242799WA0079900799
B1641384243457N00242794WA0079800798
B1641394243449N00242791WA0079900799
B1641404243441N00242785WA0079700797
B1641414243434N00242781WA0079500795
B1641424243426N00242778WA0079300793
B1641434243419N00242774WA0079300793
B1641444243410N00242770WA0079300793
B1641454243402N00242766WA0079300793
B1641464243395N00242762WA0079300793
B1641474243388N00242759WA0079300793
B1641484243381N00242756WA0079400794
B1641494243374N00242753WA0079500795
B1641504243368N00242749WA0079700797
B1641514243362N00242747WA0079700797
B1641524243357N00242746WA0079700797
B1641534243352N00242744WA0079700797
B1641544243349N00242741WA0079600796
B1641554243347N00242736WA0079600796
B1641564243345N00242732WA0079600796
B1641574243345N00242728WA0079700797
B1641584243345N00242725WA0079800798
B1641594243345N00242723WA0079800798
B1642004243347N00242722WA0079700797
B1642014243350N00242723WA0079700797
B1642024243354N00242727WA0079600796
B1642034243358N00242732WA0079700797
B1642044243358N00242740WA0079700797
B1642054243355N00242748WA0079700797
B1642064243352N00242759WA0079600796
B1642074243347N00242766WA0079600796
B1642084243343N00242773WA0079600796
B1642094243335N00242779WA0079600796
B1642104243328N00242784WA0079500795
B1642114243320N00242786WA0079400794
B1642124243312N00242791WA0079400794
B1642134243303N00242793WA0079400794
B1642144243296N00242794WA0079400794
B1642154243287N00242796WA0079300793
B1642164243279N00242797WA0079300793
B1642174243271N00242798WA0079300793
B1642184243263N00242798WA0079300793
B1642194243255N00242797WA0079200792
B1642204243248N00242796WA0079000790
B1642214243242N00242794WA0078900789
B1642224243234N00242791WA0078800788
B1642234243227N00242787WA0078700787
B1642244243221N00242784WA0078700787
B1642254243216N00242778WA0078600786
B1642264243209N00242774WA0078600786
B1642274243202N00242769WA0078600786
B1642284243196N00242765WA0078700787
B1642294243191N00242761WA0078700787
B1642304243184N00242758WA0078700787
B1642314243178N00242754WA0078600786
B1642324243170N00242751WA0078500785
B1642334243163N00242747WA0078500785
B1642344243155N00242743WA0078500785
B1642354243147N00242739WA0078500785
B1642364243140N00242735WA0078600786
B1642374243133N00242730WA0078700787
B1642384243126N00242727WA0078800788
B1642394243120N00242721WA0078800788
B1642404243115N00242715WA0078900789
B1642414243111N00242708WA0079100791
B1642424243109N00242703WA0079300793
B1642434243110N00242700WA0079400794
B1642444243113N00242699WA0079400794
B1642454243117N00242702WA0079500795
B1642464243118N00242707WA0079600796
B1642474243118N00242716WA0079800798
B1642484243114N00242724WA0079900799
B1642494243107N00242729WA0080000800
B1642504243099N00242734WA0080100801
B1642514243090N00242732WA0080200802
B1642524243081N00242728WA0080200802
B1642534243076N00242721WA0080300803
B1642544243073N00242715WA0080500805
B1642554243073N00242707WA0080700807
B1642564243072N00242705WA0080800808
B1642574243074N00242701WA0080900809
B1642584243077N00242703WA0080900809
B1642594243075N00242709WA0081000810
B1643004243072N00242717WA0081200812
B1643014243068N00242727WA0081400814
B1643024243061N00242732WA0081500815
B1643034243054N00242736WA0081700817
B1643044243048N00242737WA0081900819
B1643054243042N00242734WA0082000820
B1643064243038N00242729WA0082200822
B1643074243033N00242724WA0082300823
B1643084243031N00242718WA0082400824
B1643094243031N00242715WA0082400824
B1643104243034N00242710WA0082500825
B1643114243036N00242710WA0082600826
B1643124243038N00242715WA0082700827
B1643134243038N00242721WA0082800828
B1643144243036N00242729WA0082900829
B1643154243032N00242736WA0083000830
B1643164243027N00242742WA0083100831
B1643174243020N00242747WA0083100831
B1643184243012N00242749WA0083100831
B1643194243004N00242750WA0083300833
B1643204242998N00242747WA0083500835
B1643214242993N00242744WA0083700837
B1643224242990N00242737WA0083800838
B1643234242988N00242730WA0083900839
B1643244242987N00242725WA0083900839
B1643254242989N00242723WA0084000840
B1643264242993N00242721WA0084100841
B1643274242998N00242720WA0084300843
B1643284243000N00242727WA0084400844
B1643294243000N00242737WA0084500845
B1643304242998N00242748WA0084600846
B1643314242994N00242758WA0084800848
B1643324242987N00242765WA0084900849
B1643334242979N00242770WA0085100851
B1643344242970N00242772WA0085200852
B1643354242964N00242769WA0085200852
B1643364242958N00242765WA0085300853
B1643374242954N00242759WA0085500855
B1643384242952N00242753WA0085700857
B1643394242950N00242747WA0085900859
B1643404242950N00242743WA0085900859
B1643414242950N00242740WA0086100861
B1643424242954N00242740WA0086200862
B1643434242957N00242746WA0086300863
B1643444242959N00242756WA0086500865
B1643454242958N00242766WA0086800868
B1643464242957N00242775WA0086900869
B1643474242952N00242781WA0087000870
B1643484242944N00242787WA0087100871
B1643494242935N00242787WA0087200872
B1643504242929N00242784WA0087200872
B1643514242925N00242778WA0087200872
B1643524242923N00242772WA0087300873
B1643534242921N00242766WA0087400874
B1643544242920N00242761WA0087600876
B1643554242922N00242758WA0087700877
B1643564242928N00242759WA0087800878
B1643574242931N00242765WA0088000880
B1643584242933N00242772WA0088300883
B1643594242931N00242782WA0088500885
B1644004242928N00242792WA0088600886
B1644014242922N00242800WA0088600886
B1644024242915N00242804WA0088700887
B1644034242908N00242806WA0088700887
B1644044242900N00242803WA0088700887
B1644054242893N00242800WA0088700887
B1644064242888N00242795WA0088700887
B1644074242886N00242787WA0088800888
B1644084242884N00242779WA0089000890
B1644094242884N00242774WA0089300893
B1644104242885N00242769WA0089500895
B1644114242886N00242765WA0089800898
B1644124242887N00242765WA0090000900
B1644134242891N00242762WA0090300903
B1644144242895N00242762WA0090400904
B1644154242897N00242767WA0090400904
B1644164242897N00242773WA0090300903
B1644174242894N00242785WA0090400904
B1644184242886N00242796WA0090600906
B1644194242877N00242804WA0090600906
B1644204242868N00242806WA0090800907
B1644214242862N00242805WA0091000910
B1644224242856N00242803WA0091200912
B1644234242853N00242797WA0091400914
B1644244242851N00242792WA0091500915
B1644254242849N00242784WA0091500915
B1644264242851N00242780WA0091700917
B1644274242856N00242779WA0091900918
B1644284242859N00242779WA0092000920
B1644294242863N00242789WA0092100921
B1644304242862N00242800WA0092100921
B1644314242859N00242810WA0092200922
B1644324242855N00242820WA0092300923
B1644334242847N00242828WA0092400924
B1644344242839N00242832WA0092400924
B1644354242831N00242834WA0092600925
B1644364242824N00242834WA0092700926
B1644374242817N00242829WA0092700927
B1644384242813N00242825WA0092700927
B1644394242811N00242818WA0092800928
B1644404242810N00242812WA0093000930
B1644414242811N00242807WA0093000930
B1644424242814N00242805WA0093100931
B1644434242818N00242805WA0093300933
B1644444242821N00242808WA0093500935
B1644454242823N00242814WA0093800938
B1644464242824N00242824WA0093900939
B1644474242822N00242834WA0093900939
B1644484242816N00242843WA0094100940
B1644494242809N00242853WA0094300943
B1644504242800N00242858WA0094400944
B1644514242792N00242862WA0094400944
B1644524242784N00242862WA0094500945
B1644534242777N00242863WA0094500945
B1644544242769N00242863WA0094600946
B1644554242763N00242861WA0094700947
B1644564242759N00242857WA0094800948
B1644574242756N00242853WA0094800948
B1644584242755N00242848WA0094800948
B1644594242755N00242846WA0094900949
B1645004242755N00242846WA0095000950
B1645014242757N00242847WA0095000950
B1645024242758N00242854WA0095100951
B1645034242757N00242864WA0095300953
B1645044242754N00242875WA0095700957
B1645054242748N00242883WA0096100961
B1645064242742N00242891WA0096000960
B1645074242734N00242891WA0096100961
B1645084242726N00242893WA0096100961
B1645094242718N00242893WA0096100961
B1645104242711N00242891WA0096100961
B1645114242705N00242888WA0096100961
B1645124242699N00242884WA0096100961
B1645134242696N00242879WA0096200962
B1645144242695N00242875WA0096200962
B1645154242695N00242873WA0096200962
B1645164242699N00242873WA0096200962
B1645174242704N00242875WA0096300963
B1645184242708N00242880WA0096500965
B1645194242708N00242886WA0096700967
B1645204242706N00242895WA0097000970
B1645214242702N00242903WA0097200972
B1645224242697N00242910WA0097300973
B1645234242691N00242915WA0097300973
B1645244242685N00242919WA0097400974
B1645254242677N00242920WA0097500975
B1645264242670N00242920WA0097600976
B1645274242663N00242917WA0097600976
B1645284242658N00242912WA0097700977
B1645294242653N00242907WA0097700977
B1645304242648N00242902WA0097800978
B1645314242645N00242898WA0097900979
B1645324242644N00242894WA0098000980
B1645334242644N00242894WA0098000980
B1645344242650N00242892WA0098000980
B1645354242653N00242898WA0098000980
B1645364242655N00242902WA0098100981
B1645374242654N00242910WA0098200982
B1645384242650N00242919WA0098300983
B1645394242646N00242927WA0098400984
B1645404242640N00242935WA0098500985
B1645414242633N00242941WA0098700987
B1645424242624N00242943WA0098800988
B1645434242616N00242941WA0098800988
B1645444242608N00242938WA0098800988
B1645454242602N00242935WA0098900989
B1645464242596N00242930WA0098900989
B1645474242592N00242927WA0099100991
B1645484242588N00242923WA0099200992
B1645494242584N00242919WA0099200992
B1645504242582N00242915WA0099200992
B1645514242581N00242913WA0099200992
B1645524242582N00242912WA0099200992
B1645534242588N00242913WA0099300993
B1645544242590N00242917WA0099400994
B1645554242589N00242925WA0099400994
B1645564242588N00242933WA0099600996
B1645574242585N00242942WA0099600996
B1645584242583N00242950WA0099700997
B1645594242579N00242958WA0099700997
B1646004242574N00242964WA0099800998
B1646014242568N00242969WA0099800998
B1646024242561N00242972WA0099800998
B1646034242553N00242972WA0099900999
B1646044242546N00242971WA0099900999
B1646054242539N00242968WA0099900999
B1646064242534N00242963WA0099900999
B1646074242530N00242958WA0100001000
B1646084242528N00242954WA0100001000
B1646094242526N00242949WA0100001000
B1646104242525N00242945WA0100001000
B1646114242525N00242943WA0099900999
B1646124242526N00242941WA0099900999
B1646134242530N00242938WA0099900999
B1646144242533N00242937WA0100001000
B1646154242536N00242938WA0100101001
B1646164242538N00242939WA0100301003
B1646174242540N00242941WA0100301003
B1646184242542N00242943WA0100301003
B1646194242544N00242948WA0100201002
B1646204242546N00242953WA0100301002
B1646214242547N00242961WA0100301003
B1646224242545N00242970WA0100301003
B1646234242542N00242980WA0100301003
B1646244242536N00242990WA0100301003
B1646254242529N00242998WA0100401004
B1646264242520N00243002WA0100501005
B1646274242512N00243003WA0100601006
B1646284242503N00243001WA0100801008
B1646294242496N00242998WA0100801008
B1646304242490N00242992WA0100801008
B1646314242486N00242986WA0100801008
B1646324242484N00242979WA0100801007
B1646334242483N00242975WA0100801008
B1646344242484N00242971WA0100801008
B1646354242489N00242971WA0100901009
B1646364242493N00242976WA0100901009
B1646374242495N00242983WA0101101011
B1646384242496N00242990WA0101201012
B1646394242494N00242998WA0101201012
B1646404242490N00243006WA0101201012
B1646414242485N00243014WA0101301013
B1646424242479N00243022WA0101301013
B1646434242473N00243027WA0101301013
B1646444242464N00243029WA0101401014
B1646454242456N00243030WA0101401014
B1646464242446N00243027WA0101401014
B1646474242439N00243023WA0101501015
B1646484242433N00243018WA0101501015
B1646494242429N00243012WA0101501015
B1646504242427N00243007WA0101501015
B1646514242426N00243005WA0101501015
B1646524242427N00243002WA0101601016
B1646534242428N00243000WA0101601016
B1646544242431N00242998WA0101601016
B1646554242435N00243002WA0101601016
B1646564242436N00243010WA0101601016
B1646574242435N00243019WA0101701017
B1646584242433N00243027WA0101801018
B1646594242429N00243034WA0101801018
B1647004242424N00243041WA0101801018
B1647014242418N00243048WA0101701017
B1647024242410N00243052WA0101801018
B1647034242401N00243052WA0101901019
B1647044242392N00243052WA0102001020
B1647054242385N00243048WA0102001020
B1647064242379N00243044WA0102001020
B1647074242375N00243038WA0102001020
B1647084242370N00243033WA0102101021
B1647094242368N00243029WA0102101021
B1647104242369N00243025WA0102001020
B1647114242375N00243023WA0102001020
B1647124242379N00243025WA0102001020
B1647134242382N00243029WA0102001020
B1647144242382N00243036WA0102001020
B1647154242381N00243044WA0102001020
B1647164242379N00243053WA0102001020
B1647174242375N00243062WA0101901019
B1647184242371N00243070WA0102001020
B1647194242365N00243077WA0102101021
B1647204242359N00243084WA0102101021
B1647214242352N00243088WA0102101021
B1647224242345N00243091WA0102201022
B1647234242337N00243091WA0102201022
B1647244242329N00243091WA0102301023
B1647254242321N00243090WA0102301023
B1647264242313N00243086WA0102301023
B1647274242308N00243081WA0102401023
B1647284242303N00243077WA0102401024
B1647294242299N00243071WA0102401024
B1647304242295N00243067WA0102401024
B1647314242294N00243062WA0102401024
B1647324242296N00243061WA0102301023
B1647334242299N00243059WA0102301023
B1647344242302N00243061WA0102301023
B1647354242304N00243064WA0102301023
B1647364242306N00243068WA0102301023
B1647374242306N00243076WA0102401024
B1647384242305N00243084WA0102401024
B1647394242302N00243093WA0102501025
B1647404242299N00243103WA0102501025
B1647414242294N00243109WA0102601026
B1647424242288N00243115WA0102601026
B1647434242282N00243119WA0102601026
B1647444242275N00243124WA0102601026
B1647454242266N00243124WA0102501025
B1647464242257N00243122WA0102501025
B1647474242248N00243120WA0102501025
B1647484242240N00243118WA0102601026
B1647494242232N00243116WA0102701027
B1647504242227N00243111WA0102701027
B1647514242223N00243107WA0102701027
B1647524242219N00243099WA0102701027
B1647534242218N00243094WA0102601026
B1647544242218N00243093WA0102701027
B1647554242219N00243089WA0102701027
B1647564242222N00243089WA0102701027
B1647574242224N00243090WA0102801028
B1647584242226N00243090WA0102801028
B1647594242228N00243091WA0102901029
B1648004242229N00243095WA0102901029
B1648014242230N00243101WA0102801028
B1648024242230N00243109WA0102801028
B1648034242229N00243117WA0102901029
B1648044242227N00243125WA0102901029
B1648054242224N00243132WA0103001030
B1648064242219N00243143WA0103001030
B1648074242213N00243148WA0103101031
B1648084242207N00243155WA0103201032
B1648094242201N00243159WA0103201032
B1648104242193N00243160WA0103201032
B1648114242184N00243162WA0103201032
B1648124242176N00243159WA0103201032
B1648134242168N00243156WA0103201032
B1648144242161N00243153WA0103301033
B1648154242156N00243149WA0103301034
B1648164242153N00243144WA0103301033
B1648174242150N00243139WA0103301033
B1648184242149N00243133WA0103301033
B1648194242147N00243127WA0103301033
B1648204242146N00243124WA0103301033
B1648214242146N00243119WA0103301033
B1648224242147N00243118WA0103401034
B1648234242150N00243119WA0103401034
B1648244242153N00243122WA0103301033
B1648254242154N00243128WA0103301033
B1648264242157N00243136WA0103301033
B1648274242158N00243146WA0103301033
B1648284242157N00243155WA0103401034
B1648294242155N00243163WA0103501035
B1648304242151N00243171WA0103501035
B1648314242146N00243179WA0103601036
B1648324242142N00243185WA0103501035
B1648334242137N00243193WA0103601036
B1648344242130N00243198WA0103701037
B1648354242123N00243202WA0103701037
B1648364242115N00243204WA0103801038
B1648374242107N00243203WA0103801038
B1648384242099N00243202WA0103701037
B1648394242091N00243200WA0103701037
B1648404242085N00243194WA0103801038
B1648414242082N00243189WA0103801038
B1648424242079N00243184WA0103801038
B1648434242077N00243179WA0103801038
B1648444242075N00243174WA0103901039
B1648454242075N00243171WA0103901039
B1648464242078N00243168WA0103901039
B1648474242081N00243169WA0103801038
B1648484242084N00243171WA0103801038
B1648494242086N00243174WA0103901039
B1648504242087N00243181WA0103901039
B1648514242088N00243188WA0104001040
B1648524242087N00243196WA0104101041
B1648534242084N00243204WA0104101041
B1648544242081N00243213WA0104101041
B1648554242077N00243221WA0104201042
B1648564242071N00243228WA0104301043
B1648574242066N00243235WA0104301043
B1648584242060N00243239WA0104301043
B1648594242052N00243243WA0104301043
B1649004242044N00243244WA0104201042
B1649014242036N00243244WA0104201042
B1649024242027N00243243WA0104201042
B1649034242019N00243239WA0104101041
B1649044242012N00243236WA0104101041
B1649054242007N00243231WA0104201042
B1649064242002N00243226WA0104201042
B1649074241998N00243219WA0104201042
B1649084241995N00243213WA0104201042
B1649094241995N00243209WA0104201042
B1649104241997N00243205WA0104201042
B1649114242000N00243202WA0104201042
B1649124242005N00243204WA0104201042
B1649134242007N00243208WA0104101041
B1649144242009N00243212WA0104001041
B1649154242009N00243220WA0104001040
B1649164242009N00243228WA0104001040
B1649174242007N00243237WA0104001040
B1649184242005N00243244WA0104001040
B1649194242000N00243253WA0104001040
B1649204241995N00243262WA0104001040
B1649214241989N00243269WA0104001041
B1649224241982N00243274WA0104101041
B1649234241975N00243279WA0104201042
B1649244241968N00243282WA0104201042
B1649254241961N00243283WA0104201042
B1649264241953N00243284WA0104201042
B1649274241944N00243282WA0104201042
B1649284241936N00243281WA0104301043
B1649294241929N00243276WA0104201042
B1649304241924N00243271WA0104201042
B1649314241921N00243265WA0104201042
B1649324241918N00243260WA0104101041
B1649334241917N00243254WA0104201042
B1649344241917N00243252WA0104201042
B1649354241919N00243250WA0104201042
B1649364241923N00243251WA0104101041
B1649374241926N00243254WA0104101041
B1649384241928N00243259WA0104001040
B1649394241929N00243266WA0104001040
B1649404241928N00243274WA0104001040
B1649414241928N00243282WA0104001040
B1649424241925N00243290WA0104001040
B1649434241922N00243300WA0104001040
B1649444241916N00243307WA0104001041
B1649454241911N00243314WA0104101041
B1649464241903N00243320WA0104101041
B1649474241896N00243324WA0104101041
B1649484241887N00243326WA0104001040
B1649494241877N00243326WA0104001040
B1649504241869N00243327WA0104001040
B1649514241861N00243326WA0104001040
B1649524241854N00243325WA0104001040
B1649534241847N00243324WA0104001040
B1649544241839N00243323WA0103901039
B1649554241832N00243321WA0103801038
B1649564241825N00243319WA0103701037
B1649574241818N00243315WA0103701037
B1649584241811N00243312WA0103601036
B1649594241805N00243309WA0103601036
B1650004241799N00243307WA0103501035
B1650014241792N00243304WA0103401034
B1650024241786N00243301WA0103301034
B1650034241779N00243298WA0103401034
B1650044241772N00243295WA0103401034
B1650054241766N00243293WA0103401034
B1650064241759N00243291WA0103401034
B1650074241751N00243289WA0103401034
B1650084241744N00243288WA0103201032
B1650094241736N00243286WA0103101032
B1650104241728N00243285WA0103101031
B1650114241720N00243283WA0103101031
B1650124241713N00243282WA0103101031
B1650134241705N00243281WA0103101031
B1650144241698N00243281WA0103001031
B1650154241691N00243281WA0102901029
B1650164241683N00243281WA0102801028
B1650174241674N00243281WA0102701027
B1650184241664N00243281WA0102601026
B1650194241655N00243281WA0102701027
B1650204241646N00243281WA0102701027
B1650214241638N00243281WA0102701027
B1650224241629N00243282WA0102601026
B1650234241621N00243283WA0102501025
B1650244241612N00243284WA0102401024
B1650254241604N00243284WA0102401024
B1650264241596N00243284WA0102401024
B1650274241588N00243283WA0102301023
B1650284241580N00243282WA0102201022
B1650294241573N00243282WA0102101021
B1650304241565N00243281WA0102001020
B1650314241557N00243281WA0101901019
B1650324241548N00243281WA0101801018
B1650334241539N00243283WA0101701017
B1650344241531N00243285WA0101601016
B1650354241522N00243288WA0101601016
B1650364241513N00243289WA0101501015
B1650374241505N00243291WA0101501015
B1650384241497N00243293WA0101401014
B1650394241490N00243294WA0101301013
B1650404241482N00243296WA0101101011
B1650414241473N00243298WA0100901009
B1650424241465N00243300WA0100601006
B1650434241456N00243302WA0100401004
B1650444241448N00243304WA0100401004
B1650454241440N00243305WA0100501005
B1650464241433N00243307WA0100601006
B1650474241427N00243307WA0100601006
B1650484241420N00243308WA0100501005
B1650494241412N00243308WA0100501005
B1650504241405N00243308WA0100501005
B1650514241397N00243307WA0100701007
B1650524241390N00243307WA0100801008
B1650534241382N00243305WA0100901009
B1650544241375N00243304WA0101101011
B1650554241367N00243303WA0101301013
B1650564241359N00243302WA0101501015
B1650574241353N00243298WA0101601016
B1650584241349N00243290WA0101601016
B1650594241346N00243284WA0101501015
B1651004241345N00243276WA0101601016
B1651014241345N00243269WA0101701017
B1651024241348N00243264WA0101901019
B1651034241351N00243262WA0101901019
B1651044241354N00243267WA0101901019
B1651054241354N00243275WA0101901019
B1651064241353N00243285WA0101901019
B1651074241350N00243293WA0102001020
B1651084241346N00243301WA0102101021
B1651094241339N00243307WA0102201022
B1651104241332N00243310WA0102401024
B1651114241324N00243313WA0102701027
B1651124241316N00243311WA0102901029
B1651134241310N00243307WA0103101031
B1651144241305N00243301WA0103201032
B1651154241302N00243294WA0103301033
B1651164241299N00243288WA0103601036
B1651174241298N00243282WA0103901039
B1651184241298N00243279WA0103901039
B1651194241300N00243279WA0104001040
B1651204241304N00243284WA0104101041
B1651214241308N00243290WA0104101041
B1651224241309N00243297WA0104101041
B1651234241308N00243307WA0104201042
B1651244241304N00243315WA0104201042
B1651254241298N00243323WA0104301043
B1651264241290N00243328WA0104401044
B1651274241280N00243331WA0104701047
B1651284241272N00243329WA0104901049
B1651294241266N00243326WA0105201052
B1651304241261N00243320WA0105401053
B1651314241256N00243314WA0105401054
B1651324241252N00243307WA0105601056
B1651334241251N00243300WA0105701057
B1651344241250N00243292WA0105901059
B1651354241253N00243291WA0106001060
B1651364241261N00243297WA0106101061
B1651374241264N00243305WA0106201062
B1651384241264N00243314WA0106401064
B1651394241261N00243323WA0106501065
B1651404241257N00243331WA0106601066
B1651414241251N00243339WA0106701067
B1651424241245N00243343WA0106901069
B1651434241238N00243345WA0107101071
B1651444241231N00243345WA0107201072
B1651454241224N00243341WA0107301073
B1651464241219N00243334WA0107301073
B1651474241215N00243326WA0107501075
B1651484241212N00243319WA0107701077
B1651494241213N00243315WA0107801078
B1651504241213N00243310WA0108001080
B1651514241215N00243308WA0108001081
B1651524241217N00243310WA0108101081
B1651534241219N00243314WA0108301083
B1651544241220N00243320WA0108401085
B1651554241219N00243329WA0108601086
B1651564241218N00243339WA0108701087
B1651574241216N00243348WA0108701087
B1651584241211N00243355WA0108801088
B1651594241207N00243362WA0109001090
B1652004241201N00243369WA0109201092
B1652014241193N00243367WA0109301093
B1652024241185N00243365WA0109401094
B1652034241176N00243361WA0109501095
B1652044241170N00243357WA0109601096
B1652054241165N00243350WA0109701097
B1652064241162N00243342WA0110001100
B1652074241162N00243338WA0110201102
B1652084241162N00243334WA0110401104
B1652094241164N00243333WA0110501105
B1652104241167N00243336WA0110501104
B1652114241169N00243342WA0110501105
B1652124241172N00243353WA0110501105
B1652134241172N00243361WA0110701107
B1652144241170N00243370WA0110901109
B1652154241166N00243378WA0111101111
B1652164241160N00243383WA0111301113
B1652174241153N00243386WA0111501115
B1652184241145N00243386WA0111601116
B1652194241137N00243384WA0111701117
B1652204241130N00243381WA0111701117
B1652214241124N00243376WA0111801118
B1652224241120N00243369WA0112001120
B1652234241117N00243361WA0112201122
B1652244241114N00243354WA0112401124
B1652254241114N00243350WA0112501125
B1652264241115N00243347WA0112501125
B1652274241120N00243345WA0112401124
B1652284241124N00243350WA0112401124
B1652294241126N00243355WA0112401124
B1652304241127N00243363WA0112301123
B1652314241126N00243373WA0112201122
B1652324241123N00243383WA0112201122
B1652334241118N00243393WA0112301123
B1652344241112N00243401WA0112601126
B1652354241106N00243407WA0112801128
B1652364241100N00243408WA0112901129
B1652374241092N00243410WA0112901129
B1652384241084N00243410WA0112901129
B1652394241076N00243408WA0113001130
B1652404241069N00243403WA0113101131
B1652414241064N00243397WA0113101131
B1652424241061N00243390WA0113201132
B1652434241059N00243383WA0113401134
B1652444241057N00243378WA0113601136
B1652454241057N00243376WA0113801138
B1652464241061N00243376WA0113701137
B1652474241064N00243377WA0113601136
B1652484241067N00243380WA0113401134
B1652494241068N00243385WA0113401134
B1652504241069N00243392WA0113401134
B1652514241069N00243400WA0113401134
B1652524241067N00243409WA0113501135
B1652534241063N00243418WA0113601136
B1652544241059N00243428WA0113601136
B1652554241053N00243435WA0113701137
B1652564241047N00243440WA0113801138
B1652574241041N00243445WA0114001140
B1652584241034N00243445WA0114101141
B1652594241026N00243443WA0114101141
B1653004241019N00243440WA0114001140
B1653014241012N00243436WA0114001140
B1653024241007N00243431WA0114001140
B1653034241002N00243426WA0114101141
B1653044240999N00243419WA0114201142
B1653054240999N00243415WA0114201142
B1653064241000N00243412WA0114301143
B1653074241001N00243410WA0114201142
B1653084241004N00243409WA0114201142
B1653094241007N00243411WA0114201142
B1653104241010N00243414WA0114201142
B1653114241012N00243420WA0114201142
B1653124241013N00243428WA0114201142
B1653134241014N00243436WA0114301143
B1653144241013N00243445WA0114301143
B1653154241012N00243453WA0114401144
B1653164241008N00243461WA0114401144
B1653174241004N00243470WA0114501145
B1653184240999N00243478WA0114601146
B1653194240993N00243485WA0114801148
B1653204240986N00243490WA0115001150
B1653214240978N00243491WA0115001150
B1653224240970N00243491WA0114901149
B1653234240962N00243489WA0114901149
B1653244240955N00243486WA0114801148
B1653254240950N00243480WA0114801148
B1653264240947N00243473WA0114901149
B1653274240944N00243468WA0114901149
B1653284240944N00243464WA0114901149
B1653294240946N00243460WA0115001150
B1653304240950N00243457WA0115001150
B1653314240954N00243457WA0115001150
B1653324240958N00243459WA0115001150
B1653334240961N00243462WA0115101151
B1653344240964N00243464WA0115201152
B1653354240967N00243467WA0115201152
B1653364240968N00243471WA0115301153
B1653374240970N00243476WA0115201152
B1653384240970N00243484WA0115101151
B1653394240970N00243495WA0115101151
B1653404240970N00243505WA0115201152
B1653414240969N00243514WA0115401154
B1653424240969N00243522WA0115501155
B1653434240968N00243529WA0115601156
B1653444240967N00243537WA0115601156
B1653454240965N00243546WA0115601156
B1653464240962N00243555WA0115601156
B1653474240958N00243565WA0115601156
B1653484240951N00243573WA0115701157
B1653494240944N00243580WA0115701157
B1653504240936N00243584WA0115701157
B1653514240928N00243584WA0115601156
B1653524240920N00243581WA0115401154
B1653534240912N00243578WA0115201152
B1653544240905N00243571WA0115201152
B1653554240900N00243564WA0115301153
B1653564240897N00243559WA0115201152
B1653574240896N00243554WA0115201152
B1653584240897N00243550WA0115201152
B1653594240899N00243548WA0115201152
B1654004240900N00243546WA0115201152
B1654014240903N00243546WA0115201152
B1654024240907N00243548WA0115201152
B1654034240908N00243552WA0115101151
B1654044240910N00243559WA0115001150
B1654054240911N00243565WA0114901149
B1654064240912N00243573WA0114801148
B1654074240912N00243579WA0114701147
B1654084240912N00243586WA0114501145
B1654094240912N00243593WA0114301143
B1654104240912N00243602WA0114201142
B1654114240913N00243609WA0114201142
B1654124240912N00243616WA0114201142
B1654134240911N00243624WA0114201142
B1654144240909N00243633WA0114101141
B1654154240907N00243641WA0114101141
B1654164240906N00243649WA0114001140
B1654174240904N00243657WA0113901139
B1654184240902N00243666WA0113701137
B1654194240899N00243675WA0113601136
B1654204240897N00243683WA0113501135
B1654214240895N00243692WA0113501135
B1654224240893N00243700WA0113501135
B1654234240891N00243707WA0113401134
B1654244240888N00243716WA0113301133
B1654254240883N00243725WA0113001130
B1654264240877N00243733WA0112901129
B1654274240869N00243741WA0112701127
B1654284240861N00243748WA0112501126
B1654294240853N00243753WA0112501125
B1654304240845N00243757WA0112401124
B1654314240837N00243762WA0112101121
B1654324240829N00243767WA0111801118
B1654334240821N00243772WA0111501115
B1654344240813N00243778WA0111301114
B1654354240805N00243781WA0111301113
B1654364240797N00243785WA0111201112
B1654374240789N00243787WA0111001110
B1654384240781N00243791WA0110701107
B1654394240773N00243795WA0110301103
B1654404240764N00243800WA0110101101
B1654414240756N00243804WA0110001100
B1654424240748N00243808WA0110001100
B1654434240740N00243812WA0109901099
B1654444240732N00243816WA0109701097
B1654454240724N00243818WA0109401094
B1654464240715N00243823WA0109101091
B1654474240707N00243825WA0108801088
B1654484240698N00243829WA0108401084
B1654494240690N00243832WA0108401084
B1654504240681N00243836WA0108401084
B1654514240671N00243839WA0108301083
B1654524240662N00243843WA0108201082
B1654534240652N00243847WA0108001080
B1654544240643N00243849WA0107801078
B1654554240635N00243851WA0107801078
B1654564240627N00243854WA0107801078
B1654574240619N00243855WA0107701077
B1654584240612N00243857WA0107501075
B1654594240603N00243859WA0107301073
B1655004240593N00243861WA0107201072
B1655014240584N00243863WA0107301073
B1655024240576N00243866WA0107301073
B1655034240567N00243868WA0107401074
B1655044240559N00243870WA0107501075
B1655054240550N00243873WA0107501075
B1655064240541N00243874WA0107601076
B1655074240532N00243876WA0107601076
B1655084240524N00243879WA0107601076
B1655094240515N00243881WA0107501075
B1655104240507N00243883WA0107501075
B1655114240499N00243885WA0107501075
B1655124240491N00243887WA0107601076
B1655134240483N00243889WA0107801078
B1655144240475N00243892WA0108001080
B1655154240468N00243893WA0108201082
B1655164240460N00243895WA0108301083
B1655174240453N00243896WA0108301083
B1655184240445N00243897WA0108401084
B1655194240437N00243900WA0108701087
B1655204240429N00243904WA0109001090
B1655214240423N00243911WA0109201092
B1655224240420N00243919WA0109201092
B1655234240421N00243927WA0109201092
B1655244240424N00243935WA0109201092
B1655254240427N00243940WA0109401094
B1655264240430N00243940WA0109501095
B1655274240432N00243935WA0109701097
B1655284240434N00243927WA0109801098
B1655294240433N00243920WA0110001100
B1655304240429N00243913WA0110301102
B1655314240424N00243908WA0110401104
B1655324240418N00243905WA0110501105
B1655334240412N00243906WA0110601106
B1655344240406N00243907WA0110701107
B1655354240401N00243914WA0110801108
B1655364240397N00243926WA0110901109
B1655374240395N00243937WA0111001110
B1655384240394N00243947WA0111101111
B1655394240395N00243954WA0111301113
B1655404240399N00243954WA0111401114
B1655414240402N00243954WA0111501115
B1655424240405N00243949WA0111601116
B1655434240405N00243940WA0111701117
B1655444240403N00243931WA0111801118
B1655454240399N00243925WA0112101121
B1655464240392N00243920WA0112301123
B1655474240385N00243918WA0112501125
B1655484240378N00243918WA0112501125
B1655494240372N00243926WA0112501125
B1655504240366N00243935WA0112701127
B1655514240363N00243945WA0112801128
B1655524240362N00243956WA0113001130
B1655534240363N00243965WA0113101131
B1655544240365N00243969WA0113301133
B1655554240367N00243971WA0113301133
B1655564240369N00243968WA0113301133
B1655574240371N00243959WA0113401134
B1655584240369N00243951WA0113501135
B1655594240366N00243944WA0113701137
B1656004240361N00243942WA0113801138
B1656014240356N00243938WA0113801138
B1656024240350N00243938WA0113801138
B1656034240343N00243944WA0114001140
B1656044240338N00243954WA0114201142
B1656054240334N00243964WA0114401144
B1656064240333N00243973WA0114501145
B1656074240335N00243980WA0114601146
B1656084240338N00243985WA0114801148
B1656094240340N00243988WA0114901149
B1656104240342N00243986WA0115001150
B1656114240344N00243983WA0115001150
B1656124240346N00243978WA0115001150
B1656134240344N00243971WA0115101151
B1656144240340N00243964WA0115201152
B1656154240334N00243958WA0115401154
B1656164240327N00243954WA0115601156
B1656174240320N00243954WA0115901159
B1656184240314N00243954WA0116201162
B1656194240308N00243956WA0116501165
B1656204240302N00243962WA0116601166
B1656214240298N00243969WA0116701167
B1656224240293N00243980WA0116801168
B1656234240291N00243990WA0116801168
B1656244240291N00243999WA0116901169
B1656254240293N00244002WA0116901169
B1656264240294N00244005WA0116901169
B1656274240295N00244005WA0116901169
B1656284240296N00244000WA0116901169
B1656294240297N00243992WA0116801168
B1656304240296N00243985WA0116701167
B1656314240292N00243978WA0116701167
B1656324240286N00243973WA0116701167
B1656334240281N00243966WA0116801168
B1656344240272N00243963WA0116901169
B1656354240264N00243961WA0117101171
B1656364240256N00243962WA0117301173
B1656374240249N00243963WA0117501175
B1656384240241N00243964WA0117801178
B1656394240234N00243967WA0118001180
B1656404240227N00243973WA0118301183
B1656414240220N00243980WA0118501185
B1656424240215N00243985WA0118701187
B1656434240211N00243993WA0118801188
B1656444240209N00244001WA0119001190
B1656454240209N00244009WA0119101191
B1656464240209N00244016WA0119301193
B1656474240211N00244018WA0119501195
B1656484240213N00244018WA0119701197
B1656494240215N00244013WA0119701197
B1656504240213N00244002WA0119801198
B1656514240209N00243992WA0120001200
B1656524240203N00243985WA0120301203
B1656534240197N00243981WA0120601206
B1656544240190N00243976WA0120801208
B1656554240182N00243973WA0121001210
B1656564240176N00243974WA0121101211
B1656574240168N00243980WA0121301213
B1656584240162N00243989WA0121501215
B1656594240157N00243999WA0121801218
B1657004240154N00244008WA0122101221
B1657014240154N00244016WA0122301223
B1657024240155N00244020WA0122501225
B1657034240155N00244020WA0122701227
B1657044240156N00244015WA0122901229
B1657054240154N00244006WA0123101231
B1657064240151N00243999WA0123201232
B1657074240146N00243992WA0123501235
B1657084240140N00243985WA0123701237
B1657094240133N00243980WA0123901239
B1657104240125N00243984WA0124001240
B1657114240119N00243992WA0124301243
B1657124240112N00244000WA0124601246
B1657134240106N00244008WA0124901249
B1657144240102N00244018WA0125201252
B1657154240099N00244024WA0125401254
B1657164240100N00244031WA0125501255
B1657174240102N00244034WA0125601256
B1657184240103N00244036WA0125701257
B1657194240105N00244035WA0125901259
B1657204240108N00244031WA0126101261
B1657214240108N00244021WA0126401264
B1657224240105N00244011WA0126701267
B1657234240099N00244005WA0126901269
B1657244240093N00244000WA0127101271
B1657254240085N00243997WA0127201272
B1657264240076N00243995WA0127401274
B1657274240067N00243999WA0127501275
B1657284240058N00244005WA0127701277
B1657294240051N00244014WA0127801278
B1657304240046N00244023WA0127901279
B1657314240042N00244031WA0128001280
B1657324240043N00244038WA0128301283
B1657334240045N00244041WA0128501285
B1657344240047N00244042WA0128801288
B1657354240048N00244041WA0129001290
B1657364240049N00244037WA0129301293
B1657374240050N00244033WA0129501295
B1657384240050N00244026WA0129701297
B1657394240047N00244018WA0129801298
B1657404240042N00244009WA0130001300
B1657414240036N00244001WA0130201302
B1657424240029N00243996WA0130401304
B1657434240021N00243992WA0130401304
B1657444240012N00243987WA0130501305
B1657454240003N00243990WA0130601306
B1657464239995N00243999WA0130701307
B1657474239989N00244008WA0130901309
B1657484239983N00244016WA0131101311
B1657494239979N00244023WA0131201312
B1657504239976N00244030WA0131301313
B1657514239975N00244035WA0131401314
B1657524239975N00244041WA0131501315
B1657534239977N00244047WA0131701317
B1657544239983N00244052WA0131901319
B1657554239988N00244053WA0132201322
B1657564239992N00244053WA0132601325
B1657574239995N00244052WA0132901329
B1657584239997N00244049WA0133201332
B1657594239997N00244043WA0133401334
B1658004239994N00244034WA0133501335
B1658014239991N00244026WA0133601336
B1658024239986N00244019WA0133901339
B1658034239980N00244012WA0134101341
B1658044239972N00244009WA0134301343
B1658054239964N00244008WA0134501345
B1658064239956N00244009WA0134701347
B1658074239950N00244014WA0134901349
B1658084239943N00244022WA0134901349
B1658094239939N00244031WA0135001350
B1658104239936N00244039WA0135201352
B1658114239935N00244046WA0135401354
B1658124239938N00244050WA0135701357
B1658134239939N00244052WA0135901359
B1658144239940N00244051WA0136201362
B1658154239941N00244044WA0136401364
B1658164239939N00244035WA0136701366
B1658174239936N00244026WA0136901369
B1658184239932N00244018WA0137101371
B1658194239927N00244012WA0137301373
B1658204239920N00244008WA0137501375
B1658214239912N00244008WA0137801378
B1658224239905N00244011WA0138101381
B1658234239897N00244016WA0138301383
B1658244239891N00244023WA0138601386
B1658254239886N00244031WA0138701387
B1658264239882N00244038WA0138801388
B1658274239882N00244045WA0138901389
B1658284239882N00244051WA0139201392
B1658294239884N00244055WA0139401394
B1658304239884N00244057WA0139701397
B1658314239884N00244057WA0139901399
B1658324239886N00244050WA0140201402
B1658334239886N00244041WA0140501405
B1658344239884N00244032WA0140801408
B1658354239880N00244024WA0141001410
B1658364239875N00244018WA0141301413
B1658374239868N00244014WA0141301413
B1658384239860N00244011WA0141501415
B1658394239852N00244011WA0141701417
B1658404239845N00244014WA0141901419
B1658414239838N00244019WA0142201422
B1658424239830N00244030WA0142401424
B1658434239826N00244038WA0142701426
B1658444239825N00244046WA0142801428
B1658454239825N00244053WA0142901429
B1658464239827N00244057WA0143001430
B1658474239828N00244061WA0143201432
B1658484239831N00244061WA0143401434
B1658494239834N00244055WA0143601436
B1658504239831N00244046WA0143801438
B1658514239827N00244037WA0144001440
B1658524239821N00244030WA0144201442
B1658534239815N00244023WA0144401444
B1658544239807N00244020WA0144501445
B1658554239798N00244016WA0144801448
B1658564239789N00244015WA0145001450
B1658574239780N00244019WA0145301453
B1658584239773N00244027WA0145501455
B1658594239767N00244034WA0145501455
B1659004239763N00244042WA0145601456
B1659014239760N00244049WA0145601456
B1659024239759N00244057WA0145701457
B1659034239760N00244062WA0145801458
B1659044239764N00244063WA0146001460
B1659054239766N00244063WA0146101461
B1659064239767N00244057WA0146301463
B1659074239766N00244050WA0146601466
B1659084239762N00244040WA0146801468
B1659094239758N00244032WA0147101471
B1659104239753N00244023WA0147301473
B1659114239746N00244018WA0147701477
B1659124239738N00244015WA0148001480
B1659134239730N00244020WA0148301483
B1659144239722N00244027WA0148601486
B1659154239716N00244035WA0148601486
B1659164239712N00244043WA0148701487
B1659174239709N00244052WA0148701487
B1659184239708N00244059WA0148801488
B1659194239709N00244064WA0148901489
B1659204239712N00244068WA0149201492
B1659214239714N00244070WA0149501495
B1659224239717N00244068WA0149801498
B1659234239718N00244061WA0150101501
B1659244239715N00244052WA0150301503
B1659254239711N00244043WA0150501505
B1659264239706N00244035WA0150601506
B1659274239699N00244028WA0150701507
B1659284239691N00244027WA0150701507
B1659294239683N00244026WA0150801508
B1659304239674N00244027WA0150901509
B1659314239665N00244028WA0151201512
B1659324239656N00244032WA0151601516
B1659334239649N00244038WA0151901519
B1659344239642N00244044WA0152201522
B1659354239640N00244052WA0152301523
B1659364239638N00244059WA0152301523
B1659374239637N00244068WA0152301523
B1659384239637N00244074WA0152501525
B1659394239638N00244081WA0152801527
B1659404239640N00244087WA0153101531
B1659414239641N00244087WA0153401534
B1659424239642N00244082WA0153701537
B1659434239643N00244077WA0153801538
B1659444239643N00244070WA0154001540
B1659454239642N00244063WA0154301543
B1659464239639N00244056WA0154501545
B1659474239634N00244051WA0154601546
B1659484239627N00244046WA0154601546
B1659494239620N00244044WA0154701547
B1659504239612N00244041WA0154801548
B1659514239603N00244041WA0155001550
B1659524239595N00244041WA0155201552
B1659534239587N00244045WA0155401554
B1659544239580N00244053WA0155601556
B1659554239573N00244061WA0155801558
B1659564239568N00244069WA0155801558
B1659574239568N00244076WA0155801558
B1659584239571N00244083WA0155901559
B1659594239574N00244087WA0156101561
B1700004239576N00244089WA0156301563
B1700014239578N00244090WA0156601566
B1700024239581N00244088WA0156901569
B1700034239582N00244085WA0157101571
B1700044239583N00244082WA0157201572
B1700054239584N00244078WA0157401574
B1700064239581N00244072WA0157501575
B1700074239578N00244063WA0157501575
B1700084239573N00244056WA0157601576
B1700094239568N00244049WA0157701577
B1700104239561N00244044WA0157801578
B1700114239553N00244040WA0157901579
B1700124239545N00244039WA0157901579
B1700134239536N00244040WA0158101581
B1700144239528N00244044WA0158201582
B1700154239520N00244053WA0158401584
B1700164239514N00244063WA0158601586
B1700174239510N00244073WA0158801588
B1700184239510N00244080WA0159001590
B1700194239511N00244087WA0159101591
B1700204239514N00244088WA0159201592
B1700214239518N00244090WA0159201592
B1700224239520N00244089WA0159401594
B1700234239522N00244085WA0159601595
B1700244239522N00244080WA0159701597
B1700254239520N00244071WA0159801598
B1700264239517N00244063WA0159901599
B1700274239512N00244056WA0160101601
B1700284239505N00244052WA0160101601
B1700294239497N00244049WA0160101601
B1700304239489N00244045WA0160101601
B1700314239479N00244044WA0160201602
B1700324239470N00244045WA0160201602
B1700334239461N00244050WA0160301603
B1700344239454N00244058WA0160401604
B1700354239448N00244068WA0160601606
B1700364239444N00244076WA0160801608
B1700374239441N00244083WA0160901609
B1700384239439N00244091WA0161001610
B1700394239438N00244097WA0161001610
B1700404239436N00244104WA0161001610
B1700414239436N00244112WA0161201612
B1700424239438N00244118WA0161301613
B1700434239438N00244122WA0161401614
B1700444239440N00244121WA0161501615
B1700454239442N00244118WA0161501615
B1700464239444N00244112WA0161701617
B1700474239444N00244103WA0161901619
B1700484239443N00244094WA0162101621
B1700494239440N00244087WA0162201622
B1700504239435N00244080WA0162201622
B1700514239430N00244073WA0162201622
B1700524239424N00244069WA0162301623
B1700534239416N00244068WA0162301623
B1700544239408N00244068WA0162401624
B1700554239400N00244070WA0162501625
B1700564239392N00244074WA0162601626
B1700574239385N00244082WA0162601626
B1700584239380N00244091WA0162701627
B1700594239377N00244100WA0162801628
B1701004239377N00244108WA0162901629
B1701014239378N00244112WA0163001630
B1701024239381N00244114WA0163101631
B1701034239385N00244112WA0163101631
B1701044239389N00244109WA0163201632
B1701054239390N00244104WA0163301633
B1701064239389N00244097WA0163401634
B1701074239386N00244088WA0163501635
B1701084239382N00244080WA0163401634
B1701094239376N00244072WA0163501635
B1701104239369N00244066WA0163501635
B1701114239362N00244063WA0163501635
B1701124239355N00244061WA0163501635
B1701134239346N00244061WA0163501635
B1701144239338N00244062WA0163501636
B1701154239329N00244068WA0163601636
B1701164239322N00244072WA0163701637
B1701174239318N00244080WA0163701637
B1701184239314N00244088WA0163801638
B1701194239311N00244096WA0163801638
B1701204239309N00244106WA0163901639
B1701214239309N00244111WA0164001640
B1701224239310N00244115WA0164101641
B1701234239312N00244116WA0164201642
B1701244239315N00244115WA0164401644
B1701254239317N00244111WA0164501645
B1701264239318N00244107WA0164501645
B1701274239317N00244101WA0164501645
B1701284239316N00244094WA0164401645
B1701294239313N00244087WA0164401644
B1701304239308N00244080WA0164401644
B1701314239302N00244072WA0164301643
B1701324239296N00244068WA0164301643
B1701334239289N00244064WA0164301643
B1701344239282N00244061WA0164401644
B1701354239274N00244058WA0164401644
B1701364239266N00244056WA0164401644
B1701374239256N00244054WA0164401645
B1701384239248N00244054WA0164501645
B1701394239239N00244054WA0164501646
B1701404239229N00244054WA0164601646
B1701414239221N00244055WA0164601647
B1701424239212N00244057WA0164601647
B1701434239205N00244061WA0164601646
B1701444239197N00244065WA0164601646
B1701454239189N00244070WA0164501645
B1701464239184N00244075WA0164301643
B1701474239176N00244082WA0164201642
B1701484239170N00244089WA0164101641
B1701494239163N00244097WA0164201642
B1701504239156N00244106WA0164101641
B1701514239150N00244113WA0164101641
B1701524239145N00244120WA0164001640
B1701534239140N00244128WA0163901639
B1701544239138N00244137WA0163801638
B1701554239138N00244147WA0163601636
B1701564239138N00244156WA0163501635
B1701574239141N00244157WA0163301633
B1701584239141N00244160WA0163101631
B1701594239147N00244157WA0162901629
B1702004239149N00244150WA0162901629
B1702014239150N00244144WA0162901629
B1702024239149N00244137WA0162801628
B1702034239147N00244128WA0162801628
B1702044239144N00244120WA0162801628
B1702054239140N00244113WA0162801628
B1702064239136N00244106WA0162901629
B1702074239132N00244099WA0162901629
B1702084239128N00244091WA0162901629
B1702094239122N00244085WA0162901629
B1702104239116N00244080WA0162901629
B1702114239109N00244075WA0162801628
B1702124239102N00244072WA0162601626
B1702134239094N00244068WA0162401625
B1702144239086N00244064WA0162301623
B1702154239078N00244061WA0162201622
B1702164239071N00244057WA0162201622
B1702174239064N00244053WA0162101621
B1702184239057N00244049WA0161901619
B1702194239050N00244045WA0161701617
B1702204239042N00244041WA0161501615
B1702214239035N00244037WA0161301613
B1702224239027N00244034WA0161101611
B1702234239020N00244031WA0161101611
B1702244239012N00244027WA0161001610
B1702254239004N00244024WA0160901609
B1702264238996N00244021WA0160701607
B1702274238988N00244018WA0160501605
B1702284238979N00244015WA0160301603
B1702294238970N00244013WA0160101601
B1702304238961N00244011WA0159701597
B1702314238952N00244007WA0159401595
B1702324238942N00244004WA0159301593
B1702334238933N00244002WA0159301593
B1702344238924N00244001WA0159301593
B1702354238916N00243999WA0159201592
B1702364238907N00243999WA0159001590
B1702374238898N00243999WA0158801588
B1702384238889N00243997WA0158601586
B1702394238880N00243997WA0158501585
B1702404238871N00243999WA0158501586
B1702414238862N00243999WA0158501585
B1702424238855N00244000WA0158501585
B1702434238847N00244001WA0158401584
B1702444238839N00244002WA0158201582
B1702454238830N00244004WA0158101581
B1702464238821N00244006WA0157801579
B1702474238811N00244008WA0157801578
B1702484238801N00244011WA0157701577
B1702494238792N00244013WA0157501575
B1702504238783N00244015WA0157401574
B1702514238774N00244018WA0157201572
B1702524238766N00244021WA0157001570
B1702534238758N00244024WA0156901569
B1702544238750N00244028WA0156701567
B1702554238741N00244031WA0156501565
B1702564238733N00244035WA0156401564
B1702574238725N00244039WA0156201562
B1702584238716N00244043WA0156001560
B1702594238708N00244047WA0155601556
B1703004238699N00244050WA0155401554
B1703014238691N00244053WA0155201552
B1703024238682N00244056WA0155101551
B1703034238673N00244059WA0154901549
B1703044238664N00244061WA0154701547
B1703054238655N00244063WA0154601546
B1703064238646N00244064WA0154501545
B1703074238636N00244066WA0154301543
B1703084238627N00244068WA0154001540
B1703094238618N00244069WA0153701537
B1703104238609N00244070WA0153401534
B1703114238600N00244072WA0153301533
B1703124238590N00244073WA0153301533
B1703134238581N00244075WA0153201532
B1703144238573N00244077WA0153001530
B1703154238564N00244078WA0152701527
B1703164238555N00244080WA0152401524
B1703174238545N00244083WA0152201522
B1703184238535N00244084WA0152101521
B1703194238526N00244087WA0152001520
B1703204238517N00244088WA0151901519
B1703214238508N00244090WA0151701517
B1703224238499N00244092WA0151501515
B1703234238490N00244094WA0151401514
B1703244238481N00244096WA0151401514
B1703254238472N00244097WA0151301513
B1703264238463N00244099WA0151201512
B1703274238454N00244100WA0151001510
B1703284238444N00244102WA0150801508
B1703294238435N00244104WA0150601507
B1703304238425N00244106WA0150501505
B1703314238415N00244108WA0150501505
B1703324238406N00244109WA0150401504
B1703334238397N00244111WA0150301503
B1703344238387N00244112WA0150101501
B1703354238378N00244114WA0149901500
B1703364238369N00244116WA0149801498
B1703374238360N00244118WA0149601496
B1703384238351N00244120WA0149501495
B1703394238341N00244123WA0149401494
B1703404238331N00244126WA0149401494
B1703414238322N00244129WA0149301493
B1703424238313N00244132WA0149201492
B1703434238304N00244135WA0149101491
B1703444238295N00244138WA0149001490
B1703454238287N00244142WA0148901489
B1703464238278N00244145WA0148801488
B1703474238269N00244149WA0148601486
B1703484238261N00244152WA0148401484
B1703494238252N00244156WA0148201482
B1703504238243N00244158WA0148001480
B1703514238234N00244160WA0148001480
B1703524238225N00244161WA0148001480
B1703534238216N00244161WA0147901479
B1703544238207N00244161WA0147801478
B1703554238198N00244160WA0147701477
B1703564238189N00244158WA0147501475
B1703574238180N00244157WA0147301473
B1703584238171N00244156WA0147101471
B1703594238162N00244153WA0146901470
B1704004238153N00244151WA0146801468
B1704014238143N00244149WA0146701468
B1704024238134N00244146WA0146701467
B1704034238124N00244144WA0146601466
B1704044238115N00244141WA0146501465
B1704054238105N00244139WA0146401464
B1704064238096N00244137WA0146401464
B1704074238087N00244134WA0146301463
B1704084238078N00244131WA0146301463
B1704094238069N00244129WA0146301463
B1704104238060N00244127WA0146201462
B1704114238051N00244125WA0146101461
B1704124238042N00244122WA0146001460
B1704134238033N00244120WA0145901459
B1704144238024N00244118WA0145901459
B1704154238015N00244114WA0145801458
B1704164238006N00244112WA0145701457
B1704174237998N00244109WA0145501455
B1704184237989N00244106WA0145401454
B1704194237980N00244104WA0145301453
B1704204237971N00244101WA0145201452
B1704214237963N00244099WA0145101451
B1704224237955N00244096WA0145001450
B1704234237947N00244094WA0144901449
B1704244237939N00244092WA0144801448
B1704254237931N00244091WA0144701447
B1704264237924N00244089WA0144401444
B1704274237915N00244088WA0144201442
B1704284237906N00244087WA0144101441
B1704294237898N00244084WA0144101441
B1704304237890N00244082WA0144101441
B1704314237883N00244080WA0144001440
B1704324237876N00244077WA0143901439
B1704334237869N00244074WA0143701437
B1704344237862N00244071WA0143401434
B1704354237855N00244068WA0143201432
B1704364237848N00244062WA0143101431
B1704374237843N00244058WA0143001430
B1704384237838N00244054WA0143001430
B1704394237832N00244049WA0142901429
B1704404237826N00244044WA0142701427
B1704414237822N00244038WA0142401424
B1704424237819N00244031WA0142201422
B1704434237815N00244025WA0142101421
B1704444237812N00244019WA0142001420
B1704454237810N00244014WA0141901419
B1704464237807N00244008WA0141701417
B1704474237805N00244003WA0141401414
B1704484237802N00243996WA0141201412
B1704494237800N00243992WA0141201412
B1704504237798N00243985WA0141101411
B1704514237796N00243980WA0141001410
B1704524237793N00243973WA0140901409
B1704534237790N00243968WA0140901409
B1704544237787N00243963WA0140901409
B1704554237784N00243958WA0140701408
B1704564237780N00243954WA0140701407
B1704574237777N00243948WA0140601406
B1704584237773N00243943WA0140601406
B1704594237770N00243938WA0140501405
B1705004237767N00243933WA0140401404
B1705014237764N00243928WA0140201402
B1705024237760N00243923WA0140101401
B1705034237757N00243917WA0140001400
B1705044237754N00243913WA0140101401
B1705054237750N00243908WA0140101401
B1705064237747N00243904WA0140001400
B1705074237743N00243899WA0139901399
B1705084237739N00243894WA0139701397
B1705094237736N00243890WA0139601396
B1705104237732N00243885WA0139401394
B1705114237729N00243880WA0139101391
B1705124237726N00243875WA0138801388
B1705134237723N00243869WA0138701387
B1705144237722N00243863WA0138501385
B1705154237722N00243857WA0138601386
B1705164237723N00243854WA0138601386
B1705174237723N00243851WA0138601386
B1705184237723N00243847WA0138501385
B1705194237723N00243842WA0138301383
B1705204237723N00243836WA0138101381
B1705214237723N00243831WA0137901379
B1705224237722N00243824WA0138001380
B1705234237720N00243819WA0138101381
B1705244237717N00243816WA0138101381
B1705254237715N00243811WA0137901379
B1705264237712N00243807WA0137601376
B1705274237710N00243802WA0137201372
B1705284237707N00243797WA0136901369
B1705294237704N00243791WA0136601366
B1705304237702N00243786WA0136601366
B1705314237701N00243780WA0136401364
B1705324237699N00243775WA0136201362
B1705334237698N00243769WA0135901359
B1705344237696N00243762WA0135701357
B1705354237694N00243756WA0135701357
B1705364237693N00243749WA0135601356
B1705374237691N00243743WA0135401354
B1705384237690N00243737WA0135201352
B1705394237688N00243730WA0134901349
B1705404237686N00243724WA0134801348
B1705414237684N00243717WA0134701347
B1705424237681N00243711WA0134601346
B1705434237679N00243705WA0134601346
B1705444237677N00243699WA0134501345
B1705454237675N00243693WA0134301343
B1705464237673N00243688WA0134001340
B1705474237672N00243682WA0133701337
B1705484237670N00243676WA0133301333
B1705494237669N00243671WA0133001330
B1705504237667N00243665WA0132801328
B1705514237666N00243659WA0132601326
B1705524237665N00243654WA0132401324
B1705534237663N00243648WA0132201322
B1705544237661N00243642WA0131901319
B1705554237660N00243636WA0131601316
B1705564237660N00243631WA0131301313
B1705574237660N00243626WA0131001310
B1705584237660N00243621WA0131001310
B1705594237660N00243616WA0130901309
B1706004237660N00243611WA0130801308
B1706014237660N00243606WA0130601306
B1706024237660N00243602WA0130401304
B1706034237660N00243597WA0130101301
B1706044237660N00243592WA0130001300
B1706054237659N00243587WA0129901299
B1706064237659N00243583WA0129701297
B1706074237660N00243576WA0129401294
B1706084237661N00243571WA0129101291
B1706094237662N00243566WA0128701287
B1706104237663N00243560WA0128501285
B1706114237664N00243555WA0128301283
B1706124237664N00243549WA0128101281
B1706134237665N00243543WA0127901279
B1706144237666N00243537WA0127701277
B1706154237666N00243530WA0127501275
B1706164237666N00243524WA0127401274
B1706174237665N00243518WA0127201272
B1706184237664N00243512WA0127001270
B1706194237663N00243505WA0126701267
B1706204237662N00243498WA0126401264
B1706214237663N00243491WA0126001260
B1706224237664N00243484WA0125901259
B1706234237665N00243477WA0125801258
B1706244237666N00243470WA0125701257
B1706254237668N00243465WA0125601256
B1706264237669N00243460WA0125401254
B1706274237670N00243457WA0125101251
B1706284237672N00243451WA0124701247
B1706294237674N00243445WA0124301243
B1706304237676N00243438WA0123901239
B1706314237677N00243430WA0123601236
B1706324237679N00243423WA0123501235
B1706334237681N00243416WA0123401234
B1706344237683N00243410WA0123201232
B1706354237685N00243404WA0122901229
B1706364237687N00243398WA0122701227
B1706374237689N00243393WA0122401224
B1706384237691N00243388WA0122201222
B1706394237694N00243381WA0121901219
B1706404237696N00243376WA0121701217
B1706414237698N00243372WA0121501216
B1706424237700N00243366WA0121301213
B1706434237703N00243360WA0121101211
B1706444237705N00243354WA0120901209
B1706454237708N00243350WA0120801208
B1706464237711N00243344WA0120501206
B1706474237713N00243338WA0120401204
B1706484237716N00243333WA0120301203
B1706494237719N00243328WA0120101201
B1706504237721N00243323WA0119901199
B1706514237724N00243319WA0119601196
B1706524237727N00243313WA0119401194
B1706534237730N00243308WA0119101191
B1706544237732N00243303WA0118901189
B1706554237735N00243298WA0118701187
B1706564237738N00243293WA0118501185
B1706574237741N00243288WA0118401184
B1706584237744N00243283WA0118201182
B1706594237746N00243278WA0118001180
B1707004237748N00243273WA0117801178
B1707014237750N00243269WA0117601176
B1707024237753N00243263WA0117401174
B1707034237755N00243258WA0117401174
B1707044237757N00243254WA0117301174
B1707054237759N00243248WA0117301173
B1707064237760N00243243WA0117101171
B1707074237761N00243238WA0116901169
B1707084237762N00243233WA0116601166
B1707094237763N00243228WA0116301163
B1707104237764N00243223WA0116101161
B1707114237765N00243218WA0116201162
B1707124237766N00243215WA0116201162
B1707134237767N00243214WA0116001160
B1707144237769N00243213WA0115801158
B1707154237771N00243212WA0115601156
B1707164237773N00243212WA0115401154
B1707174237775N00243209WA0115201152
B1707184237778N00243208WA0115001150
B1707194237781N00243207WA0114901149
B1707204237784N00243205WA0114801149
B1707214237788N00243204WA0114701147
B1707224237790N00243203WA0114601146
B1707234237793N00243201WA0114301143
B1707244237796N00243200WA0114001140
B1707254237799N00243200WA0113801138
B1707264237802N00243198WA0113501135
B1707274237805N00243197WA0113201132
B1707284237809N00243196WA0113101131
B1707294237812N00243195WA0113001130
B1707304237815N00243194WA0113001130
B1707314237817N00243194WA0112901129
B1707324237820N00243193WA0112801128
B1707334237823N00243193WA0112601126
B1707344237825N00243191WA0112401124
B1707354237828N00243190WA0112201122
B1707364237831N00243189WA0112101121
B1707374237834N00243187WA0112001120
B1707384237837N00243186WA0111801118
B1707394237840N00243184WA0111601116
B1707404237843N00243182WA0111401114
B1707414237846N00243181WA0111201112
B1707424237850N00243178WA0111001110
B1707434237852N00243176WA0110901109
B1707444237857N00243174WA0110701107
B1707454237860N00243170WA0110601106
B1707464237864N00243167WA0110301103
B1707474237867N00243165WA0110101101
B1707484237871N00243163WA0109901099
B1707494237875N00243160WA0109801098
B1707504237878N00243157WA0109801098
B1707514237882N00243153WA0109801098
B1707524237884N00243151WA0109701097
B1707534237887N00243148WA0109501095
B1707544237889N00243145WA0109201092
B1707554237892N00243143WA0109001090
B1707564237895N00243138WA0108801088
B1707574237897N00243134WA0108601086
B1707584237900N00243130WA0108501085
B1707594237902N00243126WA0108401084
B1708004237904N00243122WA0108201082
B1708014237906N00243119WA0108101081
B1708024237908N00243115WA0107901079
B1708034237911N00243112WA0107701077
B1708044237913N00243110WA0107501075
B1708054237915N00243107WA0107301073
B1708064237918N00243105WA0107201072
B1708074237920N00243103WA0107001070
B1708084237922N00243102WA0106801068
B1708094237924N00243099WA0106601066
B1708104237927N00243096WA0106401064
B1708114237930N00243094WA0106101061
B1708124237932N00243093WA0105801058
B1708134237935N00243090WA0105501055
B1708144237938N00243089WA0105301053
B1708154237942N00243087WA0105201052
B1708164237945N00243086WA0105001050
B1708174237948N00243084WA0104701047
B1708184237950N00243082WA0104501045
B1708194237953N00243082WA0104301043
B1708204237955N00243080WA0104101041
B1708214237958N00243079WA0103901039
B1708224237960N00243078WA0103601036
B1708234237963N00243077WA0103301033
B1708244237965N00243076WA0103001030
B1708254237968N00243075WA0102601026
B1708264237971N00243074WA0102401024
B1708274237974N00243072WA0102201022
B1708284237977N00243070WA0102101021
B1708294237980N00243068WA0101901019
B1708304237983N00243067WA0101701017
B1708314237986N00243065WA0101601016
B1708324237989N00243063WA0101501015
B1708334237992N00243062WA0101501015
B1708344237995N00243060WA0101401014
B1708354237997N00243058WA0101301013
B1708364238000N00243057WA0101001010
B1708374238002N00243056WA0100701007
B1708384238004N00243056WA0100601006
B1708394238006N00243055WA0100501005
B1708404238009N00243055WA0100301003
B1708414238012N00243052WA0100101001
B1708424238015N00243050WA0099800998
B1708434238018N00243049WA0099600996
B1708444238021N00243048WA0099500995
B1708454238025N00243048WA0099300993
B1708464238028N00243045WA0099100991
B1708474238031N00243043WA0098800988
B1708484238035N00243041WA0098500985
B1708494238038N00243039WA0098400984
B1708504238042N00243038WA0098300983
B1708514238046N00243036WA0098100981
B1708524238050N00243036WA0097900979
B1708534238053N00243034WA0097800978
B1708544238056N00243032WA0097500975
B1708554238059N00243031WA0097200972
B1708564238063N00243029WA0096900969
B1708574238066N00243027WA0096600966
B1708584238070N00243025WA0096700967
B1708594238073N00243022WA0096700967
B1709004238076N00243020WA0096700967
B1709014238079N00243018WA0096500965
B1709024238082N00243017WA0096400964
B1709034238085N00243014WA0096200962
B1709044238088N00243012WA0096000960
B1709054238092N00243011WA0095900959
B1709064238095N00243009WA0095700957
B1709074238098N00243007WA0095600956
B1709084238102N00243005WA0095500955
B1709094238105N00243003WA0095400954
B1709104238108N00243001WA0095300953
B1709114238111N00242999WA0095300953
B1709124238114N00242998WA0095300953
B1709134238116N00242996WA0095200952
B1709144238118N00242994WA0095200952
B1709154238121N00242993WA0095100951
B1709164238125N00242992WA0095000950
B1709174238128N00242991WA0094900949
B1709184238130N00242991WA0094900949
B1709194238132N00242991WA0094900949
B1709204238135N00242990WA0094800948
B1709214238137N00242989WA0094800948
B1709224238139N00242988WA0094700947
B1709234238142N00242986WA0094700947
B1709244238144N00242982WA0094700947
B1709254238146N00242979WA0094700947
B1709264238148N00242977WA0094800948
B1709274238149N00242975WA0094700947
B1709284238151N00242972WA0094600946
B1709294238153N00242968WA0094400944
B1709304238156N00242964WA0094400944
B1709314238158N00242960WA0094400944
B1709324238160N00242957WA0094500945
B1709334238162N00242955WA0094500945
B1709344238165N00242952WA0094400944
B1709354238167N00242949WA0094300943
B1709364238169N00242946WA0094200942
B1709374238172N00242943WA0094100941
B1709384238174N00242939WA0094000940
B1709394238176N00242936WA0094000940
B1709404238178N00242933WA0094000940
B1709414238179N00242929WA0093900939
B1709424238182N00242925WA0093900939
B1709434238184N00242922WA0093800938
B1709444238186N00242917WA0093600936
B1709454238188N00242913WA0093500935
B1709464238189N00242910WA0093500935
B1709474238190N00242905WA0093400934
B1709484238192N00242901WA0093200932
B1709494238194N00242895WA0093100931
B1709504238196N00242891WA0093200932
B1709514238198N00242884WA0093200932
B1709524238199N00242880WA0093400934
B1709534238201N00242876WA0093600936
B1709544238202N00242874WA0093700936
B1709554238203N00242870WA0093700936
B1709564238205N00242868WA0093700937
B1709574238208N00242869WA0093700937
B1709584238210N00242872WA0093700937
B1709594238212N00242875WA0093600936
B1710004238213N00242879WA0093600935
B1710014238214N00242881WA0093600936
B1710024238215N00242882WA0093600936
B1710034238216N00242882WA0093700937
B1710044238217N00242879WA0093800937
B1710054238218N00242875WA0093800938
B1710064238220N00242872WA0094000940
B1710074238221N00242868WA0094100941
B1710084238222N00242867WA0094300943
B1710094238223N00242866WA0094400944
B1710104238223N00242865WA0094400944
B1710114238220N00242861WA0094300943
B1710124238217N00242856WA0094300943
B1710134238211N00242850WA0094200942
B1710144238206N00242845WA0094400944
B1710154238199N00242842WA0094500945
B1710164238191N00242845WA0094500944
B1710174238183N00242850WA0094500945
B1710184238174N00242855WA0094600946
B1710194238166N00242861WA0094700947
B1710204238159N00242866WA0094900949
B1710214238155N00242874WA0094800948
B1710224238153N00242884WA0094700947
B1710234238151N00242895WA0094600946
B1710244238151N00242902WA0094700947
B1710254238154N00242908WA0094800948
B1710264238157N00242910WA0094800948
B1710274238160N00242912WA0094800948
B1710284238162N00242913WA0094900949
B1710294238163N00242914WA0095000949
B1710304238164N00242915WA0094800948
B1710314238165N00242916WA0094700947
B1710324238167N00242915WA0094700947
B1710334238168N00242915WA0094700947
B1710344238169N00242913WA0094800948
B1710354238170N00242911WA0094800948
B1710364238170N00242910WA0094700947
B1710374238170N00242908WA0094600946
B1710384238171N00242904WA0094500945
B1710394238171N00242901WA0094400944
B1710404238170N00242896WA0094500945
B1710414238169N00242892WA0094700947
B1710424238168N00242888WA0094800948
B1710434238168N00242884WA0095000950
B1710444238167N00242880WA0095000950
B1710454238165N00242875WA0095100951
B1710464238163N00242870WA0095100951
B1710474238160N00242864WA0095200952
B1710484238158N00242860WA0095300953
B1710494238156N00242857WA0095400954
B1710504238154N00242854WA0095400954
B1710514238152N00242850WA0095400954
B1710524238151N00242847WA0095400953
B1710534238151N00242845WA0095300953
B1710544238151N00242844WA0095200952
B1710554238153N00242845WA0095100951
B1710564238155N00242847WA0094900949
B1710574238156N00242849WA0094800947
B1710584238157N00242850WA0094600946
B1710594238159N00242850WA0094600945
B1711004238161N00242849WA0094600946
B1711014238162N00242846WA0094600946
B1711024238164N00242842WA0094700947
B1711034238166N00242837WA0094700947
B1711044238168N00242830WA0094800948
B1711054238169N00242825WA0095000950
B1711064238169N00242819WA0095400954
B1711074238167N00242814WA0095700957
B1711084238164N00242807WA0095800958
B1711094238158N00242803WA0095700957
B1711104238152N00242800WA0095600956
B1711114238144N00242800WA0095400954
B1711124238135N00242804WA0095300953
B1711134238128N00242811WA0095300953
B1711144238120N00242819WA0095300953
B1711154238116N00242829WA0095300953
B1711164238115N00242838WA0095300953
B1711174238117N00242846WA0095300953
B1711184238120N00242853WA0095500955
B1711194238123N00242855WA0095700957
B1711204238125N00242855WA0095900959
B1711214238127N00242855WA0096100961
B1711224238129N00242855WA0096100961
B1711234238131N00242855WA0096300963
B1711244238134N00242855WA0096400964
B1711254238136N00242854WA0096400964
B1711264238138N00242849WA0096500965
B1711274238140N00242843WA0096700967
B1711284238137N00242834WA0096800968
B1711294238135N00242826WA0097100970
B1711304238130N00242822WA0097200972
B1711314238123N00242819WA0097400974
B1711324238115N00242818WA0097400974
B1711334238107N00242820WA0097400974
B1711344238099N00242826WA0097400974
B1711354238093N00242834WA0097500975
B1711364238091N00242844WA0097600976
B1711374238089N00242853WA0097600976
B1711384238090N00242858WA0097800978
B1711394238092N00242861WA0097900979
B1711404238094N00242862WA0098200981
B1711414238097N00242861WA0098400984
B1711424238098N00242855WA0098500985
B1711434238097N00242849WA0098500985
B1711444238093N00242843WA0098500985
B1711454238087N00242837WA0098500985
B1711464238081N00242834WA0098500984
B1711474238073N00242829WA0098400984
B1711484238067N00242830WA0098400984
B1711494238060N00242841WA0098500984
B1711504238054N00242853WA0098600986
B1711514238051N00242863WA0098700987
B1711524238050N00242872WA0098900989
B1711534238050N00242879WA0099100991
B1711544238050N00242884WA0099200992
B1711554238051N00242886WA0099400993
B1711564238053N00242885WA0099500995
B1711574238054N00242881WA0099600996
B1711584238053N00242874WA0099700997
B1711594238050N00242867WA0099800998
B1712004238044N00242861WA0099900999
B1712014238039N00242855WA0099900999
B1712024238032N00242857WA0100001000
B1712034238025N00242862WA0100000999
B1712044238020N00242872WA0099900999
B1712054238015N00242882WA0099900999
B1712064238014N00242892WA0099900999
B1712074238015N00242899WA0099900999
B1712084238017N00242904WA0100101001
B1712094238020N00242905WA0100401003
B1712104238024N00242906WA0100701007
B1712114238027N00242905WA0101001010
B1712124238029N00242904WA0101301013
B1712134238031N00242901WA0101401013
B1712144238029N00242896WA0101401014
B1712154238025N00242891WA0101401014
B1712164238020N00242886WA0101301013
B1712174238013N00242885WA0101301013
B1712184238004N00242884WA0101201012
B1712194237996N00242885WA0101101011
B1712204237990N00242895WA0101101011
B1712214237986N00242908WA0101101011
B1712224237983N00242918WA0101201012
B1712234237981N00242927WA0101501015
B1712244237981N00242934WA0101801018
B1712254237982N00242938WA0102001020
B1712264237983N00242943WA0102301023
B1712274237985N00242948WA0102501025
B1712284237988N00242950WA0102601026
B1712294237990N00242953WA0102801028
B1712304237993N00242955WA0102901029
B1712314237995N00242957WA0103001030
B1712324237998N00242958WA0103101030
B1712334238000N00242957WA0103201032
B1712344238001N00242954WA0103401034
B1712354238001N00242951WA0103601036
B1712364237999N00242945WA0103701037
B1712374237994N00242939WA0103701037
B1712384237990N00242934WA0103901038
B1712394237983N00242932WA0104001040
B1712404237975N00242934WA0104201042
B1712414237967N00242938WA0104301043
B1712424237960N00242946WA0104301043
B1712434237952N00242957WA0104401044
B1712444237946N00242968WA0104501045
B1712454237944N00242977WA0104601046
B1712464237944N00242986WA0104601046
B1712474237944N00242990WA0104701047
B1712484237946N00242993WA0104801048
B1712494237948N00242998WA0105001050
B1712504237951N00242998WA0105101051
B1712514237954N00242995WA0105201051
B1712524237956N00242990WA0105301053
B1712534237957N00242986WA0105501055
B1712544237956N00242979WA0105801058
B1712554237952N00242973WA0106001060
B1712564237946N00242968WA0106101061
B1712574237939N00242967WA0106101061
B1712584237931N00242964WA0106201062
B1712594237923N00242967WA0106301063
B1713004237914N00242976WA0106401064
B1713014237907N00242986WA0106501065
B1713024237902N00242998WA0106601066
B1713034237898N00243008WA0106701067
B1713044237898N00243017WA0106801068
B1713054237899N00243022WA0106901068
B1713064237901N00243026WA0107001070
B1713074237905N00243026WA0107201072
B1713084237907N00243023WA0107401074
B1713094237908N00243018WA0107801077
B1713104237906N00243012WA0108101081
B1713114237902N00243007WA0108401084
B1713124237897N00243003WA0108501085
B1713134237890N00242999WA0108601086
B1713144237881N00242999WA0108701087
B1713154237873N00243003WA0108801088
B1713164237864N00243010WA0108901089
B1713174237857N00243021WA0109001090
B1713184237852N00243033WA0109201092
B1713194237850N00243043WA0109401094
B1713204237850N00243049WA0109501095
B1713214237850N00243049WA0109701096
B1713224237850N00243048WA0109701097
B1713234237848N00243041WA0109901098
B1713244237844N00243036WA0110101101
B1713254237838N00243030WA0110301103
B1713264237832N00243030WA0110501104
B1713274237824N00243031WA0110601106
B1713284237816N00243037WA0110701107
B1713294237808N00243045WA0110801108
B1713304237802N00243057WA0110901109
B1713314237797N00243067WA0111001110
B1713324237795N00243078WA0111201112
B1713334237796N00243086WA0111301113
B1713344237798N00243089WA0111501115
B1713354237799N00243089WA0111701116
B1713364237800N00243086WA0111901119
B1713374237798N00243080WA0112101121
B1713384237796N00243076WA0112301123
B1713394237789N00243072WA0112501125
B1713404237783N00243069WA0112501125
B1713414237775N00243070WA0112601126
B1713424237768N00243074WA0112601126
B1713434237760N00243079WA0112801128
B1713444237752N00243087WA0113001130
B1713454237748N00243097WA0113201132
B1713464237745N00243108WA0113401134
B1713474237744N00243119WA0113701137
B1713484237745N00243127WA0114001140
B1713494237747N00243131WA0114201142
B1713504237750N00243134WA0114201142
B1713514237751N00243134WA0114201142
B1713524237752N00243132WA0114301143
B1713534237752N00243128WA0114501145
B1713544237749N00243124WA0114701147
B1713554237744N00243118WA0114801148
B1713564237739N00243112WA0115001149
B1713574237734N00243109WA0115001150
B1713584237726N00243108WA0115201152
B1713594237717N00243111WA0115301153
B1714004237708N00243120WA0115401154
B1714014237706N00243134WA0115501155
B1714024237703N00243146WA0115701157
B1714034237703N00243156WA0116101161
B1714044237704N00243162WA0116501165
B1714054237705N00243165WA0116801168
B1714064237706N00243168WA0116701167
B1714074237707N00243171WA0116701167
B1714084237710N00243172WA0116701167
B1714094237713N00243172WA0116901169
B1714104237713N00243166WA0117101171
B1714114237712N00243158WA0117401173
B1714124237706N00243151WA0117701177
B1714134237699N00243149WA0118001180
B1714144237691N00243147WA0118201182
B1714154237683N00243152WA0118301183
B1714164237675N00243158WA0118301183
B1714174237667N00243166WA0118401184
B1714184237663N00243178WA0118401184
B1714194237659N00243189WA0118601185
B1714204237658N00243198WA0118801188
B1714214237656N00243207WA0119101191
B1714224237655N00243214WA0119301193
B1714234237655N00243219WA0119501195
B1714244237655N00243224WA0119401194
B1714254237656N00243227WA0119301193
B1714264237656N00243228WA0119301193
B1714274237658N00243229WA0119401194
B1714284237659N00243225WA0119501195
B1714294237661N00243221WA0119601196
B1714304237658N00243215WA0119701197
B1714314237653N00243210WA0119701197
B1714324237648N00243207WA0119701197
B1714334237640N00243204WA0119801198
B1714344237633N00243203WA0119901199
B1714354237625N00243207WA0120201201
B1714364237617N00243212WA0120301203
B1714374237610N00243223WA0120401204
B1714384237605N00243234WA0120501205
B1714394237601N00243246WA0120601206
B1714404237598N00243255WA0120801208
B1714414237597N00243262WA0120901209
B1714424237598N00243266WA0120901209
B1714434237599N00243269WA0121001210
B1714444237601N00243270WA0121001210
B1714454237601N00243270WA0121101211
B1714464237602N00243266WA0121101211
B1714474237602N00243262WA0121201212
B1714484237599N00243256WA0121201212
B1714494237593N00243253WA0121201212
B1714504237586N00243250WA0121201212
B1714514237578N00243250WA0121201212
B1714524237570N00243250WA0121301213
B1714534237562N00243250WA0121401214
B1714544237555N00243255WA0121601216
B1714554237547N00243260WA0121801218
B1714564237540N00243267WA0121901219
B1714574237534N00243277WA0122001220
B1714584237530N00243288WA0122101221
B1714594237528N00243297WA0122101221
B1715004237527N00243305WA0122101221
B1715014237527N00243311WA0122201222
B1715024237528N00243317WA0122101221
B1715034237529N00243320WA0122101221
B1715044237529N00243321WA0122201222
B1715054237529N00243321WA0122201222
B1715064237530N00243317WA0122201222
B1715074237527N00243313WA0122101221
B1715084237523N00243307WA0122001220
B1715094237516N00243303WA0121801218
B1715104237509N00243300WA0121701217
B1715114237500N00243296WA0121801218
B1715124237492N00243296WA0121901219
B1715134237483N00243297WA0122101221
B1715144237474N00243300WA0122201222
B1715154237466N00243300WA0122201222
B1715164237457N00243302WA0122301223
B1715174237449N00243303WA0122401224
B1715184237440N00243305WA0122401224
B1715194237432N00243308WA0122501225
B1715204237424N00243314WA0122501225
B1715214237417N00243321WA0122501225
B1715224237412N00243331WA0122501225
B1715234237408N00243341WA0122401224
B1715244237406N00243350WA0122401224
B1715254237405N00243358WA0122301223
B1715264237405N00243364WA0122301223
B1715274237406N00243369WA0122301223
B1715284237407N00243369WA0122301223
B1715294237407N00243369WA0122301223
B1715304237408N00243366WA0122201222
B1715314237408N00243362WA0122101221
B1715324237407N00243357WA0122101221
B1715334237404N00243352WA0122001220
B1715344237401N00243347WA0122001220
B1715354237398N00243342WA0122101221
B1715364237394N00243338WA0122101221
B1715374237391N00243333WA0122101221
B1715384237386N00243328WA0122101221
B1715394237381N00243322WA0122201222
B1715404237376N00243317WA0122201223
B1715414237371N00243312WA0122401224
B1715424237365N00243308WA0122501225
B1715434237359N00243303WA0122601226
B1715444237354N00243300WA0122601226
B1715454237348N00243295WA0122701227
B1715464237342N00243290WA0122801228
B1715474237337N00243285WA0122901229
B1715484237331N00243281WA0123101231
B1715494237326N00243276WA0123301233
B1715504237321N00243272WA0123601236
B1715514237315N00243269WA0123801238
B1715524237308N00243267WA0123901239
B1715534237300N00243269WA0123901239
B1715544237291N00243269WA0124001240
B1715554237282N00243277WA0124201242
B1715564237275N00243288WA0124301243
B1715574237269N00243298WA0124401244
B1715584237272N00243309WA0124301243
B1715594237274N00243314WA0124301243
B1716004237275N00243319WA0124401244
B1716014237276N00243319WA0124501245
B1716024237278N00243317WA0124501245
B1716034237278N00243313WA0124601246
B1716044237276N00243307WA0124801248
B1716054237274N00243301WA0124901249
B1716064237271N00243295WA0125001250
B1716074237268N00243290WA0125101251
B1716084237266N00243286WA0125201252
B1716094237264N00243281WA0125201252
B1716104237262N00243276WA0125301253
B1716114237260N00243271WA0125401254
B1716124237258N00243267WA0125601256
B1716134237255N00243262WA0125701257
B1716144237253N00243258WA0125801258
B1716154237251N00243253WA0124801248
B1716164237248N00243250WA0125801258
B1716174237244N00243245WA0126201262
B1716184237239N00243243WA0126001260
B1716194237232N00243239WA0126001260
B1716204237224N00243238WA0126101261
B1716214237215N00243239WA0126201262
B1716224237207N00243244WA0126201262
B1716234237199N00243253WA0126201262
B1716244237191N00243262WA0126201262
B1716254237185N00243272WA0126201262
B1716264237181N00243283WA0126301263
B1716274237180N00243292WA0126301263
B1716284237179N00243298WA0126301263
B1716294237180N00243302WA0126301263
B1716304237181N00243304WA0126301263
B1716314237182N00243305WA0126201262
B1716324237183N00243305WA0126301263
B1716334237185N00243304WA0126301263
B1716344237187N00243303WA0126401264
B1716354237191N00243302WA0126601266
B1716364237193N00243300WA0126801268
B1716374237194N00243300WA0126801269
B1716384237194N00243297WA0126801268
B1716394237194N00243295WA0126801268
B1716404237195N00243291WA0126801268
B1716414237195N00243288WA0126901269
B1716424237194N00243283WA0108901089
B1716434237193N00243279WA0122201223
B1716444237191N00243275WA0129301293
B1716454237188N00243271WA0127801278
B1716464237184N00243267WA0127001270
B1716474237176N00243263WA0127001270
B1716484237168N00243259WA0127001270
B1716494237161N00243256WA0127001270
B1716504237152N00243255WA0127001271
B1716514237144N00243254WA0127101271
B1716524237135N00243255WA0127101271
B1716534237126N00243258WA0127201272
B1716544237117N00243263WA0127101271
B1716554237108N00243271WA0127101271
B1716564237101N00243279WA0127101271
B1716574237093N00243289WA0127101271
B1716584237088N00243300WA0127101271
B1716594237083N00243310WA0127101271
B1717004237080N00243320WA0127101271
B1717014237080N00243329WA0127101271
B1717024237080N00243338WA0127101271
B1717034237080N00243344WA0127201272
B1717044237080N00243352WA0127301273
B1717054237080N00243359WA0127201272
B1717064237080N00243365WA0127301273
B1717074237080N00243372WA0127301273
B1717084237081N00243378WA0127201272
B1717094237081N00243385WA0127201272
B1717104237082N00243391WA0127201272
B1717114237083N00243398WA0127201272
B1717124237084N00243405WA0127201272
B1717134237085N00243412WA0127201272
B1717144237086N00243418WA0127301273
B1717154237087N00243424WA0127301273
B1717164237089N00243431WA0127401274
B1717174237090N00243438WA0127401274
B1717184237092N00243443WA0127501275
B1717194237094N00243449WA0127701277
B1717204237096N00243454WA0127901279
B1717214237098N00243460WA0128301283
B1717224237100N00243466WA0128601286
B1717234237102N00243471WA0128801288
B1717244237103N00243477WA0128801288
B1717254237105N00243483WA0128901289
B1717264237107N00243488WA0129101291
B1717274237109N00243493WA0129401294
B1717284237111N00243496WA0129701297
B1717294237112N00243495WA0129801298
B1717304237111N00243488WA0129801298
B1717314237108N00243481WA0129901299
B1717324237105N00243472WA0130101301
B1717334237099N00243467WA0130301303
B1717344237091N00243465WA0130401304
B1717354237082N00243465WA0130401304
B1717364237074N00243468WA0130401304
B1717374237065N00243476WA0130401304
B1717384237059N00243486WA0130401304
B1717394237054N00243498WA0130501305
B1717404237051N00243508WA0130701307
B1717414237051N00243517WA0130901309
B1717424237051N00243524WA0131101311
B1717434237052N00243528WA0131301313
B1717444237052N00243528WA0131501315
B1717454237052N00243528WA0131701317
B1717464237053N00243526WA0131901319
B1717474237052N00243522WA0132001320
B1717484237050N00243516WA0132201322
B1717494237046N00243510WA0132301323
B1717504237041N00243505WA0132501325
B1717514237034N00243503WA0132601326
B1717524237026N00243502WA0132601326
B1717534237018N00243503WA0132701327
B1717544237009N00243508WA0132701327
B1717554237002N00243517WA0132801328
B1717564236995N00243527WA0132801328
B1717574236991N00243537WA0132801328
B1717584236988N00243546WA0132901329
B1717594236988N00243555WA0132901329
B1718004236989N00243562WA0133101331
B1718014236991N00243566WA0133201332
B1718024236994N00243569WA0133501335
B1718034236997N00243573WA0133701337
B1718044236999N00243576WA0133801338
B1718054237000N00243579WA0133801338
B1718064237002N00243583WA0133801338
B1718074237003N00243585WA0133801338
B1718084237004N00243588WA0133801338
B1718094237004N00243590WA0133901339
B1718104237004N00243590WA0133801338
B1718114237002N00243586WA0133701337
B1718124236999N00243581WA0133501335
B1718134236995N00243575WA0133401334
B1718144236990N00243569WA0133201332
B1718154236983N00243564WA0133001330
B1718164236974N00243560WA0132801328
B1718174236965N00243558WA0132601326
B1718184236956N00243561WA0132501325
B1718194236946N00243564WA0132501325
B1718204236937N00243571WA0132501325
B1718214236928N00243577WA0132501325
B1718224236920N00243585WA0132401324
B1718234236912N00243594WA0132501325
B1718244236904N00243602WA0132401324
B1718254236896N00243611WA0132601326
B1718264236889N00243621WA0132601326
B1718274236882N00243630WA0132701327
B1718284236875N00243640WA0132701327
B1718294236868N00243648WA0132701327
B1718304236861N00243657WA0132801328
B1718314236855N00243667WA0132901329
B1718324236850N00243678WA0133101331
B1718334236845N00243688WA0133301333
B1718344236842N00243697WA0133401334
B1718354236840N00243707WA0133401334
B1718364236839N00243716WA0133401334
B1718374236838N00243723WA0133401334
B1718384236839N00243728WA0133401334
B1718394236840N00243730WA0133301333
B1718404236840N00243730WA0133101331
B1718414236840N00243730WA0132901329
B1718424236838N00243724WA0132701327
B1718434236834N00243716WA0132501325
B1718444236826N00243713WA0132201322
B1718454236819N00243711WA0132001320
B1718464236809N00243712WA0131801319
B1718474236796N00243717WA0132001320
B1718484236786N00243726WA0132201322
B1718494236777N00243734WA0132401324
B1718504236768N00243741WA0132401324
B1718514236759N00243749WA0132301323
B1718524236750N00243757WA0132201322
B1718534236741N00243766WA0132101321
B1718544236731N00243773WA0132101321
B1718554236723N00243781WA0132001320
B1718564236715N00243788WA0131701317
B1718574236707N00243795WA0131501315
B1718584236699N00243804WA0131101312
B1718594236691N00243813WA0130701307
B1719004236683N00243824WA0130501305
B1719014236676N00243835WA0130501305
B1719024236670N00243843WA0130501305
B1719034236663N00243852WA0130301303
B1719044236656N00243861WA0130101301
B1719054236650N00243869WA0129801298
B1719064236642N00243878WA0129301293
B1719074236635N00243886WA0128801288
B1719084236627N00243895WA0128401284
B1719094236620N00243902WA0128201282
B1719104236613N00243911WA0128001280
B1719114236606N00243917WA0127601276
B1719124236598N00243925WA0127201272
B1719134236590N00243933WA0126701267
B1719144236582N00243940WA0126301263
B1719154236574N00243948WA0126001260
B1719164236566N00243955WA0125701257
B1719174236558N00243963WA0125401254
B1719184236550N00243971WA0125001250
B1719194236542N00243977WA0124701247
B1719204236534N00243985WA0124401244
B1719214236526N00243992WA0124101241
B1719224236518N00243999WA0123801238
B1719234236510N00244004WA0123401235
B1719244236502N00244011WA0123001230
B1719254236494N00244018WA0122501225
B1719264236487N00244024WA0122101221
B1719274236479N00244031WA0121901219
B1719284236471N00244037WA0121801218
B1719294236464N00244043WA0121501216
B1719304236456N00244049WA0121201212
B1719314236448N00244055WA0120701207
B1719324236440N00244062WA0120201202
B1719334236431N00244068WA0119801198
B1719344236424N00244074WA0119801198
B1719354236417N00244080WA0119601196
B1719364236409N00244087WA0119301193
B1719374236402N00244094WA0118801188
B1719384236394N00244101WA0118301183
B1719394236387N00244109WA0117801178
B1719404236380N00244116WA0117601176
B1719414236372N00244120WA0117401174
B1719424236365N00244125WA0117101171
B1719434236358N00244131WA0116701167
B1719444236350N00244137WA0116301163
B1719454236343N00244144WA0115901159
B1719464236335N00244150WA0115501155
B1719474236327N00244157WA0115301153
B1719484236319N00244164WA0115001150
B1719494236310N00244170WA0114801148
B1719504236303N00244176WA0114601146
B1719514236296N00244183WA0114401144
B1719524236289N00244190WA0114201142
B1719534236281N00244197WA0113901139
B1719544236274N00244203WA0113601136
B1719554236266N00244211WA0113301134
B1719564236259N00244218WA0113201132
B1719574236251N00244225WA0113101131
B1719584236244N00244232WA0112901129
B1719594236236N00244238WA0112601126
B1720004236229N00244245WA0112201123
B1720014236221N00244251WA0111901119
B1720024236213N00244258WA0111601116
B1720034236206N00244265WA0111501115
B1720044236198N00244272WA0111301114
B1720054236191N00244278WA0111101111
B1720064236183N00244284WA0110901109
B1720074236175N00244290WA0110601107
B1720084236167N00244297WA0110401104
B1720094236159N00244304WA0110201102
B1720104236151N00244311WA0110101101
B1720114236143N00244317WA0109901099
B1720124236136N00244323WA0109801098
B1720134236128N00244329WA0109701097
B1720144236120N00244335WA0109501095
B1720154236111N00244341WA0109301093
B1720164236103N00244347WA0109101091
B1720174236094N00244353WA0108901089
B1720184236085N00244360WA0108601086
B1720194236077N00244366WA0108401084
B1720204236068N00244373WA0108201082
B1720214236059N00244379WA0108001080
B1720224236051N00244384WA0107801078
B1720234236042N00244390WA0107501075
B1720244236033N00244396WA0107301073
B1720254236024N00244402WA0107101071
B1720264236016N00244408WA0106801068
B1720274236007N00244414WA0106601066
B1720284235998N00244421WA0106401064
B1720294235989N00244427WA0106201062
B1720304235980N00244433WA0106101061
B1720314235971N00244440WA0105801058
B1720324235962N00244445WA0105601056
B1720334235952N00244451WA0105401054
B1720344235942N00244456WA0105201052
B1720354235931N00244461WA0105101051
B1720364235921N00244466WA0105001050
B1720374235911N00244470WA0104901049
B1720384235902N00244474WA0104701047
B1720394235892N00244478WA0104501045
B1720404235883N00244482WA0104301043
B1720414235873N00244486WA0104101041
B1720424235863N00244490WA0103901039
B1720434235853N00244494WA0103701037
B1720444235843N00244498WA0103601036
B1720454235833N00244502WA0103501035
B1720464235824N00244508WA0103301033
B1720474235814N00244511WA0103101031
B1720484235804N00244516WA0102901029
B1720494235794N00244521WA0102701027
B1720504235784N00244525WA0102501025
B1720514235774N00244530WA0102301023
B1720524235765N00244535WA0102101021
B1720534235755N00244540WA0102001020
B1720544235745N00244546WA0101901019
B1720554235736N00244550WA0101701017
B1720564235726N00244555WA0101501015
B1720574235716N00244560WA0101301013
B1720584235707N00244565WA0101101011
B1720594235697N00244570WA0101001010
B1721004235687N00244577WA0101001010
B1721014235677N00244581WA0100901009
B1721024235668N00244587WA0100801008
B1721034235657N00244593WA0100601006
B1721044235647N00244599WA0100501005
B1721054235637N00244606WA0100401004
B1721064235627N00244612WA0100301003
B1721074235618N00244619WA0100201002
B1721084235609N00244624WA0100001000
B1721094235599N00244631WA0099800998
B1721104235589N00244638WA0099700997
B1721114235579N00244645WA0099500995
B1721124235570N00244651WA0099400994
B1721134235561N00244658WA0099200992
B1721144235552N00244665WA0099000990
B1721154235543N00244672WA0098800988
B1721164235533N00244676WA0098700987
B1721174235524N00244682WA0098700987
B1721184235515N00244687WA0098700987
B1721194235505N00244693WA0098500985
B1721204235496N00244698WA0098400984
B1721214235487N00244703WA0098200982
B1721224235477N00244710WA0098000980
B1721234235468N00244715WA0097900979
B1721244235458N00244722WA0097800978
B1721254235449N00244726WA0097700977
B1721264235440N00244732WA0097500975
B1721274235430N00244738WA0097400974
B1721284235421N00244745WA0097200972
B1721294235411N00244751WA0097000970
B1721304235402N00244758WA0096900969
B1721314235393N00244764WA0096800968
B1721324235384N00244770WA0096800968
B1721334235376N00244777WA0096700967
B1721344235367N00244782WA0096400964
B1721354235359N00244788WA0096200962
B1721364235349N00244795WA0096000960
B1721374235340N00244802WA0096000960
B1721384235332N00244810WA0096000960
B1721394235323N00244815WA0095900959
B1721404235314N00244821WA0095800958
B1721414235305N00244829WA0095600956
B1721424235295N00244837WA0095400954
B1721434235286N00244845WA0095500955
B1721444235276N00244853WA0095500955
B1721454235268N00244860WA0095500955
B1721464235259N00244867WA0095500955
B1721474235251N00244874WA0095400954
B1721484235242N00244882WA0095300953
B1721494235234N00244889WA0095200952
B1721504235225N00244896WA0095200952
B1721514235216N00244905WA0095200952
B1721524235208N00244911WA0095200952
B1721534235200N00244917WA0095100951
B1721544235192N00244924WA0095100951
B1721554235184N00244930WA0095000950
B1721564235176N00244936WA0094800948
B1721574235168N00244943WA0094700947
B1721584235159N00244949WA0094500945
B1721594235150N00244956WA0094500945
B1722004235141N00244963WA0094400944
B1722014235132N00244969WA0094300943
B1722024235123N00244975WA0094100941
B1722034235115N00244982WA0093900939
B1722044235106N00244989WA0093700937
B1722054235098N00244995WA0093600936
B1722064235089N00245002WA0093500935
B1722074235081N00245009WA0093500934
B1722084235073N00245015WA0093300933
B1722094235065N00245022WA0093200932
B1722104235056N00245028WA0093100930
B1722114235049N00245035WA0092900929
B1722124235041N00245041WA0092800928
B1722134235033N00245047WA0092700927
B1722144235025N00245054WA0092600926
B1722154235017N00245060WA0092500925
B1722164235009N00245066WA0092300923
B1722174235001N00245072WA0092000920
B1722184234993N00245078WA0091800918
B1722194234984N00245084WA0091600916
B1722204234976N00245090WA0091600916
B1722214234968N00245096WA0091600916
B1722224234961N00245102WA0091700917
B1722234234954N00245108WA0091600916
B1722244234947N00245114WA0091400914
B1722254234940N00245121WA0091100911
B1722264234932N00245128WA0090900909
B1722274234924N00245135WA0090700907
B1722284234916N00245142WA0090700907
B1722294234909N00245150WA0090600906
B1722304234901N00245157WA0090400904
B1722314234893N00245162WA0090200902
B1722324234885N00245169WA0090000900
B1722334234877N00245175WA0089900899
B1722344234869N00245181WA0089800899
B1722354234860N00245188WA0089700897
B1722364234853N00245195WA0089600896
B1722374234845N00245201WA0089500895
B1722384234836N00245208WA0089500895
B1722394234828N00245215WA0089500895
B1722404234820N00245222WA0089500895
B1722414234813N00245228WA0089500895
B1722424234807N00245234WA0089400894
B1722434234800N00245239WA0089300893
B1722444234792N00245245WA0089200892
B1722454234783N00245250WA0089100891
B1722464234776N00245255WA0089000890
B1722474234768N00245260WA0088900889
B1722484234760N00245265WA0088700887
B1722494234752N00245270WA0088500885
B1722504234744N00245276WA0088100881
B1722514234735N00245283WA0087800878
B1722524234726N00245289WA0087500875
B1722534234718N00245296WA0087500875
B1722544234710N00245303WA0087400874
B1722554234702N00245309WA0087300873
B1722564234694N00245316WA0087100871
B1722574234686N00245322WA0086800868
B1722584234678N00245329WA0086500865
B1722594234669N00245338WA0086300863
B1723004234662N00245345WA0086100861
B1723014234654N00245352WA0086000860
B1723024234645N00245358WA0085900859
B1723034234637N00245365WA0085700857
B1723044234629N00245372WA0085500855
B1723054234620N00245379WA0085300853
B1723064234611N00245385WA0085100851
B1723074234603N00245392WA0084800848
B1723084234594N00245398WA0084500845
B1723094234585N00245405WA0084400844
B1723104234576N00245411WA0084200842
B1723114234568N00245418WA0084000840
B1723124234560N00245423WA0083800838
B1723134234553N00245429WA0083500835
B1723144234545N00245434WA0083100831
B1723154234537N00245440WA0082800828
B1723164234528N00245445WA0082500825
B1723174234518N00245450WA0082300823
B1723184234510N00245456WA0082100821
B1723194234502N00245461WA0081900819
B1723204234494N00245466WA0081600816
B1723214234486N00245471WA0081300813
B1723224234477N00245477WA0081100811
B1723234234469N00245483WA0080900809
B1723244234460N00245490WA0080700807
B1723254234452N00245495WA0080600806
B1723264234445N00245499WA0080400804
B1723274234437N00245504WA0080100801
B1723284234428N00245509WA0079800798
B1723294234419N00245515WA0079400794
B1723304234410N00245521WA0079100791
B1723314234402N00245528WA0078900789
B1723324234394N00245532WA0078700787
B1723334234385N00245538WA0078600786
B1723344234377N00245543WA0078400784
B1723354234368N00245548WA0078100781
B1723364234359N00245554WA0077800778
B1723374234350N00245560WA0077500775
B1723384234341N00245566WA0077200772
B1723394234332N00245570WA0077100771
B1723404234323N00245576WA0076900769
B1723414234314N00245581WA0076700767
B1723424234305N00245586WA0076400764
B1723434234295N00245592WA0076100761
B1723444234285N00245598WA0075900759
B1723454234276N00245603WA0075700757
B1723464234267N00245609WA0075600756
B1723474234258N00245614WA0075500755
B1723484234249N00245619WA0075300753
B1723494234240N00245625WA0075000750
B1723504234230N00245631WA0074700747
B1723514234221N00245637WA0074400744
B1723524234211N00245643WA0074200742
B1723534234202N00245649WA0074100741
B1723544234192N00245654WA0073900739
B1723554234182N00245659WA0073600736
B1723564234173N00245664WA0073300733
B1723574234163N00245669WA0073000730
B1723584234153N00245675WA0072900729
B1723594234145N00245680WA0072900729
B1724004234136N00245685WA0072700727
B1724014234127N00245691WA0072400724
B1724024234116N00245697WA0072000720
B1724034234106N00245701WA0071700717
B1724044234096N00245707WA0071500715
B1724054234086N00245713WA0071500715
B1724064234078N00245719WA0071400714
B1724074234069N00245724WA0071200712
B1724084234060N00245730WA0070900709
B1724094234052N00245736WA0070500705
B1724104234043N00245743WA0070100701
B1724114234034N00245750WA0067800678
B1724124234025N00245757WA0069500695
B1724134234016N00245764WA0069700697
B1724144234008N00245770WA0069300693
B1724154233998N00245776WA0068900689
B1724164233989N00245781WA0068500685
B1724174233979N00245786WA0068100681
B1724184233969N00245792WA0067800678
B1724194233960N00245796WA0067700677
B1724204233950N00245800WA0067500675
B1724214233941N00245806WA0067300673
B1724224233932N00245811WA0067000670
B1724234233923N00245817WA0066700667
B1724244233914N00245823WA0066400664
B1724254233904N00245828WA0066200662
B1724264233894N00245834WA0066100661
B1724274233884N00245840WA0066100661
B1724284233876N00245845WA0066000660
B1724294233867N00245850WA0065900659
B1724304233859N00245855WA0065600656
B1724314233850N00245861WA0065300653
B1724324233841N00245865WA0065000650
B1724334233832N00245870WA0064700647
B1724344233822N00245875WA0064500645
B1724354233812N00245880WA0064400644
B1724364233803N00245882WA0064200642
B1724374233793N00245884WA0064000640
B1724384233784N00245886WA0063800638
B1724394233775N00245888WA0063700637
B1724404233766N00245889WA0063500635
B1724414233757N00245890WA0063400634
B1724424233748N00245892WA0063300633
B1724434233739N00245893WA0063100631
B1724444233730N00245894WA0062900629
B1724454233721N00245895WA0062600626
B1724464233711N00245896WA0062400624
B1724474233701N00245899WA0062200622
B1724484233692N00245899WA0062200622
B1724494233683N00245900WA0062100621
B1724504233674N00245900WA0061900619
B1724514233666N00245900WA0061600616
B1724524233658N00245902WA0061300613
B1724534233649N00245903WA0061000610
B1724544233641N00245903WA0060800608
B1724554233631N00245902WA0060800608
B1724564233622N00245900WA0060700607
B1724574233613N00245899WA0060500605
B1724584233604N00245899WA0060300603
B1724594233594N00245897WA0060100601
B1725004233585N00245896WA0060000600
B1725014233579N00245895WA0060100601
B1725024233572N00245895WA0060100601
B1725034233565N00245895WA0060100601
B1725044233558N00245895WA0059900599
B1725054233551N00245894WA0059800598
B1725064233543N00245894WA0059800598
B1725074233535N00245894WA0059800598
B1725084233528N00245896WA0059900598
B1725094233521N00245899WA0059900599
B1725104233514N00245903WA0059900598
B1725114233507N00245907WA0059900599
B1725124233501N00245911WA0060000599
B1725134233495N00245915WA0059900599
B1725144233489N00245919WA0060000600
B1725154233483N00245923WA0060000600
B1725164233478N00245928WA0059800598
B1725174233472N00245932WA0059700597
B1725184233468N00245940WA0059600596
B1725194233464N00245947WA0059700597
B1725204233458N00245953WA0059700597
B1725214233453N00245959WA0059900599
B1725224233448N00245964WA0060000600
B1725234233442N00245970WA0060200601
B1725244233436N00245975WA0060200602
B1725254233430N00245981WA0060300603
B1725264233424N00245987WA0060500604
B1725274233417N00245993WA0060600606
B1725284233411N00246000WA0060700606
B1725294233405N00246006WA0060600606
B1725304233399N00246012WA0060600605
B1725314233393N00246018WA0060500605
B1725324233388N00246025WA0060500605
B1725334233382N00246032WA0060500605
B1725344233376N00246038WA0060500605
B1725354233368N00246044WA0060400604
B1725364233360N00246047WA0060400604
B1725374233353N00246050WA0060400604
B1725384233345N00246053WA0060300603
B1725394233337N00246058WA0060100601
B1725404233328N00246061WA0060000599
B1725414233320N00246065WA0059800598
B1725424233312N00246069WA0059700597
B1725434233303N00246072WA0059600596
B1725444233295N00246075WA0059400594
B1725454233286N00246079WA0059300592
B1725464233277N00246082WA0059200592
B1725474233269N00246085WA0059200592
B1725484233260N00246088WA0059200592
B1725494233252N00246090WA0059200592
B1725504233243N00246094WA0059000590
B1725514233235N00246096WA0058900589
B1725524233226N00246099WA0058800588
B1725534233218N00246101WA0058700587
B1725544233210N00246104WA0058500585
B1725554233203N00246106WA0058400584
B1725564233196N00246109WA0058400584
B1725574233188N00246111WA0058300583
B1725584233181N00246114WA0058100581
B1725594233173N00246116WA0058000580
B1726004233164N00246119WA0058100580
B1726014233156N00246122WA0058200582
B1726024233148N00246125WA0058300583
B1726034233140N00246128WA0058200582
B1726044233132N00246132WA0058200582
B1726054233124N00246134WA0058100581
B1726064233115N00246138WA0058000580
B1726074233108N00246144WA0058000579
B1726084233100N00246148WA0057900579
B1726094233094N00246155WA0057800578
B1726104233087N00246163WA0057700577
B1726114233081N00246168WA0057500575
B1726124233075N00246175WA0057100571
B1726134233068N00246182WA0056800568
B1726144233062N00246189WA0056500565
B1726154233055N00246195WA0056500565
B1726164233048N00246201WA0056400564
B1726174233042N00246208WA0056300563
B1726184233035N00246214WA0056000560
B1726194233028N00246221WA0055700557
B1726204233021N00246229WA0055400554
B1726214233015N00246236WA0055300553
B1726224233009N00246244WA0055400554
B1726234233003N00246251WA0055300553
B1726244232997N00246258WA0055300553
B1726254232991N00246264WA0055200552
B1726264232986N00246271WA0055000550
B1726274232980N00246277WA0054900549
B1726284232974N00246284WA0054800548
B1726294232969N00246291WA0054700547
B1726304232963N00246298WA0054500545
B1726314232958N00246306WA0054400544
B1726324232953N00246313WA0054300543
B1726334232948N00246320WA0054200542
B1726344232943N00246327WA0054100540
B1726354232935N00246332WA0053900539
B1726364232929N00246335WA0053700537
B1726374232921N00246335WA0053500535
B1726384232914N00246334WA0053300533
B1726394232908N00246331WA0053200532
B1726404232902N00246327WA0053100531
B1726414232897N00246325WA0053000530
B1726424232890N00246327WA0052700527
B1726434232884N00246329WA0052400524
B1726444232878N00246331WA0052100521
B1726454232872N00246337WA0051900519
B1726464232866N00246343WA0051900519
B1726474232862N00246350WA0051700517
B1726484232858N00246358WA0051700517
B1726494232855N00246365WA0051700517
B1726504232851N00246372WA0051800518
B1726514232849N00246377WA0051700517
B1726524232847N00246381WA0051500515
B1726534232842N00246385WA0051200512
B1726544232836N00246390WA0050900509
B1726554232829N00246394WA0050800508
B1726564232821N00246397WA0050900509
B1726574232815N00246399WA0050800508
B1726584232809N00246400WA0050700507
B1726594232803N00246401WA0050500505
B1727004232798N00246402WA0050200502
B1727014232791N00246404WA0049900499
B1727024232783N00246405WA0049700497
B1727034232776N00246403WA0049600496
B1727044232770N00246401WA0049400494
B1727054232763N00246399WA0049300493
B1727064232758N00246396WA0049200492
B1727074232752N00246393WA0049100490
B1727084232748N00246390WA0048800488
B1727094232746N00246386WA0048500485
B1727104232744N00246381WA0048200482
B1727114232743N00246377WA0047900479
B1727124232742N00246373WA0047600476
B1727134232744N00246367WA0047500475
B1727144232747N00246363WA0047500475
B1727154232749N00246361WA0047300473
B1727164232752N00246358WA0047100471
B1727174232756N00246353WA0046800468
B1727184232759N00246349WA0046500465
B1727194232763N00246344WA0046400464
B1727204232766N00246340WA0046400464
B1727214232771N00246339WA0046300463
B1727224232774N00246337WA0046200462
B1727234232777N00246335WA0046100461
B1727244232780N00246333WA0046100461
B1727254232782N00246331WA0045900459
B1727264232785N00246329WA0045800458
B1727274232787N00246327WA0045800458
B1727284232790N00246324WA0045800458
B1727294232791N00246323WA0045700457
B1727304232792N00246322WA0045800458
B1727314232793N00246322WA0045700457
B1727324232794N00246321WA0045800458
B1727334232796N00246320WA0045800458
B1727344232797N00246320WA0045800458
B1727354232799N00246320WA0045800458
B1727364232800N00246318WA0045800458
B1727374232802N00246317WA0045800458
B1727384232803N00246317WA0045800458
B1727394232805N00246317WA0045800458
B1727404232805N00246317WA0045800458
B1727414232807N00246316WA0045900459
B1727424232808N00246316WA0045900459
B1727434232809N00246316WA0045900459
B1727444232810N00246316WA0045900459
B1727454232811N00246316WA0045900459
B1727464232812N00246316WA0045900459
B1727474232812N00246316WA0045900459
B1727484232812N00246316WA0045900459
B1727494232812N00246316WA0045900459
B1727504232812N00246316WA0046000459
B1727514232812N00246316WA0045900459
B1727524232812N00246316WA0045900459
B1727534232812N00246316WA0045900459
B1727544232812N00246316WA0045900459
B1727554232812N00246316WA0045900459
B1727564232812N00246316WA0045900459
B1727574232812N00246316WA0045900459
B1727584232812N00246316WA0045900459
B1727594232812N00246316WA0045900458
LXCG     TRCXCTSTATS eyJzdGF0cyI6eyJ0ZXJyYWluQm1wQ2FjaGUiOnsiYWxsb2MiOjAsImFsbG9jRmFpbCI6MCwibWF4c2l6
LXCG     TRCXCTSTATS ZSI6NzIsIm1heHNpemVJbml0Ijo3MiwicmV1c2UiOjB9LCJHUFMiOnsiYWx0Rml4R2VvaWREaWZmIjot
LXCG     TRCXCTSTATS NTMuMzA5NTEyNDk3NTkwNTcsImFsdEZpeE1ldGhvZCI6eyJkaWZmQXBpR2VvaWQiOjAsImRpZmZBcGlO
LXCG     TRCXCTSTATS bWVhIjowLCJubWVhIjozOTcyfSwiYXBpVGltZU9mZk1TIjotMSwiYXBpQ250IjozOTczLCJhbHRGaXhO
LXCG     TRCXCTSTATS bWVhRGlmZiI6LTUxLjMwMTUxODI0OTUxNTc0LCJiZWFyaW5nQ29tcHV0ZWQiOjcsIm5tZWFBbHRDbnQi
LXCG     TRCXCTSTATS OjM5NzMsIm5tZWFDbnQiOjcyMjMzLCJubWVhUG9zQ250IjozOTczLCJzcGVlZENvbXB1dGVkIjo0MX19
LXCG     TRCXCTSTATS fQ==
LXCG     VERSION:6.1.b
